     2              OBSERVATION DATA    GPS                 RINEX VERSION / TYPE
teqc 1997Jul24 19970814                                     PGM / RUN BY / DATE
                                                            COMMENT
Original Marker Name: 0917                                  COMMENT
Campaign Name: HPGN 1991                                    COMMENT
4-Character Station Name: 0917                              COMMENT
6-Character Antenna Code: TRMSST                            COMMENT
Vertical Measurement Point: BPA                             COMMENT
Vertical Offset to Rinex Ref. Point: 0.0000                 COMMENT
Radial Measurement Point: RRP                               COMMENT
Radial Offset to Rinex Ref. Point: 0.0000                   COMMENT
Antenna Height from Field Measurement: 2.2200 m             COMMENT
Original XYZ: -2465913.6099 -4607163.3856 3646279.3802      COMMENT
New XYZ position is based on association with SCEC monument COMMENT
E1E9Y5V1+0011. Position of that monument is believed to be  COMMENT
valid to within 1 m horizontally; vertical accuracy         COMMENT
should be no worse than 3-times this value.                 COMMENT
                                                            COMMENT
Revised Rinex header created by UCSD GPS archive for        COMMENT
GSAC on 18-Apr-1999 (1999:108) 23:11:14 GMT                 COMMENT
For assistance contact dagnew@ucsd.edu or hjohnson@ucsd.edu COMMENT
                                                            COMMENT
PORT 1972                                                   MARKER NAME
unknown NATIONAL GEODETIC SURVEY                            OBSERVER / AGENCY
485 TRIMBLE 4000 SST NP 4.30 / SP 4.20                      REC # / TYPE / VERS
16 TR 4000SST L1/L2 GEO                                     ANT # / TYPE
 -2465913.0000 -4607164.0000  3646276.0000                  APPROX POSITION XYZ
        2.2200        0.0000        0.0000                  ANTENNA: DELTA H/E/N
     1     1     0                                          WAVELENGTH FACT L1/2
     3    C1    L1    L2                                    # / TYPES OF OBSERV
     0                                                      INTERVAL
  1991     4    24    19    47   15.000000                  TIME OF FIRST OBS
  1991     4    25     1    53   60.000000                  TIME OF LAST OBS
     0                                                      # OF SATELLITES
                                                            END OF HEADER
 91  4 24 19 47 15.0000000  0  4G18G 2G11G19
  20590642.258          -0.72718
  23947264.2504         -0.66155
  23814687.9694         -0.93656
  20828906.4224         -0.43057
 91  4 24 19 47 30.0000000  0  4G18G 2G11G19
  20592166.617        8011.383 8        -0.31633
  23936454.6564     -56797.57745
  23806663.469      -42167.910 6
  20826549.492      -12368.147 7        -0.12532
 91  4 24 19 47 45.0000000  0  4G18G 2G11G19
  20593697.461       16054.781 8      6267.23823
  23925641.430     -113632.903 5        -0.44431
  23798642.5474     -84326.64946        -0.08171
  20824192.352      -24771.482 7     -9665.04122
 91  4 24 19 48  0.0000000  0  4G18G 2G11G19
  20595238.242       24151.377 8     12576.24723
  23914822.3444    -170484.80845    -44300.44661
  23790624.680     -126454.958 6    -32827.20221
  20821827.367      -37188.680 7    -19340.76022
 91  4 24 19 48 15.0000000  0  4G18G 2G11G19
  20596791.9454      32320.82948     18942.02763
  23904002.3834    -227333.02645    -88597.58261
  23782619.242     -168532.655 6    -65614.88421
  20819467.633      -49600.058 7    -29011.94122
 91  4 24 19 48 30.0000000  0  4G18G 2G11G19
  20598365.6644      40582.44848     25379.62463
  23893190.242     -284158.261 5   -132876.80921
  23774621.7664    -210539.88346    -98347.65761
  20817110.672      -61986.007 7    -38663.31222
 91  4 24 19 48 45.0000000  0  4G18G 2G11G19
  20599952.3364      48923.38148     31879.02463
  23882377.0234    -340973.08945   -177147.91861
  23766640.336     -252489.245 6   -131035.33121
  20814755.602      -74359.565 7    -48305.02622
 91  4 24 19 49  0.0000000  0  4G18G 2G11G19
  20601553.5164      57340.85848     38438.06363
  23871566.969     -397780.295 5   -221413.09821
  23758668.992     -294383.142 6   -163679.80621
  20812404.102      -86723.511 7    -57939.25322
 91  4 24 19 49 15.0000000  0  4G18G 2G11G19
  20603171.5234      65840.98248     45061.50863
  23860760.6094    -454573.32245   -265667.22261
  23750707.016     -336214.928 6   -196275.86221
  20810054.898      -99071.650 7    -67561.16022
 91  4 24 19 49 30.0000000  0  4G18G 2G11G19
  20604804.9844      74425.97147     51751.08063
  23849956.5784    -511349.70045   -309908.38761
  23742760.953     -377981.997 6   -228821.50821
  20807706.1094    -111401.82047    -77169.07362
 91  4 24 19 49 45.0000000  0  4G18G 2G11G19
  20606455.1804      83098.18047     58508.60963
  23839154.1334    -568106.82145   -354134.52661
  23734824.617     -419681.518 6   -261314.50221
  20805366.5004    -123711.42347    -86760.96362
 91  4 24 19 50  0.0000000  0  4G18G 2G11G19
  20608122.5944      91859.02947     65335.21163
  23828357.797     -624843.308 5   -398344.60521
  23726902.5164    -461311.79646   -293753.57461
  20803024.773     -135999.326 7    -96335.93622
 91  4 24 19 50 15.0000000  0  4G18G 2G11G19
  20609806.0784     100705.01947     72228.15963
  23817563.070     -681562.301 5   -442541.06121
  23718993.5944    -502875.89246   -326141.04861
  20800690.406     -148268.747 7   -105896.51522
 91  4 24 19 50 30.0000000  0  4G18G 2G11G19
  20611505.3754     109638.13047     79188.99563
  23806775.8594    -738261.90945   -486722.38761
  23711097.1254    -544371.61846   -358475.26061
  20798359.828     -160518.059 7   -115441.42022
 91  4 24 19 50 45.0000000  0  4G18G 2G11G19
  20613222.5084     118658.59747     86217.89463
  23795991.0634    -794941.43545   -530888.07561
  23703214.7584    -585798.21346   -390755.60761
  20796033.9224    -172746.96747   -124970.43162
 91  4 24 19 51  0.0000000  0  4G18G 2G11G19
  20614954.6804     127762.43647     93311.76063
  23785209.7424    -851604.71745   -575041.10461
  23695342.719     -627159.231 6   -422984.86121
  20793706.8054    -184959.30047   -134486.52762
 91  4 24 19 51 15.0000000  0  4G18G 2G11G19
  20616704.9304     136953.53348    100473.61963
  23774428.789     -908247.535 5   -619178.20521
  23687484.5944    -668450.31546   -455159.61261
  20791389.4694    -197151.27447   -143986.75562
 91  4 24 19 51 30.0000000  0  4G18G 2G11G19
  20618469.7504     146231.87747    107703.46763
  23763651.8284    -964869.79645   -663299.26161
  23679641.305     -709671.187 6   -487279.66121
  20789070.5784    -209322.76447   -153471.02762
 91  4 24 19 51 45.0000000  0  4G18G 2G11G19
  20620253.2734     155605.14347    115007.27763
  23752883.820    -1021463.774 5   -707398.30521
  23671812.586     -750813.873 6   -519338.78121
  20786762.5704    -221466.20547   -162933.44162
 91  4 24 19 52  0.0000000  0  4G18G 2G11G19
  20622054.5004     165067.30247    122380.35663
  23742117.4534   -1078035.38545   -751479.91061
  23663997.875     -791883.885 6   -551341.27721
  20784453.9534    -233587.72147   -172378.77462
 91  4 24 19 52 15.0000000  0  4G18G 2G11G19
  20623870.9614     174617.26747    129821.85163
  23731357.703    -1134585.262 5   -795544.59121
  23656195.852     -832881.685 6   -583287.51621
  20782152.7974    -245687.95247   -181807.52062
 91  4 24 19 52 30.0000000  0  4G18G 2G11G19
  20625705.8524     184259.62247    137335.34063
  23720600.6884   -1191108.97145   -839588.88861
  23648407.891     -873802.720 6   -615173.93521
  20779854.7814    -257762.73747   -191216.44262
 91  4 24 19 52 45.0000000  0  4G18G 2G11G19
  20627557.7424     193991.00748    144918.20863
  23709848.781    -1247609.303 5   -883614.94821
  23640634.359     -914649.629 6   -647002.58521
  20777562.0554    -269815.26047   -200608.01762
 91  4 24 19 53  0.0000000  0  4G18G 2G11G19
  20629428.0944     203818.64647    152576.07463
  23699100.7504   -1304078.93445   -927617.11161
  23632877.766     -955414.953 6   -678767.66821
  20775272.5084    -281838.44347   -209976.73262
 91  4 24 19 53 15.0000000  0  4G18G 2G11G19
  20631314.9304     213733.66748    160302.03063
  23688361.758    -1360526.182 5   -971601.81021
  23625134.7974    -996106.72246   -710475.45261
  20772990.0784    -293840.67047   -219329.11962
 91  4 24 19 53 30.0000000  0  4G18G 2G11G19
  20633219.4144     223742.34947    168100.97063
  23677623.7584   -1416944.95745  -1015564.34061
  23617406.109    -1036718.741 6   -742121.07721
  20770711.7894    -305815.89247   -228660.46162
 91  4 24 19 53 45.0000000  0  4G18G 2G11G19
  20635142.4534     233845.96648    175973.88563
  23666894.859    -1473333.753 5  -1059503.50421
  23609692.5164   -1077249.38246   -773703.30361
  20768438.4774    -317762.91547   -237969.82862
 91  4 24 19 54  0.0000000  0  4G18G 2G11G19
  20637081.5004     244036.25847    183914.33463
  23656169.3754   -1529700.68845  -1103425.63561
  23601994.195    -1117706.237 6   -805228.02321
  20766167.1884    -329690.01847   -247263.67162
 91  4 24 19 54 15.0000000  0  4G18G 2G11G19
  20639037.7034     254316.24848    191924.68263
  23645446.8364   -1586042.27945  -1147328.02461
  23594310.602    -1158085.966 6   -836692.64521
  20763902.6644    -341594.11547   -256539.59262
 91  4 24 19 54 30.0000000  0  4G18G 2G11G19
  20641011.0704     264685.52348    200004.59963
  23634731.516    -1642358.727 5  -1191210.82521
  23586640.4304   -1198388.50646   -868097.13061
  20761640.6414    -353475.50147   -265797.81362
 91  4 24 19 54 45.0000000  0  4G18G 2G11G19
  20643001.6174     275146.78448    208156.19463
  23624017.0704   -1698646.97246  -1235071.64361
  23578986.4694   -1238610.55546   -899438.89761
  20759386.6644    -365331.18047   -275036.00762
 91  4 24 19 55  0.0000000  0  4G18G 2G11G19
  20645009.8444     285698.17548    216378.01763
  23613313.023    -1754909.062 6  -1278912.09221
  23571348.2894   -1278753.86446   -930719.29561
  20757133.3364    -377163.34847   -284255.87862
 91  4 24 19 55 15.0000000  0  4G18G 2G11G19
  20647035.5084     296342.78248    224672.47663
  23602612.0164   -1811141.70846  -1322729.60061
  23563723.0634   -1318815.06546   -961935.72461
  20754888.6254    -388968.92147   -293455.02462
 91  4 24 19 55 30.0000000  0  4G18G 2G11G19
  20649077.125      307072.031 8    233032.89023
  23591913.8594   -1867353.31446  -1366530.70661
  23556115.6334   -1358802.00846   -993094.28661
  20752644.1254    -400756.03947   -302639.79162
 91  4 24 19 55 45.0000000  0  4G18G 2G11G19
  20651136.7504     317897.60948    241468.36763
  23581224.445    -1923531.952 6  -1410306.12221
  23548520.797    -1398702.974 6  -1024185.86021
  20750409.3594    -412513.47847   -311801.42862
 91  4 24 19 56  0.0000000  0  4G18G 2G11G19
  20653215.0314     328815.73248    249975.95563
  23570540.8284   -1979681.25146  -1454058.67161
  23540943.8134   -1438521.29746  -1055213.02461
  20748173.1024    -424244.99647   -320942.86962
 91  4 24 19 56 15.0000000  0  4G18G 2G11G19
  20655310.2974     339825.72048    258555.12863
  23559858.0704   -2035801.46246  -1497788.57661
  23533382.1564   -1478257.01746  -1086175.83761
  20745947.7974    -435950.95947   -330064.39662
 91  4 24 19 56 30.0000000  0  4G18G 2G11G19
  20657423.0164     350928.02948    267206.23963
  23549185.9064   -2091891.92246  -1541495.28761
  23525836.6564   -1517909.41546  -1117073.71161
  20743722.4614    -447630.98147   -339165.71262
 91  4 24 19 56 45.0000000  0  4G18G 2G11G19
  20659553.8754     362124.45148    275930.68063
  23538520.711    -2147950.602 6  -1585177.23421
  23518309.375    -1557476.355 6  -1147904.99621
  20741508.1254    -459283.22447   -348245.37962
 91  4 24 19 57  0.0000000  0  4G18G 2G11G19
  20661700.6174     373408.82548    284723.66063
  23527855.609    -2203983.491 6  -1628839.09621
  23510792.9924   -1596963.53646  -1178674.13161
  20739293.7734    -470913.73147   -357308.11162
 91  4 24 19 57 15.0000000  0  4G18G 2G11G19
  20663866.0004     384787.59848    293590.20663
  23517200.1644   -2259984.06546  -1672475.77861
  23503295.633    -1636364.072 6  -1209375.74921
  20737088.2664    -482516.04847   -366348.87262
 91  4 24 19 57 30.0000000  0  4G18G 2G11G19
  20666048.2814     396254.70548    302525.57163
  23506544.797    -2315957.738 6  -1716091.48621
  23495813.5944   -1675683.31346  -1240014.01661
  20734881.2894    -494095.82247   -375372.06662
 91  4 24 19 57 45.0000000  0  4G18G 2G11G19
  20668247.4844     407809.71348    311529.43463
  23495900.992    -2371905.039 6  -1759686.65521
  23488347.836    -1714921.710 6  -1270589.29621
  20732684.5554    -505653.94147   -384378.38662
 91  4 24 19 58  0.0000000  0  4G18G 2G11G19
  20670463.7194     419458.38948    320606.28363
  23485262.305    -2427819.980 6  -1803256.60621
  23480897.2274   -1754073.00846  -1301096.70961
  20730487.0314    -517184.63347   -393363.33762
 91  4 24 19 58 15.0000000  0  4G18G 2G11G19
  20672699.1024     431201.21648    329756.50363
  23474627.477    -2483701.851 6  -1846800.78621
  23473463.672    -1793136.214 6  -1331535.46721
  20728300.6804    -528687.32647   -402326.46862
 91  4 24 19 58 30.0000000  0  4G18G 2G11G19
  20674950.5944     443033.46648    338976.40063
  23463999.406    -2539555.133 6  -1890322.68821
  23466045.7894   -1832115.70146  -1361909.00361
  20726116.7424    -540166.56347   -411271.32962
 91  4 24 19 58 45.0000000  0  4G18G 2G11G19
  20677220.0864     454958.78948    348268.82563
  23453374.945    -2595376.064 6  -1933819.38521
  23458643.8594   -1871007.35446  -1392214.08661
  20723936.6724    -551618.51047   -420194.91562
 91  4 24 19 59  0.0000000  0  4G18G 2G11G19
  20679505.5784     466972.20248    357629.88863
  23442757.7034   -2651169.30546  -1977294.50161
  23451259.930    -1909815.787 6  -1422454.32621
  20721761.6174    -563048.37347   -429101.29962
 91  4 24 19 59 15.0000000  0  4G18G 2G11G19
  20681809.2194     479077.65948    367062.67663
  23432148.0704   -2706930.82646  -2020744.90261
  23443888.7114   -1948536.84046  -1452626.47961
  20719591.1484    -574452.21947   -437987.40962
 91  4 24 19 59 30.0000000  0  4G18G 2G11G19
  20684131.5394     491277.60048    376569.08363
  23421541.164    -2762657.929 6  -2064168.48921
  23436540.016    -1987167.438 6  -1482728.14321
  20717425.5864    -585827.39447   -446851.17962
 91  4 24 19 59 45.0000000  0  4G18G 2G11G19
  20686470.7114     503571.78548    386148.93263
  23410943.695    -2818350.525 6  -2107565.17721
  23429205.2034   -2025707.42846  -1512759.20061
  20715268.3444    -597173.94247   -455692.63962
 91  4 24 20  0  0.0000000  0  4G18G 2G11G19
  20688826.3834     515953.82848    395797.23863
  23400352.203    -2874014.588 6  -2150939.64121
  23421886.4534   -2064162.75946  -1542724.30461
  20713109.3284    -608498.25147   -464516.77362
 91  4 24 20  0 15.0000000  0  4G18G 2G11G19
  20691199.4774     528424.64948    405514.72763
  23389764.375    -2929649.151 6  -2194291.10821
  23414586.3204   -2102532.13946  -1572622.42161
  20710959.8284    -619799.32947   -473322.80262
 91  4 24 20  0 30.0000000  0  4G18G 2G11G19
  20693591.8134     540992.23748    415307.61263
  23379184.078    -2985245.866 6  -2237613.08521
  23407301.7424   -2140807.09846  -1602446.96661
  20708817.2194    -631069.06647   -482104.41362
 91  4 24 20  0 45.0000000  0  4G18G 2G11G19
  20696001.0864     553652.06548    425172.37463
  23368610.3134   -3040809.37946  -2280909.19861
  23400035.922    -2178991.955 6  -1632201.29821
  20706674.5084    -642312.17547   -490865.27962
 91  4 24 20  1  0.0000000  0  4G18G 2G11G19
  20698426.9614     566402.12148    435107.44463
  23358044.9534   -3096341.48946  -2324180.84161
  23392786.2664   -2217088.24946  -1661886.62661
  20704544.2734    -653530.47446   -499606.81162
 91  4 24 20  1 15.0000000  0  4G18G 2G11G19
  20700870.9224     579244.68648    445114.59663
  23347484.477    -3151839.665 6  -2367426.03521
  23385556.313    -2255093.237 6  -1691500.80321
  20702411.3054    -664721.60547   -508327.17662
 91  4 24 20  1 30.0000000  0  4G18G 2G11G19
  20703331.188      592175.729 8    455190.69123
  23336929.539    -3207307.502 6  -2410647.59921
  23378340.3204   -2293010.52946  -1721046.64761
  20700290.0784    -675889.52246   -517029.44562
 91  4 24 20  1 45.0000000  0  4G18G 2G11G19
  20705809.922      605202.884 8    465341.67923
  23326380.609    -3262737.003 6  -2453839.27721
  23371141.594    -2330831.972 6  -1750517.79921
  20698166.9064    -687026.34247   -525707.48562
 91  4 24 20  2  0.0000000  0  4G18G 2G11G19
  20708307.586      618323.763 8    475565.69723
  23315840.1644   -3318130.59546  -2497002.99361
  23363960.8594   -2368559.67846  -1779915.91261
  20696054.9534    -698134.65647   -534363.31862
 91  4 24 20  2 15.0000000  0  4G18G 2G11G19
  20710821.703      631537.509 8    485862.07623
  23305304.641    -3373488.879 6  -2540139.18721
  23356800.641    -2406194.175 6  -1809241.38721
  20693944.7034    -709215.32847   -542997.61062
 91  4 24 20  2 30.0000000  0  4G18G 2G11G19
  20713353.266      644844.423 7    496231.05323
  23294778.977    -3428811.510 6  -2583247.59921
  23349655.617    -2443734.940 6  -1838493.83021
  20691842.0314    -720268.11147   -551610.16562
 91  4 24 20  2 45.0000000  0  4G18G 2G11G19
  20715904.250      658244.560 8    506672.66823
  23284254.984    -3484097.687 6  -2626327.60221
  23342531.906    -2481181.062 6  -1867672.52421
  20689743.9144    -731292.46947   -560200.57662
 91  4 24 20  3  0.0000000  0  4G18G 2G11G19
  20718471.578      671737.665 8    517186.72823
  23273742.8914   -3539347.49846  -2669379.28461
  23335424.3204   -2518532.36846  -1896777.34161
  20687653.7034    -742288.49046   -568768.90762
 91  4 24 20  3 15.0000000  0  4G18G 2G11G19
  20721055.992      685323.479 7    527773.02823
  23263234.9454   -3594561.28546  -2712402.88161
  23328333.078    -2555788.937 6  -1925808.33421
  20685563.3754    -753256.61047   -577315.49962
 91  4 24 20  3 29.9990000  0  4G18G 2G11G19
  20723659.214      699000.040 7    538430.04123
  23252734.550    -3649735.954 6  -2755395.99621
  23321261.8394   -2592948.78746  -1954763.96361
  20683483.0114    -764197.09047   -585840.55062
 91  4 24 20  3 44.9990000  0  5G18G 2G11G19G16
  20726280.050      712773.380 7    549162.46823
  23242242.6594   -3704874.79946  -2798361.21161
  23314208.4954   -2630012.63446  -1983644.79061
  20681407.1054    -775107.32747   -594342.04062
  24132929.4564     -37813.51845
 91  4 24 20  3 59.9990000  0  5G18G 2G11G19G16
  20728918.714      726637.790 7    559965.85523
  23231756.1754   -3759978.57846  -2841299.09361
  23307173.7924   -2666982.30346  -2012452.23461
  20679336.1754    -785991.07147   -602822.87862
  24125759.5654     -75527.86645
 91  4 24 20  4 14.9990000  0  5G18G 2G11G19G16
  20731575.831      740600.188 7    570845.60023
  23221279.5654   -3815040.08346  -2884204.03661
  23300158.2764   -2703850.42746  -2041180.54961
  20677270.5894    -796841.41947   -611277.69762
  24118593.847     -113136.030 5
 91  4 24 20  4 29.9990000  0  5G18G 2G11G19G16
  20734251.636      754660.402 7    581801.55823
  23210808.9014   -3870059.25146  -2927075.99061
  23293161.573    -2740616.727 6  -2069829.54321
  20675211.7454    -807658.45647   -619706.55362
  24111462.2534    -150637.64845
 91  4 24 20  4 44.9990000  0  5G18G 2G11G19G16
  20736945.401      768814.611 7    592830.76723
  23200346.6594   -3925039.66646  -2969917.74761
  23286184.5114   -2777284.51246  -2098401.74661
  20673158.4404    -818445.98447   -628112.42462
  24104344.8704    -188036.40745        -0.20071
 91  4 24 20  4 59.9990000  0  5G18G 2G11G19G16
  20739656.019      783059.456 7    603930.59823
  23189891.2534   -3979984.51446  -3012731.78061
  23279224.558    -2813856.740 6  -2126899.50521
  20671111.3554    -829207.03547   -636497.66162
  24097247.3234    -225335.39445    -29064.33961
 91  4 24 20  5 14.9990000  0  5G18G 2G11G19G16
  20742384.144      797399.458 7    615104.57823
  23179442.8554   -4034888.86246  -3055514.26561
  23272284.6834   -2850328.40346  -2155318.89861
  20669070.4724    -839936.99047   -644858.67262
  24090168.3784    -262529.63445    -58046.88961
 91  4 24 20  5 29.9990000  0  5G18G 2G11G19G16
  20745131.933      811835.562 7    626353.43823
  23169003.597    -4089751.703 6  -3098264.40221
  23265363.3474   -2886698.32546  -2183659.01861
  20667034.5194    -850634.88647   -653194.69462
  24083111.5894    -299617.74745    -86946.75161
 91  4 24 20  5 44.9990000  0  5G18G 2G11G19G16
  20747896.878      826366.844 8    637676.46923
  23158569.5814   -4144573.69146  -3140982.71061
  23258462.0734   -2922967.03546  -2211920.25761
  20665003.7694    -861301.59847   -661506.42362
  24076072.7374    -336600.74745   -115764.63161
 91  4 24 20  5 59.9990000  0  5G18G 2G11G19G16
  20750680.261      840992.030 8    649072.66423
  23148145.2454   -4199355.88446  -3183670.01161
  23251578.347    -2959135.242 6  -2240103.19321
  20662982.7764    -871938.29347   -669794.76062
  24069051.878     -373479.488 5   -144501.34621
 91  4 24 20  6 14.9990000  0  5G18G 2G11G19G16
  20753480.526      855709.317 7    660540.63223
  23137729.1514   -4254099.78146  -3226327.46261
  23244715.456    -2995204.551 6  -2268209.07121
  20660960.4484    -882546.76947   -678061.10362
  24062058.8394    -410255.77845   -173158.21361
 91  4 24 20  6 29.9990000  0  5G18G 2G11G19G16
  20756299.597      870522.847 8    672083.59423
  23127318.1754   -4308801.03146  -3268951.69461
  23237868.651    -3031170.309 6  -2296234.26021
  20658950.0814    -893122.65447   -686302.05562
  24055076.355     -446924.802 5   -201731.48421
 91  4 24 20  6 44.9990000  0  5G18G 2G11G19G16
  20759137.058      885429.590 7    683699.19123
  23116918.1124   -4363462.33846  -3311544.78861
  23231045.339    -3067035.266 6  -2324180.90721
  20656942.5194    -903668.89447   -694519.90662
  24048122.2764    -483489.46245   -230223.44061
 91  4 24 20  6 59.9990000  0  5G18G 2G11G19G16
  20761992.144      900434.726 8    695391.45523
  23106522.7694   -4418078.12246  -3354102.41361
  23224240.565    -3102793.557 6  -2352044.43121
  20654942.1834    -914180.15346   -702710.49962
  24041186.401     -519944.297 5   -258629.79421
 91  4 24 20  7 14.9990000  0  5G18G 2G11G19G16
  20764864.386      915531.068 7    707154.78523
  23096138.5264   -4472655.48746  -3396630.10961
  23217455.355    -3138451.904 6  -2379830.07521
  20652946.6444    -924663.56447   -710879.38762
  24034270.151     -556295.877 5   -286955.74321
 91  4 24 20  7 29.9990000  0  5G18G 2G11G19G16
  20767755.019      930720.973 8    718991.01823
  23085759.1204   -4527192.21646  -3439126.13961
  23210688.737    -3174007.973 6  -2407536.02421
  20650957.4484    -935116.98546   -719024.90962
  24027365.1204    -592542.33245   -315199.73061
 91  4 24 20  7 44.9990000  0  5G18G 2G11G19G16
  20770664.3554     946007.57247    730902.59863
  23075391.4954   -4581684.81546  -3481587.77461
  23203942.769    -3209458.138 6  -2435159.45921
  20648974.3784    -945537.06147   -727144.44962
  24020493.472     -628680.084 5   -343359.04921
 91  4 24 20  7 59.9990000  0  5G18G 2G11G19G16
  20773591.409      961386.661 8    742886.25523
  23065028.2064   -4636137.14046  -3524018.03061
  23197216.0894   -3244806.19446  -2462703.32161
  20646999.4874    -955927.91646   -735241.21762
  24013636.065     -664712.900 5   -371436.55821
 91  4 24 20  8 14.9990000  0  5G18G 2G11G19G16
  20776535.573      976859.595 8    754943.03823
  23054672.675    -4690547.311 6  -3566415.43621
  23190511.097    -3280050.150 6  -2490166.07421
  20645026.5344    -966287.75347   -743313.82062
  24006797.5264    -700638.89445   -399430.87861
 91  4 24 20  8 29.9990000  0  5G18G 2G11G19G16
  20779513.683      992514.317 7    767141.47223
  23044344.862    -4744827.478 6  -3608711.54721
  23183840.058    -3315101.882 6  -2517479.03521
  20643077.1124    -976528.80246   -751293.85962
  23999998.964     -736370.239 5   -427273.45321
 91  4 24 20  8 44.9990000  0  5G18G 2G11G19G16
  20782519.683     1008303.070 8    779444.34323
  23034030.8084   -4799025.08846  -3650943.32161
  23177197.214    -3350008.552 6  -2544678.96321
  20641141.6204    -986698.76846   -759218.50762
  23993230.370     -771954.190 5   -455001.23021
 91  4 24 20  8 59.9990000  0  5G18G 2G11G19G16
  20785540.745     1024181.971 8    791817.46623
  23023727.120    -4853183.947 6  -3693144.90521
  23170574.542    -3384813.860 6  -2571799.90621
  20639212.0264    -996841.40946   -767121.86562
  23986478.5734    -807434.57045   -482648.28961
 91  4 24 20  9 14.9990000  0  5G18G 2G11G19G16
  20788580.761     1040156.541 8    804265.13323
  23013426.1364   -4907297.96046  -3735311.54261
  23163972.5584   -3419511.71846  -2598837.12661
  20637287.4724   -1006950.92246   -774999.40662
  23979742.339     -842805.316 4   -510209.92221
 91  4 24 20  9 29.9990000  0  5G18G 2G11G19G16
  20791639.300     1056226.249 8    816786.92923
  23003137.6124   -4961367.48346  -3777443.51861
  23157388.1444   -3454102.23946  -2625790.71261
  20635369.8234   -1017027.75946   -782851.49062
  23973038.0654    -878066.92145   -537686.50061
 91  4 24 20  9 44.9990000  0  5G18G 2G11G19G16
  20794714.784     1072389.456 8    829381.58823
  22992856.573    -5015393.981 6  -3819541.94921
  23150826.831    -3488586.650 6  -2652661.60721
  20633458.6364   -1027073.51146   -790679.34762
  23966343.339     -913220.562 4   -565078.97621
 91  4 24 20  9 59.9990000  0  5G18G 2G11G19G16
  20797807.964     1088641.787 8    842045.69223
  22982583.6754   -5069381.66446  -3861610.15161
  23144284.401    -3522969.029 6  -2679452.99621
  20631551.5194   -1037092.60446   -798486.43762
  23959674.6514    -948270.48645   -592390.61161
 91  4 24 20 10 14.9990000  0  5G18G 2G11G19G16
  20800917.917     1104986.067 8    854781.44623
  22972318.8314   -5123327.41546  -3903645.67661
  23137761.331    -3557246.116 6  -2706162.33921
  20629651.1834   -1047082.01947   -806270.39462
  23953023.9404    -983213.58245   -619619.00961
 91  4 24 20 10 29.9990000  0  5G18G 2G11G19G16
  20804045.495     1121419.964 8    867587.03223
  22962061.4804   -5177232.94046  -3945649.85361
  23131257.042    -3591419.536 6  -2732790.90621
  20627755.3554   -1057043.71947   -814032.75362
  23946398.4254   -1018051.70945   -646765.62261
 91  4 24 20 10 44.9990000  0  5G18G 2G11G19G16
  20807190.815     1137948.866 8    880466.64623
  22951810.7144   -5231093.27446  -3987618.83061
  23124774.480    -3625483.934 6  -2759334.52221
  20625865.6834   -1066972.65847   -821769.58862
  23939787.8624   -1052779.72644   -673826.41261
 91  4 24 20 10 59.9990000  0  5G18G 2G11G19G16
  20810353.706     1154574.512 8    893421.64823
  22941571.3864   -5284906.03946  -4029550.72561
  23118314.9564   -3659436.99046  -2785791.37961
  20623985.1984   -1076866.80846   -829479.31862
  23933201.9404   -1087395.13444   -700799.48761
 91  4 24 20 11 14.9990000  0  5G18G 2G11G19G16
  20813535.855     1171293.375 8    906449.28124
  22931340.315    -5338674.565 6  -4071448.15621
  23111874.2924   -3693281.71446  -2812163.82161
  20622106.2304   -1086729.48246   -837164.51962
  23926634.8704   -1121901.16345   -727687.29761
 91  4 24 20 11 29.9990000  0  5G18G 2G11G19G16
  20816734.276     1188101.771 8    919546.68423
  22921116.7064   -5392402.44746  -4113313.92261
  23105454.5814   -3727021.66546  -2838454.61861
  20620236.6834   -1096564.40046   -844828.09362
  23920089.0264   -1156301.42245   -754492.72261
 91  4 24 20 11 44.9990000  0  5G18G 2G11G19G16
  20819951.034     1205006.517 7    932719.16723
  22910899.2454   -5446082.68446  -4155142.55861
  23099053.2694   -3760649.51446  -2864658.06961
  20618370.3704   -1106364.35947   -852464.42762
  23913566.3704   -1190588.71545   -781210.10461
 91  4 24 20 11 59.9990000  0  5G18G 2G11G19G16
  20823185.964     1222010.536 7    945969.00323
  22900694.8234   -5499712.00946  -4196931.52461
  23092676.190    -3794161.953 6  -2890771.58121
  20616512.8864   -1116126.41747   -860071.22862
  23907062.362    -1224760.097 5   -807837.18321
 91  4 24 20 12 14.9990000  0  5G18G 2G11G19G16
  20826440.542     1239110.420 7    959293.53723
  22890497.550    -5553293.526 6  -4238683.24521
  23086320.7374   -3827561.86146  -2916797.41561
  20614661.5734   -1125853.90747   -867651.09162
  23900581.6514   -1258818.88145   -834376.51061
 91  4 24 20 12 29.9990000  0  5G18G 2G11G19G16
  20829711.597     1256304.052 7    972691.12023
  22880311.4874   -5606829.01146  -4280399.09161
  23079986.6674   -3860851.06446  -2942736.98761
  20612814.4804   -1135548.79547   -875205.54762
  23894120.3154   -1292766.73645   -860829.40361
 91  4 24 20 12 44.9990000  0  5G18G 2G11G19G16
  20833002.487     1273593.627 7    986163.46723
  22870130.823    -5660315.956 6  -4322077.11421
  23073673.878    -3894026.756 6  -2968588.11021
  20610978.0584   -1145208.76647   -882732.80062
  23887682.8864   -1326601.07145   -887193.83061
 91  4 24 20 12 59.9990000  0  5G18G 2G11G19G16
  20836310.394     1290973.788 7    999706.39623
  22859961.6674   -5713759.66146  -4363721.43561
  23067380.222    -3927094.155 6  -2994354.83821
  20609146.1054   -1154839.24647   -890237.06662
  23881266.409    -1360326.894 5   -913473.69121
 91  4 24 20 13 14.9990000  0  5G18G 2G11G19G16
  20839636.6834    1308453.23747   1013326.69063
  22849800.456    -5767151.197 6  -4405325.12321
  23061111.1984   -3960044.09746  -3020030.05261
  20607320.4564   -1164431.13847   -897711.26662
  23874869.901    -1393934.739 5   -939661.67121
 91  4 24 20 13 29.9990000  0  5G18G 2G11G19G16
  20842980.3314    1326026.42647   1027020.02563
  22839650.6284   -5820495.85546  -4446892.27061
  23054861.3704   -3992881.82446  -3045617.82461
  20605502.8704   -1173990.07646   -905159.78862
  23868493.503    -1427430.712 5   -965762.42721
 91  4 24 20 13 44.9990000  0  5G18G 2G11G19G16
  20846342.3084    1343694.04147   1040786.94163
  22829505.487    -5873792.700 6  -4488422.16521
  23048634.2844   -4025606.26346  -3071117.32361
  20603689.1444   -1183515.17047   -912581.94062
  23862142.8154   -1460813.65845   -991775.12461
 91  4 24 20 13 59.9990000  0  5G18G 2G11G19G16
  20849722.5034    1361457.75647   1054628.73663
  22819375.683    -5927039.918 6  -4529913.39021
  23042429.2614   -4058215.21346  -3096526.82561
  20601886.5194   -1193004.69446   -919976.37462
  23855810.5344   -1494081.79345  -1017698.34761
 91  4 24 20 14 14.9990000  0  5G18G 2G11G19G16
  20853121.3004    1379317.41147   1068545.29263
  22809253.198    -5980237.181 6  -4571365.69621
  23036245.8004   -4090708.43746  -3121846.15761
  20600084.6204   -1202458.57947   -927343.03462
  23849502.8004   -1527234.88645  -1043531.94561
 91  4 24 20 14 29.9990000  0  5G18G 2G11G19G16
  20856539.808     1397274.813 7   1082538.01623
  22799140.855    -6033382.347 6  -4612777.40521
  23030083.5584   -4123083.76946  -3147073.62061
  20598294.2694   -1211874.87147   -934680.40762
  23843215.034    -1560270.868 5  -1069274.26821
 91  4 24 20 14 44.9990000  0  5G18G 2G11G19G16
  20859974.495     1415326.427 7   1096604.15123
  22789033.940    -6086478.855 6  -4654151.19421
  23023945.2764   -4155344.32846  -3172211.65461
  20596507.1204   -1221257.00047   -941991.15262
  23836951.347    -1593192.832 5  -1094927.77321
 91  4 24 20 14 59.9990000  0  5G18G 2G11G19G16
  20863426.2064    1433468.67747   1110740.91363
  22778939.612    -6139529.970 6  -4695489.62021
  23017828.1984   -4187493.33146  -3197262.75861
  20594726.9404   -1230608.40647   -949277.96662
  23830703.784    -1626004.255 5  -1120495.15021
 91  4 24 20 15 14.9990000  0  5G18G 2G11G19G16
  20866897.183     1451704.517 7   1124950.60223
  22768852.526    -6192532.572 6  -4736790.24521
  23011733.9014   -4219527.29146  -3222224.22861
  20592954.0114   -1239925.93647   -956538.38062
  23824485.1984   -1658701.80345  -1145973.75761
 91  4 24 20 15 29.9990000  0  5G18G 2G11G19G16
  20870385.7304    1470038.94347   1139237.11063
  22758779.089    -6245481.546 6  -4778049.08521
  23005659.7454   -4251440.98646  -3247091.97161
  20591192.6204   -1249204.53046   -963768.45462
  23818287.628    -1691280.423 5  -1171359.71021
 91  4 24 20 15 44.9990000  0  5G18G 2G11G19G16
  20873893.1594    1488467.89047   1153597.26363
  22748711.878    -6298380.507 6  -4819268.94321
  22999609.0194   -4283238.05246  -3271868.84261
  20589430.2304   -1258448.05847   -970971.20162
  23812110.3624   -1723743.63145  -1196655.71861
 91  4 24 20 15 59.9990000  0  5G18G 2G11G19G16
  20877416.5584    1506986.76347   1168027.49263
  22738654.847    -6351233.591 6  -4860453.05821
  22993579.3474   -4314922.47946  -3296557.95061
  20587676.1834   -1267660.92746   -978150.06062
  23805952.8784   -1756095.94445  -1221865.34861
 91  4 24 20 16 14.9990000  0  5G18G 2G11G19G16
  20880958.7144    1525601.51847   1182532.43463
  22728604.980    -6404034.720 6  -4901596.69021
  22987573.3234   -4346488.00846  -3321154.40761
  20585930.5194   -1276836.94447   -985300.20562
  23799820.8004   -1788331.02445  -1246983.57661
 91  4 24 20 16 29.9990000  0  5G18G 2G11G19G16
  20884519.5734    1544311.01047   1197111.19263
  22718567.909    -6456785.115 6  -4942700.79121
  22981586.8554   -4377935.54646  -3345658.92761
  20584192.8784   -1285977.40147   -992422.63662
  23793706.2064   -1820449.86345  -1272011.28961
 91  4 24 20 16 44.9990000  0  5G18G 2G11G19G16
  20888096.7534    1563114.11147   1211762.89163
  22708539.394    -6509485.590 6  -4983765.98921
  22975626.6754   -4409265.86046  -3370072.10061
  20582459.1754   -1295083.43547   -999518.25062
  23787615.894    -1852453.179 5  -1296948.94121
 91  4 24 20 16 59.9990000  0  5G18G 2G11G19G16
  20891692.9174    1582007.66447   1226485.07563
  22698520.222    -6562138.552 6  -5024794.17021
  22969685.4484   -4440481.18646  -3394395.67161
  20580731.5814   -1304157.29446  -1006588.79062
  23781546.8394   -1884343.85545  -1321798.83961
 91  4 24 20 17 14.9990000  0  5G18G 2G11G19G16
  20895305.8084    1600994.14147   1241279.66663
  22688509.792    -6614741.955 6  -5065783.73721
  22963768.0034   -4471579.49946  -3418628.06661
  20579010.3004   -1313197.21047  -1013632.88662
  23775501.0584   -1916119.77245  -1346559.31261
 91  4 24 20 17 29.9990000  0  5G18G 2G11G19G16
  20898937.2374    1620077.23747   1256149.54263
  22678509.565    -6667291.604 6  -5106731.40921
  22957872.0974   -4502556.47146  -3442765.91061
  20577298.6364   -1322199.17546  -1020647.40862
  23769480.808    -1947776.476 5  -1371226.91521
 91  4 24 20 17 44.9990000  0  5G18G 2G11G19G16
  20902586.9954    1639254.98147   1271093.17563
  22668521.839    -6719789.099 6  -5147638.45121
  22952001.855    -4533413.440 6  -3466810.24821
  20575592.5504   -1331164.63946  -1027633.49162
  23763475.300    -1979315.507 5  -1395802.79721
 91  4 24 20 17 59.9990000  0  5G18G 2G11G19G16
  20906254.7304    1658527.78747   1286110.88563
  22658539.456    -6772233.972 6  -5188504.48221
  22946152.628    -4564149.811 6  -3490760.61221
  20573893.1984   -1340093.41146  -1034590.98262
  23757497.2064   -2010736.60345  -1420286.75861
 91  4 24 20 18 14.9990000  0  5G18G 2G11G19G16
  20909940.8084    1677895.62147   1301202.63864
  22648570.558    -6824625.649 6  -5229329.06221
  22940326.8554   -4594764.95646  -3514616.50961
  20572201.308    -1348985.116 6  -1041519.59522
  23751539.511    -2042039.329 5  -1444678.54521
 91  4 24 20 18 29.9990000  0  5G18G 2G11G19G16
  20913643.4874    1697356.67247   1316367.02663
  22638608.511    -6876965.903 6  -5270113.56521
  22934523.222    -4625260.473 6  -3538379.19421
  20570517.7614   -1357841.55246  -1048420.71862
  23745602.378    -2073225.481 5  -1468979.44621
 91  4 24 20 18 44.9990000  0  5G18G 2G11G19G16
  20917364.0264    1716908.86047   1331602.43563
  22628659.3624   -6929256.18146  -5310859.14261
  22928743.120    -4655637.735 6  -3562049.74321
  20568836.480    -1366664.334 6  -1055295.62322
  23739691.362    -2104296.288 4  -1493190.46921
 91  4 24 20 18 59.9990000  0  5G18G 2G11G19G16
  20921103.4484    1736559.91747   1346914.87863
  22618718.558    -6981488.889 6  -5351559.83821
  22922986.0194   -4685888.86546  -3585621.99261
  20567167.386    -1375445.842 6  -1062138.36622
  23733806.1444   -2135243.89145  -1517305.51661
 91  4 24 20 19 14.9990000  0  6G18G 2G11G19G16G 6
  20924862.2924    1756307.55848   1362302.58963
  22608789.347    -7033666.165 6  -5392217.34521
  22917252.6124   -4716015.97246  -3609097.60461
  20565502.534    -1384188.304 6  -1068950.68622
  23727935.909    -2166070.924 4  -1541326.57821
  24180684.1594         -0.02754
 91  4 24 20 19 29.9990000  0  6G18G 2G11G19G16G 6
  20928637.8474    1776150.51448   1377764.56863
  22598871.6984   -7085788.76146  -5432832.25461
  22911543.886    -4746019.666 6  -3632477.05221
  20563846.909    -1392892.607 6  -1075733.27222
  23722091.5034   -2196777.74044  -1565253.99561
  24172092.2064     -45158.00244
 91  4 24 20 19 44.9990000  0  6G18G 2G11G19G16G 6
  20932431.3234    1796086.70747   1393299.19863
  22588962.8154   -7137858.63246  -5473406.08361
  22905856.925    -4775901.748 6  -3655761.73721
  20562195.980    -1401560.907 6  -1082487.80322
  23716276.8554   -2227366.58544  -1589089.45061
  24163497.6754     -90313.19844
 91  4 24 20 19 59.9990000  0  6G18G 2G11G19G16G 6
  20936242.8624    1816116.55947   1408906.81063
  22579064.753    -7189875.008 6  -5513938.22021
  22900194.8864   -4805661.38546  -3678951.00461
  20560554.026    -1410192.594 6  -1089213.80322
  23710476.6594   -2257836.54545  -1612832.28961
  24154908.628     -135464.896 4
 91  4 24 20 20 14.9990000  0  6G18G 2G11G19G16G 6
  20940071.3944    1836237.88047   1424585.69763
  22569175.784    -7241839.976 6  -5554430.30121
  22894553.128    -4835300.452 6  -3702046.32721
  20558917.972    -1418789.668 6  -1095912.83222
  23704698.5584   -2288189.64744  -1636484.08061
  24146318.753     -180615.241 4
 91  4 24 20 20 29.9990000  0  6G18G 2G11G19G16G 6
  20943918.9874    1856454.02748   1440338.47463
  22559297.5654   -7293749.91846  -5594879.50461
  22888936.948    -4864815.246 6  -3725044.82221
  20557290.6124   -1427348.60546  -1102582.14362
  23698941.980    -2318422.522 4  -1660042.16021
  24137723.7614    -225760.82444        -0.29171
 91  4 24 20 20 44.9990000  0  6G18G 2G11G19G16G 6
  20947784.5194    1876766.27447   1456166.13463
  22549430.261    -7345603.072 6  -5635284.45521
  22883345.5114   -4894203.87646  -3747944.99561
  20555667.730    -1435867.828 6  -1109220.51322
  23693218.222    -2348533.306 4  -1683505.15821
  24129135.003     -270900.084 4    -35173.61421
 91  4 24 20 20 59.9990000  0  6G18G 2G11G19G16G 6
  20951666.9174    1897168.41047   1472063.83763
  22539574.3554   -7397405.32046  -5675649.74261
  22877774.495    -4923472.043 6  -3770751.30621
  20554054.4094   -1444353.29246  -1115832.57062
  23687509.487    -2378527.961 5  -1706877.62221
  24120546.378     -316039.114 4    -70346.76021
 91  4 24 20 21 14.9990000  0  6G18G 2G11G19G16G 6
  20955567.6594    1917667.46347   1488037.05863
  22529725.8554   -7449149.38546  -5715969.69161
  22872230.0264   -4952612.39246  -3793458.01261
  20552446.925    -1452797.777 6  -1122412.70322
  23681823.3394   -2408399.24145  -1730153.93461
  24111958.206     -361170.718 4   -105514.14821
 91  4 24 20 21 29.9990000  0  6G18G 2G11G19G16G 6
  20959486.9014    1938261.08847   1504083.97263
  22519888.7224   -7500837.74846  -5756246.24161
  22866707.1904   -4981627.15146  -3816066.85661
  20550847.089    -1461203.755 6  -1128962.82822
  23676163.2304   -2438149.35945  -1753335.88561
  24103370.417     -406297.451 4   -140677.72121
 91  4 24 20 21 44.9990000  0  6G18G 2G11G19G16G 6
  20963423.9174    1958948.04747   1520203.60963
  22510063.097    -7552471.220 6  -5796480.01021
  22861210.6904   -5010517.25246  -3838578.56761
  20549253.597    -1469572.375 6  -1135483.84222
  23670523.870    -2467779.048 5  -1776423.96521
  24094778.1674    -451420.48544   -175838.40961
 91  4 24 20 21 59.9990000  0  6G18G 2G11G19G16G 6
  20967378.0504    1979729.70647   1536397.04263
  22500250.9804   -7604048.24746  -5836669.80361
  22855736.9484   -5039281.00646  -3860991.82161
  20547669.565    -1477902.147 6  -1141974.58822
  23664909.550    -2497287.007 5  -1799417.20721
  24086192.9334    -496538.42743   -210995.15361
 91  4 24 20 22 14.9990000  0  6G18G 2G11G19G16G 6
  20971350.4254    2000606.07747   1552664.28063
  22490445.159    -7655568.340 6  -5876815.23321
  22850288.3704   -5067917.93146  -3883306.25161
  20546091.487    -1486192.757 6  -1148434.81622
  23659314.925    -2526673.111 5  -1822315.48221
  24077610.9644    -541651.07844   -246147.75561
 91  4 24 20 22 29.9990000  0  6G18G 2G11G19G16G 6
  20975340.8154    2021573.79347   1569002.68963
  22480652.7764   -7707034.51546  -5916918.65261
  22844860.7144   -5096430.61646  -3905523.86061
  20544520.026    -1494447.108 6  -1154866.79122
  23653751.394    -2555939.911 5  -1845120.77421
  24069030.6364    -586761.51244   -281298.63861
 91  4 24 20 22 44.9990000  0  6G18G 2G11G19G16G 6
  20979348.9254    2042637.98447   1585416.27763
  22470867.5894   -7758441.56346  -5956975.99061
  22839461.5814   -5124813.77346  -3927640.54661
  20542956.831    -1502660.067 6  -1161266.51022
  23648201.1444   -2585082.68845  -1867829.46061
  24060445.472     -631864.506 3   -316443.72621
 91  4 24 20 22 59.9990000  0  6G18G 2G11G19G16G 6
  20983375.8154    2063794.84447   1601902.07163
  22461096.6834   -7809792.83546  -5996989.86561
  22834083.7694   -5153070.76246  -3949658.92061
  20541401.1124   -1510835.27046  -1167636.80762
  23642677.214    -2614104.366 5  -1890443.77221
  24051860.3704    -676963.76843   -351585.89261
 91  4 24 20 23 14.9990000  0  6G18G 2G11G19G16G 6
  20987419.1904    2085043.27447   1618459.22063
  22451334.5894   -7861089.35546  -6036961.08561
  22828730.6204   -5181202.35046  -3971579.58261
  20539852.511    -1518973.539 6  -1173978.32922
  23637178.2144   -2643005.94745  -1912964.50661
  24043279.605     -722060.340 3   -386725.97921
 91  4 24 20 23 29.9990000  0  6G18G 2G11G19G16G 6
  20991480.7534    2106389.14347   1635092.29863
  22441584.878    -7912325.227 6  -6076885.03821
  22823401.0504   -5209202.48246  -3993397.80461
  20538315.292    -1527069.260 6  -1180286.69522
  23631705.8704   -2671781.79145  -1935387.25261
  24034699.034     -767148.382 3   -421859.41121
 91  4 24 20 23 44.9990000  0  6G18G 2G11G19G16G 6
  20995561.4254    2127835.90247   1651803.99163
  22431847.3624   -7963496.42746  -6116758.60561
  22818100.3234   -5237067.14346  -4015110.46761
  20536781.730    -1535118.595 6  -1186558.91522
  23626251.894    -2700427.761 5  -1957708.80721
  24026127.2304    -812224.37743   -456983.45961
 91  4 24 20 23 59.9990000  0  6G18G 2G11G19G16G 6
  20999661.8474    2149378.05347   1668590.01163
  22422120.6754   -8014608.16046  -6156585.83361
  22812821.4954   -5264801.50046  -4036721.59261
  20535259.565    -1543126.832 6  -1192799.11122
  23620825.792    -2728949.225 5  -1979933.32821
  24017546.1284    -857293.60343   -492102.25161
 91  4 24 20 24 14.9990000  0  6G18G 2G11G19G16G 6
  21003778.9094    2171016.38747   1685450.98063
  22412408.3944   -8065659.51146  -6196366.00761
  22807567.1984   -5292404.31846  -4058230.22361
  20533743.159    -1551092.937 6  -1199006.48122
  23615420.8784   -2757344.80945  -2002059.77561
  24008971.5504    -902355.15043   -527215.05061
 91  4 24 20 24 29.9990000  0  6G18G 2G11G19G16G 6
  21007914.6594    2192747.49947   1702384.24263
  22402702.2454   -8116653.65146  -6236101.60461
  22802340.1054   -5319878.65546  -4079638.73861
  20532232.683    -1559020.213 6  -1205183.58822
  23610042.730    -2785618.117 5  -2024090.93121
  24000395.261     -947412.327 3   -562324.43521
 91  4 24 20 24 44.9990000  0  6G18G 2G11G19G16G 6
  21012068.5814    2214574.83547   1719392.48663
  22393010.7144   -8167586.64446  -6275789.55161
  22797137.1124   -5347220.67046  -4100944.14361
  20530732.2224   -1566904.94446  -1211327.54562
  23604683.9644   -2813765.23845  -2046023.76361
  23991825.8624    -992461.48444   -597427.55261
 91  4 24 20 24 59.9990000  0  6G18G 2G11G19G16G 6
  21016238.8704    2236493.18047   1736471.64963
  22383329.5584   -8218463.64846  -6315433.87461
  22791958.2694   -5374435.41346  -4122150.38361
  20529239.9804   -1574752.27546  -1217442.35962
  23599351.175    -2841791.319 5  -2067862.26921
  23983250.073    -1037507.978 4   -632528.62321
 91  4 24 20 25 14.9990000  0  6G18G 2G11G19G16G 6
  21020428.9954    2258508.77347   1753626.58763
  22373660.9804   -8269277.86046  -6355029.27061
  22786806.558    -5401515.910 6  -4143252.01221
  20527753.276    -1582555.495 6  -1223522.79922
  23594039.9484   -2869689.51945  -2089601.15061
  23974683.3864   -1082545.17244   -667622.44561
 91  4 24 20 25 29.9990000  0  6G18G 2G11G19G16G 6
  21024636.0114    2280621.80247   1770857.45263
  22364002.8624   -8320029.31546  -6394575.76061
  22781677.5734   -5428462.01046  -4164248.91261
  20526278.6904   -1590314.64846  -1229568.90362
  23588757.722    -2897460.157 5  -2111240.62521
  23966111.519    -1127573.184 4   -702709.09621
 91  4 24 20 25 44.9990000  0  6G18G 2G11G19G16G 6
  21028863.9404    2302832.35647   1788164.30363
  22354356.0894   -8370717.13946  -6434072.67261
  22776576.3474   -5455272.80846  -4185140.38361
  20524809.737    -1598029.120 6  -1235580.19622
  23583496.3004   -2925102.26145  -2132779.94061
  23957547.026    -1172591.480 4   -737788.20021
 91  4 24 20 25 59.9990000  0  6G18G 2G11G19G16G 6
  21033108.5504    2325138.78547   1805545.86963
  22344722.1674   -8421343.17946  -6473521.43761
  22771499.1594   -5481949.99446  -4205927.74961
  20523351.511    -1605700.584 6  -1241557.97122
  23578260.5424   -2952617.58345  -2154220.45361
  23948982.6674   -1217601.73144   -772861.01561
 91  4 24 20 26 14.9990000  0  6G18G 2G11G19G16G 6
  21037371.3084    2347544.33847   1823004.67363
  22335100.6284   -8471903.68046  -6512919.13461
  22766448.4804   -5508489.67446  -4226607.95961
  20521899.206    -1613325.514 6  -1247499.48722
  23573052.4564   -2980002.44945  -2175559.31461
  23940419.9724   -1262600.55144   -807924.93461
 91  4 24 20 26 29.9990000  0  6G18G 2G11G19G16G 6
  21041652.8864    2370045.36747   1840537.87463
  22325492.0424   -8522401.90946  -6552268.30961
  22761424.784    -5534895.216 6  -4247183.64721
  20520459.3474   -1620907.45146  -1253407.49862
  23567866.230    -3007259.850 5  -2196798.86621
  23931856.6984   -1307591.46044   -842982.68361
 91  4 24 20 26 44.9990000  0  6G18G 2G11G19G16G 6
  21045953.0504    2392642.93447   1858146.30163
  22315893.9954   -8572836.56846  -6591567.95061
  22756425.120    -5561164.919 6  -4267653.50121
  20519021.417    -1628445.008 6  -1259280.92822
  23562705.308    -3034388.750 5  -2217938.29521
  23923299.9954   -1352572.98945   -878033.14461
 91  4 24 20 26 59.9990000  0  6G18G 2G11G19G16G 6
  21050271.5504    2415336.90247   1875829.84363
  22306308.4014   -8623207.60846  -6630818.01361
  22751452.495    -5587298.846 6  -4288017.54821
  20517597.628    -1635938.092 6  -1265119.70822
  23557565.9014   -3061388.94245  -2238977.42861
  23914741.222    -1397545.335 5   -913076.44521
 91  4 24 20 27 14.9990000  0  6G18G 2G11G19G16G 6
  21054609.3624    2438128.03147   1893589.09663
  22296735.9094   -8673514.12546  -6670017.80261
  22746504.815    -5613295.991 6  -4308275.00921
  20516178.597    -1643385.950 6  -1270923.24222
  23552449.347    -3088260.013 5  -2259915.93521
  23906184.011    -1442507.853 4   -948112.06921
 91  4 24 20 27 29.9990000  0  6G18G 2G11G19G16G 6
  21058965.8554    2461021.16547   1911427.83363
  22287175.0424   -8723751.06546  -6709163.37361
  22741584.714    -5639151.068 6  -4328421.77621
  20514770.9724   -1650783.59546  -1276687.65262
  23547362.0654   -3114996.63845  -2280749.68261
  23897629.323    -1487455.603 4   -983136.17221
 91  4 24 20 27 44.9990000  0  6G18G 2G11G19G16G 6
  21063342.065     2484016.130 7   1929345.91723
  22277629.2764   -8773918.26046  -6748254.59961
  22736692.042    -5664863.824 6  -4348457.63821
  20513373.4404   -1658130.84146  -1282412.78963
  23542300.948    -3141598.459 5  -2301478.40121
  23889077.2224   -1532388.48144  -1018148.71261
 91  4 24 20 27 59.9990000  0  6G18G 2G11G19G16G 6
  21067737.9404    2507114.31347   1947344.43363
  22268096.2304   -8824013.97646  -6787290.12561
  22731826.565    -5690432.383 6  -4368381.14021
  20511987.5504   -1665426.19446  -1288097.48862
  23537267.495    -3168063.914 5  -2322100.83721
  23880533.9954   -1577305.07945  -1053148.54261
 91  4 24 20 28 14.9990000  0  6G18G 2G11G19G16G 6
  21072155.7224    2530331.41747   1965435.61263
  22258579.4564   -8874022.35046  -6826257.59161
  22726990.761    -5715841.024 6  -4388180.03321
  20510609.7694   -1672653.89346  -1293729.47062
  23532255.034    -3194377.515 5  -2342604.96621
  23871988.472    -1622189.692 5  -1088123.45121
 91  4 24 20 28 29.9990000  0  6G18G 2G11G19G16G 6
  21076600.4254    2553690.79247   1983637.65463
  22249085.8474   -8923919.26146  -6865138.21161
  22722190.761    -5741065.530 6  -4407835.44621
  20509251.3234   -1679789.97346  -1299290.06062
  23527283.7764   -3220515.24045  -2362972.04061
  23863461.3944   -1667018.41845  -1123054.83461
 91  4 24 20 28 44.9990000  0  6G18G 2G11G19G16G 6
  21081070.8084    2577183.19047   2001943.35263
  22239608.2694   -8973714.28546  -6903939.42561
  22717424.042    -5766115.127 6  -4427354.56521
  20507909.0894   -1686843.86246  -1304786.60662
  23522340.5504   -3246486.36845  -2383209.31561
  23854938.8474   -1711800.80444  -1157950.09661
 91  4 24 20 28 59.9990000  0  6G18G 2G11G19G16G 6
  21085565.0654    2600796.90447   2020343.57963
  22230150.7614   -9023418.86646  -6942670.17262
  22712689.128    -5791001.130 6  -4446746.21221
  20506581.558    -1693827.051 6  -1310228.06223
  23517427.823    -3272302.302 5  -2403325.63121
  23846421.737    -1756548.193 4  -1192818.08621
 91  4 24 20 29 14.9990000  0  6G18G 2G11G19G16G 6
  21090080.9254    2624519.59247   2038828.72363
  22220707.4404   -9073044.66646  -6981339.54062
  22707982.105    -5815735.381 6  -4466019.61021
  20505262.6594   -1700751.59146  -1315623.81462
  23512544.3944   -3297974.87045  -2423330.25161
  23837915.4174   -1801272.86745  -1227668.37161
 91  4 24 20 29 29.9990000  0  6G18G 2G11G19G16G 6
  21094615.6984    2648357.80447   2057403.88363
  22211278.4874   -9122584.95246  -7019942.26461
  22703304.933    -5840310.975 6  -4485169.37621
  20503958.159    -1707610.631 6  -1320968.53023
  23507686.3864   -3323497.21745  -2443217.81561
  23829404.964    -1845968.072 4  -1262495.70621
 91  4 24 20 29 44.9990000  0  6G18G 2G11G19G16G 6
  21099172.4644    2672302.76747   2076062.22463
  22201866.9564   -9172048.35046  -7058485.08362
  22698657.206    -5864736.381 6  -4504202.11321
  20502664.1054   -1714412.62947  -1326268.79863
  23502859.1514   -3348878.09445  -2462995.13661
  23820907.542    -1890642.490 5  -1297306.81921
 91  4 24 20 29 59.9990000  0  6G18G 2G11G19G16G 6
  21103750.0114    2696358.47047   2094806.86363
  22192469.5894   -9221430.48246  -7096964.56862
  22694038.636    -5889007.204 6  -4523114.40021
  20501380.7064   -1721153.40046  -1331521.35263
  23498052.706    -3374113.393 5  -2482659.03821
  23812407.8394   -1935291.94745  -1332098.50861
 91  4 24 20 30 14.9990000  0  6G18G 2G11G19G16G 6
  21108350.690     2720532.015 7   2113643.31723
  22183089.3154   -9270724.16146  -7135375.14162
  22689449.776    -5913116.033 6  -4541900.45421
  20500110.425    -1727825.846 6  -1336720.66923
  23493280.331    -3399195.835 5  -2502203.80021
  23803915.1674   -1979909.45844  -1366865.27761
 91  4 24 20 30 29.9990000  0  6G18G 2G11G19G16G 6
  21112973.151     2744821.085 7   2132569.79423
  22173726.5584   -9319931.47346  -7173718.40962
  22684893.456    -5937064.923 6  -4560561.88221
  20498854.3084   -1734432.18246  -1341868.47663
  23488537.394    -3424127.185 5  -2521630.84721
  23795433.3234   -2024497.16844  -1401608.84961
 91  4 24 20 30 44.9990000  0  6G18G 2G11G19G16G 6
  21117613.237     2769218.569 7   2151580.74623
  22164377.9564   -9369059.16846  -7211999.63762
  22680364.815    -5960860.457 6  -4579103.81321
  20497608.8474   -1740979.31147  -1346970.14463
  23483821.370    -3448914.588 5  -2540945.73921
  23786951.6754   -2069061.76744  -1436334.39361
 91  4 24 20 30 59.9990000  0  6G18G 2G11G19G16G 6
  21122277.3554    2793722.72847   2170674.82463
  22155043.9564   -9418108.54846  -7250219.84662
  22675864.597    -5984504.034 6  -4597527.33121
  20496375.2144   -1747468.59346  -1352026.73363
  23479130.5974   -3473559.48145  -2560149.57161
  23778477.9564   -2113605.01744  -1471043.30961
 91  4 24 20 31 14.9990000  0  6G18G 2G11G19G16G 6
  21126960.058     2818328.898 7   2189848.38923
  22145722.7144   -9467084.02046  -7288382.45862
  22671395.026    -6007999.917 6  -4615835.76721
  20495147.8704   -1753904.31346  -1357041.59163
  23474471.573    -3498066.266 5  -2579245.78821
  23770004.675    -2158131.553 4  -1505739.19221
 91  4 24 20 31 29.9990000  0  6G18G 2G11G19G16G 6
  21131663.433     2843039.653 7   2209103.44723
  22136418.3394   -9515982.99146  -7326485.45862
  22666952.800    -6031345.319 6  -4634026.94221
  20493935.433    -1760283.758 6  -1362012.59823
  23469830.714    -3522432.217 5  -2598232.24721
  23761532.3234   -2202638.67944  -1540419.96561
 91  4 24 20 31 44.9990000  0  6G18G 2G11G19G16G 6
  21136383.612     2867850.843 7   2228436.76923
  22127126.855    -9564809.289 6  -7364531.83922
  22662538.175    -6054544.112 6  -4652103.87221
  20492730.3784   -1766611.14447  -1366943.04463
  23465219.230    -3546661.140 5  -2617111.94621
  23753068.5264   -2247130.39044  -1575088.72161
 91  4 24 20 31 59.9990000  0  6G18G 2G11G19G16G 6
  21141124.565     2892763.653 7   2247849.27223
  22117848.9954   -9613561.46746  -7402520.46162
  22658151.050    -6077594.775 6  -4670065.38221
  20491537.1444   -1772885.22646  -1371831.94463
  23460638.3864   -3570751.71045  -2635883.83761
  23744605.683    -2291605.422 4  -1609744.50321
 91  4 24 20 32 14.9990000  0  6G18G 2G11G19G16G 6
  21145884.925     2917775.755 7   2267339.15123
  22108586.4404   -9662241.52546  -7440452.88962
  22653792.917    -6100499.009 6  -4687912.79021
  20490352.5264   -1779107.67447  -1376680.60863
  23456077.284    -3594705.882 5  -2654549.43721
  23736146.675    -2336065.915 4  -1644388.91621
 91  4 24 20 32 29.9990000  0  6G18G 2G11G19G16G 6
  21150661.6444    2942880.85447   2286901.49163
  22099334.6444   -9710855.18846  -7478333.57762
  22649462.089    -6123262.693 6  -4705650.68221
  20489176.9404   -1785284.55146  -1381493.76863
  23451546.0264   -3618529.67745  -2673113.46561
  23727685.628    -2380517.632 4  -1679026.52121
 91  4 24 20 32 44.9990000  0  6G18G 2G11G19G16G 6
  21155457.675     2968079.641 7   2306536.83723
  22090095.151    -9759401.734 6  -7516161.97222
  22645156.206    -6145885.072 6  -4723278.46521
  20488010.4804   -1791415.06947  -1386270.80563
  23447035.948    -3642222.509 5  -2691575.44121
  23719229.6364   -2424960.21444  -1713657.00561
 91  4 24 20 32 59.9990000  0  6G18G 2G11G19G16G 6
  21160271.706     2993378.426 7   2326250.10123
  22080871.698    -9807874.595 6  -7553932.95122
  22640878.456    -6168359.417 6  -4740790.89221
  20486856.5114   -1797492.80246  -1391006.70463
  23442555.019    -3665777.707 5  -2709930.14521
  23710767.128    -2469387.224 4  -1748275.35421
 91  4 24 20 33 14.9990000  0  6G18G 2G11G19G16G 6
  21165102.737     3018768.152 7   2346034.22523
  22071660.339    -9856283.008 6  -7591653.70822
  22636628.956    -6190694.691 6  -4758194.94821
  20485705.1514   -1803526.76747  -1395708.49763
  23438095.753    -3689204.491 5  -2728184.81321
  23702319.690    -2513807.796 4  -1782888.68921
 91  4 24 20 33 29.9990000  0  6G18G 2G11G19G16G 6
  21169953.401     3044257.596 7   2365896.05223
  22062462.198    -9904617.127 6  -7629316.57622
  22632407.401    -6212881.152 6  -4775483.05721
  20484567.9094   -1809507.55047  -1400368.86063
  23433663.1364   -3712493.31245  -2746331.97261
  23693870.4094   -2558212.40544  -1817489.58361
 91  4 24 20 33 44.9990000  0  6G18G 2G11G19G16G 6
  21174821.472     3069832.059 7   2385824.12723
  22053275.980    -9952891.436 6  -7666932.83722
  22628210.870    -6234933.224 6  -4792666.44121
  20483436.8624   -1815449.62647  -1404999.06063
  23429256.167    -3735658.253 5  -2764382.59421
  23685418.675    -2602615.572 4  -1852089.34821
 91  4 24 20 33 59.9990000  0  6G18G 2G11G19G16G 6
  21179704.448     3095503.412 7   2405827.69823
  22044104.144   -10001094.203 6  -7704493.35222
  22624041.472    -6256839.115 6  -4809735.92421
  20482316.808    -1821341.293 7  -1409589.98123
  23424870.5194   -3758687.80445  -2782327.72561
  23676972.003    -2647005.706 4  -1886678.94721
 91  4 24 20 34 14.9990000  0  6G18G 2G11G19G16G 6
  21184608.948     3121271.016 7   2425906.27123
  22034942.542   -10049225.660 6  -7741998.30022
  22619901.128    -6278599.125 6  -4826691.72021
  20481203.917    -1827183.092 7  -1414142.04323
  23420515.0734   -3781582.44245  -2800167.70261
  23668530.0734   -2691383.46644  -1921258.90261
 91  4 24 20 34 29.9990000  0  6G18G 2G11G19G16G 6
  21189530.503     3147135.681 7   2446060.48023
  22025798.308   -10097284.832 6  -7779446.92322
  22615788.722    -6300211.908 6  -4843532.80221
  20480102.995    -1832973.742 7  -1418654.24423
  23416188.1984   -3804341.04245  -2817901.71761
  23660084.480    -2735747.689 4  -1955828.32321
 91  4 24 20 34 44.9990000  0  6G18G 2G11G19G16G 6
  21194470.003     3173092.461 7   2466286.45923
  22016666.565   -10145276.216 6  -7816842.72522
  22611701.581    -6321681.929 6  -4860262.63421
  20479008.8394   -1838717.48447  -1423129.89963
  23411877.2064   -3826968.06245  -2835533.16861
  23651638.9254   -2780103.00044  -1990390.81061
 91  4 24 20 34 59.9990000  0  6G18G 2G11G19G16G 6
  21199427.714     3199144.424 7   2486586.61223
  22007547.605   -10193196.332 6  -7854182.99122
  22607645.073    -6343005.732 6  -4876878.54121
  20477925.2614   -1844411.14047  -1427566.52263
  23407601.745    -3849460.406 5  -2853059.70121
  23643209.175    -2824446.044 4  -2024943.71821
 91  4 24 20 35 14.9990000  0  6G18G 2G11G19G16G 6
  21204402.620     3225286.089 7   2506956.66023
  21998441.558   -10241050.488 6  -7891471.87322
  22603614.347    -6364188.537 6  -4893384.57021
  20476851.2534   -1850060.24447  -1431968.42863
  23403343.2144   -3871823.29945  -2870485.33561
  23634768.198    -2868782.252 4  -2059491.29921
 91  4 24 20 35 29.9990000  0  6G18G 2G11G19G16G 6
  21209393.917     3251518.206 7   2527397.19123
  21989347.776   -10288837.800 6  -7928708.65722
  22599609.565    -6385229.477 6  -4909780.06421
  20475784.2844   -1855663.90847  -1436334.92363
  23399108.7144   -3894056.07645  -2887809.59561
  23626331.4014   -2913111.10844  -2094033.17061
 91  4 24 20 35 44.9990000  0  6G18G 2G11G19G16G 6
  21214403.980     3277837.593 7   2547905.72023
  21980266.089   -10336561.038 6  -7965895.51722
  22595631.948    -6406131.220 6  -4926067.09321
  20474725.8084   -1861225.03947  -1440668.28163
  23394906.956    -3916161.469 5  -2905034.59521
  23617898.737    -2957435.435 4  -2128571.49221
 91  4 24 20 35 59.9990000  0  6G18G 2G11G19G16G 6
  21219430.128     3304253.163 7   2568489.20323
  21971197.792   -10384211.137 6  -8003025.38822
  22591684.472    -6426884.600 6  -4942238.51121
  20473680.6754   -1866734.52246  -1444961.39063
  23390722.7844   -3938130.56145  -2922153.39261
  23609466.394    -3001746.184 4  -2163099.24921
 91  4 24 20 36 14.9980000  0  6G18G 2G11G19G16G 6
  21224474.068     3330760.069 7   2589143.85223
  21962145.123   -10431787.742 6  -8040097.99122
  22587761.897    -6447490.932 6  -4958295.34721
  20472638.3814   -1872194.82947  -1449216.17863
  23386568.834    -3959964.605 5  -2939166.94421
  23601037.7484   -3046043.31444  -2197616.38861
 91  4 24 20 36 29.9980000  0  6G18G 2G11G19G16G 6
  21229535.397     3357356.125 7   2609867.96923
  21953103.295   -10479302.561 6  -8077122.44722
  22583867.6704   -6467958.20546  -4974243.82361
  20471609.8894   -1877611.98546  -1453437.34763
  23382439.9284   -3981671.85445  -2956081.70461
  23592607.6074   -3090338.40645  -2232131.93661
 91  4 24 20 36 44.9980000  0  6G18G 2G11G19G16G 6
  21234613.553     3384044.667 7   2630664.15323
  21944073.904   -10526746.882 6  -8114091.97022
  22580000.654    -6488279.659 6  -4990078.67921
  20470585.7094   -1882980.16947  -1457620.35363
  23378333.186    -4003245.350 5  -2972892.26321
  23584182.4594   -3134622.86344  -2266639.22361
 91  4 24 20 36 59.9980000  0  6G18G 2G11G19G16G 6
  21239709.545     3410823.913 7   2651531.01423
  21935060.131   -10574122.335 6  -8151007.82922
  22576159.889    -6508456.897 6  -5005801.15621
  20469572.2724   -1888301.04047  -1461766.48763
  23374256.0764   -4024686.98645  -2989600.02161
  23575753.2254   -3178898.65044  -2301139.73261
 91  4 24 20 37 14.9980000  0  6G18G 2G11G19G16G 6
  21244821.686     3437692.929 7   2672467.82823
  21926057.326   -10621429.641 6  -8187870.59622
  22572348.373    -6528490.586 6  -5021411.78221
  20468570.1474   -1893575.52047  -1465876.47863
  23370202.186    -4045997.573 5  -3006205.69721
  23567330.240    -3223166.576 5  -2335634.10821
 91  4 24 20 37 29.9980000  0  6G18G 2G11G19G16G 6
  21249953.014     3464652.341 7   2693475.07823
  21917067.607   -10668667.756 6  -8224679.43922
  22568563.373    -6548379.598 6  -5036909.66821
  20467574.2014   -1898802.60947  -1469949.53863
  23366165.248    -4067176.221 5  -3022708.56721
  23558911.326    -3267425.709 5  -2370121.64621
 91  4 24 20 37 44.9980000  0  6G18G 2G11G19G16G 6
  21255100.162     3491704.627 7   2714554.69723
  21908092.201   -10715834.348 6  -8261432.55322
  22564806.592    -6568121.344 6  -5052292.80221
  20466589.6004   -1903979.88247  -1473983.78663
  23362166.670    -4088220.317 5  -3039106.58321
  23550487.982    -3311673.633 4  -2404600.42421
 91  4 24 20 37 59.9980000  0  6G18G 2G11G19G16G 6
  21260265.9594    3518846.44647   2735704.08263
  21899128.8264  -10762932.14946  -8298132.06262
  22561077.436    -6587718.406 6  -5067563.19921
  20465614.1074   -1909110.12247  -1477981.38063
  23358187.8184   -4109132.36645  -3055401.69661
  23542071.4364   -3355913.30145  -2439072.79561
 91  4 24 20 38 14.9980000  0  6G18G 2G11G19G16G 6
  21265447.818     3546078.293 7   2756923.61623
  21890180.9124  -10809960.41346  -8334777.39262
  22557374.584    -6607170.060 6  -5082720.28921
  20464645.9984   -1914192.57347  -1481941.73463
  23354230.107    -4129911.971 5  -3071593.63221
  23533655.3344   -3400144.00745  -2473538.16861
 91  4 24 20 38 29.9980000  0  6G18G 2G11G19G16G 6
  21270646.4364    3573398.08447   2778211.67963
  21881244.920   -10856920.987 6  -8371369.97422
  22553701.1154   -6626478.19946  -5097765.55661
  20463690.1544   -1919229.31146  -1485866.46763
  23350302.6784   -4150561.15045  -3087683.93261
  23525236.584    -3444367.809 5  -2507998.16921
 91  4 24 20 38 44.9980000  0  6G18G 2G11G19G16G 6
  21275862.732     3600806.958 7   2799569.16023
  21872320.365   -10903812.388 6  -8407908.65122
  22550053.803    -6645641.374 6  -5112697.85421
  20462738.8184   -1924218.87247  -1489754.44263
  23346399.498    -4171078.775 5  -3103671.70221
  23516825.568    -3488583.544 5  -2542451.87721
 91  4 24 20 38 59.9980000  0  6G18G 2G11G19G16G 6
  21281095.264     3628304.027 7   2820995.36223
  21863410.686   -10950635.241 6  -8444393.91922
  22546435.772    -6664660.096 6  -5127517.59821
  20461801.3894   -1929162.02146  -1493606.24863
  23342518.8184   -4191465.43245  -3119557.43361
  23508413.1394   -3532791.87245  -2576899.81761
 91  4 24 20 39 14.9980000  0  6G18G 2G11G19G16G 6
  21286344.7094    3655891.15547   2842491.73563
  21854514.045   -10997387.340 6  -8480824.05122
  22542844.2564   -6683532.28546  -5142223.16261
  20460867.0844   -1934056.45647  -1497420.09963
  23338664.428    -4211719.298 5  -3135339.67321
  23499998.912    -3576990.647 5  -2611340.30021
 91  4 24 20 39 29.9980000  0  6G18G 2G11G19G16G 6
  21291611.131     3683566.206 7   2864056.62623
  21845630.693   -11044070.663 6  -8517200.58722
  22539281.272    -6702259.822 6  -5156816.00621
  20459945.7794   -1938904.18046  -1501197.54663
  23334833.678    -4231841.917 5  -3151019.66621
  23491591.2324   -3621182.09545  -2645775.08061
 91  4 24 20 39 44.9980000  0  6G18G 2G11G19G16G 6
  21296894.7724    3711326.95547   2885688.28963
  21836758.561   -11090686.980 6  -8553524.91822
  22535744.8654   -6720844.24246  -5171297.33861
  20459029.6154   -1943706.98647  -1504939.99363
  23331031.5454   -4251834.99545  -3166598.70761
  23483183.248    -3665367.755 4  -2680205.36121
 91  4 24 20 39 59.9980000  0  6G18G 2G11G19G16G 6
  21302194.1234    3739174.71047   2907387.74663
  21827901.998   -11137234.802 6  -8589795.87422
  22532234.6544   -6739284.11046  -5185666.02961
  20458124.5294   -1948463.42047  -1508646.30963
  23327247.217    -4271697.576 5  -3182076.06621
  23474770.3574   -3709546.68144  -2714630.38061
 91  4 24 20 40 14.9980000  0  6G18G 2G11G19G16G 6
  21307509.4044    3767109.63247   2929155.13263
  21819057.725   -11183713.881 6  -8626013.26622
  22528753.107    -6757579.003 6  -5199921.75321
  20457229.0144   -1953173.28547  -1512316.33763
  23323492.5844   -4291429.18445  -3197451.36361
  23466376.2644   -3753718.45245  -2749049.82761
 91  4 24 20 40 29.9980000  0  6G18G 2G11G19G16G 6
  21312842.4824    3795135.08147   2950993.05563
  21810225.732   -11230120.396 6  -8662174.11322
  22525299.920    -6775725.014 6  -5214061.46021
  20456346.0064   -1957832.84646  -1515947.17063
  23319768.2014   -4311026.02045  -3212721.65661
  23457964.553    -3797879.378 4  -2783460.83421
 91  4 24 20 40 44.9980000  0  6G18G 2G11G19G16G 6
  21318191.8504    3823246.44247   2972897.92663
  21801406.9044  -11276458.53846  -8698281.68562
  22521874.1004   -6793726.49146  -5228088.55161
  20455465.2724   -1962446.28647  -1519542.06463
  23316058.3974   -4330492.63145  -3227890.46461
  23449562.904    -3842033.879 5  -2817866.82621
 91  4 24 20 40 59.9980000  0  6G18G 2G11G19G16G 6
  21323558.8974    3851443.59047   2994869.63863
  21792603.100   -11322728.562 6  -8734336.17522
  22518478.1314   -6811583.46946  -5242003.04361
  20454595.2174   -1967013.62346  -1523101.03463
  23312382.850    -4349829.264 5  -3242957.99121
  23441167.9434   -3886182.14844  -2852267.96761
 91  4 24 20 41 14.9980000  0  6G18G 2G11G19G16G 6
  21328939.6544    3879725.63747   3016907.50463
  21783811.9434  -11368930.84347  -8770337.88662
  22515105.9824   -6829296.34246  -5255805.24961
  20453735.2724   -1971535.43747  -1526624.53063
  23308727.3814   -4369036.17245  -3257924.44561
  23432761.193    -3930324.811 4  -2886664.74121
 91  4 24 20 41 29.9980000  0  6G18G 2G11G19G16G 6
  21334338.9124    3908096.93247   3039014.91563
  21775032.912   -11415060.661 7  -8806283.12222
  22511763.1314   -6846860.33746  -5269491.44661
  20452883.7254   -1976007.27347  -1530109.08363
  23305100.592    -4388108.564 5  -3272786.07521
  23424361.7564   -3974457.14344  -2921053.47161
 91  4 24 20 41 44.9980000  0  6G18G 2G11G19G16G 6
  21339754.7324    3936555.97047   3061190.69163
  21766269.350   -11461119.307 7  -8842172.90622
  22508449.022    -6864276.864 6  -5283062.72121
  20452041.6864   -1980430.49047  -1533555.75463
  23301500.201    -4407048.430 5  -3287544.41621
  23415969.193    -4018580.903 4  -2955435.51521
 91  4 24 20 41 59.9980000  0  6G18G 2G11G19G16G 6
  21345186.2404    3965099.59547   3083432.38663
  21757517.318   -11507109.743 7  -8878009.53422
  22505162.7644   -6881548.63246  -5296521.21761
  20451209.2014   -1984807.76147  -1536966.62263
  23297916.4514   -4425858.63645  -3302201.73461
  23407569.107    -4062698.686 4  -2989812.91421
 91  4 24 20 42 14.9980000  0  6G18G 2G11G19G16G 6
  21350633.6234    3993726.43247   3105738.92563
  21748777.8654  -11553032.90547  -8913793.74562
  22501903.0144   -6898676.54346  -5309867.61161
  20450385.0534   -1989140.00047  -1540342.39863
  23294361.303    -4444539.710 5  -3316758.43021
  23399174.631    -4106811.638 4  -3024186.51821
 91  4 24 20 42 29.9980000  0  6G18G 2G11G19G16G 6
  21356097.8654    4022439.52847   3128112.66863
  21740053.061   -11598885.792 7  -8949523.19822
  22498671.967    -6915657.539 6  -5323099.52821
  20449568.6004   -1993424.30746  -1543680.82163
  23290830.772    -4463089.096 5  -3331212.52321
  23390784.2094   -4150916.92244  -3058554.17761
 91  4 24 20 42 44.9980000  0  6G18G 2G11G19G16G 6
  21361577.0764    4051237.00947   3150552.16963
  21731340.5684  -11644669.58747  -8985198.80662
  22495469.4434   -6932493.03746  -5336218.06061
  20448762.3974   -1997662.10747  -1546983.00863
  23287326.6394   -4481508.18445  -3345565.06261
  23382390.7724   -4195016.10443  -3092917.07161
 91  4 24 20 42 59.9980000  0  6G18G 2G11G19G16G 6
  21367073.6934    4080118.57647   3173057.19763
  21722639.5534  -11690384.54947  -9020820.78662
  22492293.0844   -6949183.15346  -5349223.31461
  20447965.3974   -2001853.50247  -1550249.03763
  23283848.1154   -4499797.08745  -3359816.16361
  23374003.9984   -4239109.23544  -3127275.24261
 91  4 24 20 43 14.9980000  0  6G18G 2G11G19G16G 6
  21372586.4754    4109087.24647   3195630.09263
  21713955.303   -11736027.402 7  -9056386.57322
  22489145.3974   -6965724.44546  -5362112.59661
  20447178.2324   -2005995.22447  -1553476.35963
  23280392.4364   -4517952.53145  -3373963.27361
  23365612.381    -4283193.056 4  -3161626.17921
 91  4 24 20 43 29.9980000  0  6G18G 2G11G19G16G 6
  21378115.1234    4138136.81447   3218266.02062
  21705281.1784  -11781603.85647  -9091900.62662
  22486023.522    -6982122.680 6  -5374890.41121
  20446399.5614   -2010093.07547  -1556669.50263
  23276960.584    -4535980.621 5  -3388011.15921
  23357226.943    -4327273.739 4  -3195974.66121
 91  4 24 20 43 44.9980000  0  6G18G 2G11G19G16G 6
  21383660.1624    4167274.09147   3240970.29662
  21696622.8184  -11827106.63547  -9127357.26962
  22482934.0374   -6998370.77446  -5387551.23461
  20445626.881    -2014139.935 7  -1559822.90923
  23273551.0684   -4553874.28345  -3401954.28061
  23348838.2174   -4371343.96944  -3230315.00061
 91  4 24 20 43 59.9980000  0  6G18G 2G11G19G16G 6
  21389218.748     4196493.847 7   3263738.83823
  21687976.3574  -11872541.07447  -9162760.66162
  22479869.0144   -7014473.74646  -5400098.98461
  20444867.209    -2018141.069 7  -1562940.69023
  23270169.0844   -4571638.41145  -3415796.49161
  23340452.279    -4415409.175 4  -3264651.39521
 91  4 24 20 44 14.9980000  0  6G18G 2G11G19G16G 6
  21394796.5924    4225801.62347   3286575.97162
  21679345.342   -11917901.553 7  -9198106.41322
  22476832.7564   -7030425.90046  -5412529.19861
  20444114.100    -2022090.741 7  -1566018.36923
  23266813.5374   -4589267.58945  -3429533.51561
  23332067.9904   -4459463.65944  -3298979.46461
 91  4 24 20 44 29.9980000  0  6G18G 2G11G19G16G 6
  21400391.1544    4255199.90747   3309483.62763
  21670728.1394  -11963185.08647  -9233392.22062
  22473826.1544   -7046224.29446  -5424839.60461
  20443374.725    -2025986.011 7  -1569053.65323
  23263491.7794   -4606759.04145  -3443163.20861
  23323686.326    -4503504.681 4  -3333297.03921
 91  4 24 20 44 44.9980000  0  6G18G 2G11G19G16G 6
  21406002.2014    4284681.69747   3332456.34962
  21662125.5374  -12008398.23747  -9268623.17562
  22470847.9434   -7061875.57546  -5437035.37661
  20442641.084    -2029833.608 7  -1572051.79523
  23260185.7484   -4624119.58545  -3456690.90161
  23315310.162    -4547538.903 4  -3367609.31121
 91  4 24 20 44 59.9980000  0  6G18G 2G11G19G16G 6
  21411627.3504    4314244.60247   3355492.28163
  21653533.1784  -12053543.22547  -9303801.02262
  22467895.248    -7077381.827 6  -5449118.14921
  20441917.240    -2033635.538 7  -1575014.34823
  23256911.772    -4641351.231 5  -3470118.17421
  23306931.787    -4591568.573 4  -3401918.03821
 91  4 24 20 45 14.9980000  0  6G18G 2G11G19G16G 6
  21417269.639     4343893.137 7   3378594.92922
  21644958.1934  -12098615.41647  -9338922.14762
  22464973.9434   -7092738.38546  -5461084.26761
  20441203.428    -2037387.269 7  -1577937.79023
  23253653.8814   -4658449.56745  -3483441.58461
  23298551.1394   -4635589.14244  -3436219.68861
 91  4 24 20 45 29.9980000  0  6G18G 2G11G19G16G 6
  21422927.326     4373624.273 7   3401761.94922
  21636392.6784  -12143617.37147  -9373988.53362
  22462080.1784   -7107947.93746  -5472935.83561
  20440499.717    -2041091.475 6  -1580824.19523
  23250427.084    -4675417.316 5  -3496663.19721
  23290180.123    -4679603.507 4  -3470516.48621
 91  4 24 20 45 44.9980000  0  6G18G 2G11G19G16G 6
  21428598.342     4403434.494 7   3424990.59022
  21627842.936   -12188552.161 7  -9409002.58822
  22459214.3654   -7123013.42446  -5484675.14761
  20439802.365    -2044751.343 7  -1583676.05623
  23247222.4204   -4692258.08345  -3509785.86761
  23281804.0374   -4723614.66345  -3504810.76861
 91  4 24 20 45 59.9980000  0  6G18G 2G11G19G16G 6
  21434288.6624    4433328.13047   3448284.23062
  21619304.9674  -12233415.18647  -9443960.72162
  22456375.0144   -7137930.35646  -5496298.69461
  20439116.022    -2048362.216 7  -1586489.73823
  23244042.2724   -4708966.76745  -3522805.63661
  23273431.2484   -4767618.26944  -3539099.18461
 91  4 24 20 46 14.9980000  0  6G18G 2G11G19G16G 6
  21439992.131     4463302.886 7   3471641.07222
  21610781.1784  -12278208.52847  -9478864.56262
  22453563.975    -7152700.730 6  -5507808.05021
  20438437.037    -2051926.313 7  -1589266.96823
  23240884.8894   -4725545.48645  -3535724.11061
  23265055.6934   -4811616.39445  -3573383.34761
 91  4 24 20 46 29.9980000  0  6G18G 2G11G19G16G 6
  21445711.920     4493357.469 7   3495060.12922
  21602269.5294  -12322933.53947  -9513715.15162
  22450780.5144   -7167325.75146  -5519204.14261
  20437768.186    -2055444.836 7  -1592008.68223
  23237757.5144   -4741995.66245  -3548542.45261
  23256683.912    -4855610.440 5  -3607664.30921
 91  4 24 20 46 44.9980000  0  6G18G 2G11G19G16G 6
  21451446.193     4523494.507 7   3518543.42822
  21593772.1864  -12367586.86047  -9548509.87862
  22448026.240    -7181802.185 6  -5530484.45621
  20437107.061    -2058914.406 7  -1594712.25823
  23234656.2094   -4758314.42345  -3561258.37561
  23248314.373    -4899597.165 5  -3641939.57621
 91  4 24 20 46 59.9980000  0  6G18G 2G11G19G16G 6
  21457197.217     4553713.024 7   3542090.22022
  21585289.1394  -12412169.40647  -9583249.45762
  22445300.7874   -7196130.94546  -5541649.68861
  20436456.623    -2062335.856 7  -1597378.33723
  23231569.6074   -4774502.74045  -3573872.65261
  23239948.436    -4943577.485 5  -3676209.84621
 91  4 24 20 47 14.9980000  0  6G18G 2G11G19G16G 6
  21462962.350     4584009.943 7   3565698.10122
  21576817.7254  -12456683.94047  -9617936.03762
  22442601.1154   -7210314.83246  -5552702.03061
  20435813.881    -2065712.291 7  -1600009.33823
  23228517.920    -4790563.466 5  -3586387.52521
  23231572.8504   -4987554.43345  -3710477.50561
 91  4 24 20 47 29.9980000  0  6G18G 2G11G19G16G 6
  21468743.350     4614386.507 7   3589368.04122
  21568359.8894  -12501128.90947  -9652568.41362
  22439928.0144   -7224352.15646  -5563640.17361
  20435180.709    -2069042.107 7  -1602604.01323
  23225490.6624   -4806495.20645  -3598801.86361
  23223211.881    -5031526.497 5  -3744741.34121
 91  4 24 20 47 44.9980000  0  6G18G 2G11G19G16G 6
  21474538.311     4644846.529 7   3613103.01822
  21559916.3114  -12545500.10147  -9687143.30162
  22437287.1154   -7238238.57146  -5574460.73161
  20434555.795    -2072320.847 7  -1605158.88823
  23222479.115    -4822293.572 5  -3611112.29821
  23214845.373    -5075489.385 5  -3778998.03821
 91  4 24 20 47 59.9980000  0  6G18G 2G11G19G16G 6
  21480351.764     4675386.599 7   3636900.36622
  21551486.6544  -12589801.15547  -9721663.53962
  22434672.9904   -7251977.63046  -5585166.46061
  20433942.764    -2075551.881 7  -1607676.59223
  23219495.4124   -4837961.87045  -3623321.38661
  23206478.982    -5119446.745 5  -3813250.41721
 91  4 24 20 48 14.9980000  0  6G18G 2G11G19G16G 6
  21486177.615     4706002.634 7   3660756.90222
  21543069.0614  -12634035.67647  -9756131.93662
  22432085.240    -7265573.063 6  -5595760.27821
  20433333.982    -2078739.146 7  -1610160.18923
  23216538.4904   -4853504.42345  -3635432.48661
  23198116.4594   -5163402.44545  -3847501.53161
 91  4 24 20 48 29.9980000  0  6G18G 2G11G19G16G 6
  21492017.850     4736699.382 7   3684676.33422
  21534664.1394  -12678198.41047  -9790544.38862
  22429526.4904   -7279019.71746  -5606238.16261
  20432741.600    -2081877.600 7  -1612605.75323
  23213604.053    -4868916.320 5  -3647441.77121
  23189748.0144   -5207351.39145  -3881747.36261
 91  4 24 20 48 44.9980000  0  6G18G 2G11G19G16G 6
  21497877.022     4767481.711 7   3708662.45222
  21526274.9824  -12722284.25647  -9824896.93062
  22426997.5064   -7292312.42346  -5616596.09261
  20432150.412    -2084961.870 7  -1615009.09023
  23210701.951    -4884192.330 5  -3659345.17321
  23181385.9904   -5251288.39345  -3915983.90261
 91  4 24 20 48 59.9980000  0  6G18G 2G11G19G16G 6
  21503750.639     4798343.656 7   3732710.60522
  21517899.3894  -12766298.88647
  22424495.397    -7305456.951 6  -5626838.56121
  20431576.490    -2087997.732 7  -1617374.71323
  23207816.131    -4899338.060 5  -3671147.06921
  23173028.3034   -5295219.39045
 91  4 24 20 49 14.9980000  0  6G18G 2G11G19G16G 6
  21509637.482     4829282.542 7   3756818.71522
  21509535.6314  -12810244.65146
  22422020.818    -7318455.825 6  -5636967.52821
  20431005.014    -2090987.841 7  -1619704.68523
  23204953.115    -4914356.140 5  -3682849.50821
  23164671.4824   -5339147.02745
 91  4 24 20 49 29.9980000  0  6G18G 2G11G19G16G 6
  21515538.967     4860301.020 7   3780988.84422
  21501186.9364  -12854118.56647
  22419575.365    -7331305.729 6  -5646980.42221
  20430444.717    -2093928.997 7  -1621996.50723
  23202127.9904   -4929243.56745  -3694450.13061
  23156311.6704   -5383068.09845
 91  4 24 20 49 44.9980000  0  6G18G 2G11G19G16G 6
  21521457.545     4891398.320 7   3805220.39522
  21492852.7874  -12897921.28747  -9961756.70062
  22417159.7724   -7344007.44946  -5656877.84161
  20429894.389    -2096821.982 7  -1624250.79323
  23199317.2564   -4944001.29945  -3705949.69861
  23147956.2564   -5426983.40745  -4052888.74661
 91  4 24 20 49 59.9980000  0  6G18G 2G11G19G16G 6
  21527388.1394    4922572.99047   3829512.22562
  21484530.9044  -12941653.90947  -9995834.00262
  22414770.772    -7356561.969 6  -5666660.56121
  20429352.186    -2099667.728 7  -1626468.27223
  23196534.7484   -4958630.37345  -3717349.00361
  23139596.951    -5470894.013 5  -4087104.72221
 91  4 24 20 50 14.9980000  0  6G18G 2G11G19G16G 6
  21533337.147     4953826.905 7   3853865.81122
  21476222.9434  -12985314.29147 -10029855.01262
  22412409.092    -7368967.301 6  -5676327.03521
  20428819.920    -2102464.211 7  -1628647.36523
  23193775.9044   -4973129.01545  -3728646.67361
  23131244.764    -5514798.088 5  -4121315.60521
 91  4 24 20 50 29.9980000  0  6G18G 2G11G19G16G 6
  21539300.889     4985161.522 7   3878282.28222
  21467927.5224  -13028900.98047 -10063818.60462
  22410077.373    -7381221.855 6  -5685876.02121
  20428298.459    -2105209.704 7  -1630786.72123
  23191041.1624   -4987495.67445  -3739841.49661
  23122892.623    -5558694.006 5  -4155520.13621
 91  4 24 20 50 44.9980000  0  6G18G 2G11G19G16G 6
  21545278.904     5016574.280 7   3902759.64922
  21459647.3114  -13072415.99347 -10097726.34462
  22407773.701    -7393327.685 6  -5695309.11421
  20427784.006    -2107906.320 7  -1632887.99223
  23188332.2794   -5001732.50445  -3750935.16361
  23114538.436    -5602583.915 5  -4189719.99121
 91  4 24 20 50 59.9980000  0  6G18G 2G11G19G16G 6
  21551270.9204    5048065.16547   3927297.87662
  21451379.9904  -13115858.93147 -10131577.92162
  22405498.701    -7405284.368 6  -5704625.99121
  20427284.4204   -2110553.75246  -1634950.93763
  23185643.0144   -5015839.02945  -3761927.31161
  23106188.0294   -5646467.63745  -4223915.00661
 91  4 24 20 51 14.9980000  0  6G18G 2G11G19G16G 6
  21557277.2794    5079631.99147   3951895.28962
  21443127.5144  -13159231.81347 -10165374.90862
  22403252.162    -7417093.953 6  -5713828.25221
  20426785.842    -2113153.972 7  -1636977.10023
  23182992.5844   -5029817.50745  -3772819.66661
  23097841.8574   -5690347.05845  -4258106.69761
 91  4 24 20 51 29.9980000  0  6G18G 2G11G19G16G 6
  21563300.1474    5111279.97247   3976555.93262
  21434887.2954  -13202529.27447 -10199113.12762
  22401032.920    -7428751.122 6  -5722911.74421
  20426305.115    -2115701.675 6  -1638962.33822
  23180359.9514   -5043662.72745  -3783608.18861
  23089494.654    -5734217.040 5  -4292291.00821
 91  4 24 20 51 44.9980000  0  6G18G 2G11G19G16G 6
  21569338.311     5143010.618 7   4001280.99122
  21426661.6154  -13245749.45647 -10232791.13262
  22398843.217    -7440254.031 6  -5731875.03221
  20425827.537    -2118194.956 7  -1640905.17123
  23177742.115    -5057373.103 5  -3794291.64121
  23081143.0614   -5778075.73045  -4326466.54261
 91  4 24 20 51 59.9980000  0  6G18G 2G11G19G16G 6
  21575393.0294    5174818.92247   4026066.56162
  21418449.1704  -13288897.18847 -10266412.67562
  22396683.490    -7451607.496 6  -5740721.86921
  20425363.873    -2120638.589 6  -1642809.31123
  23175162.795    -5070953.442 5  -3804873.75721
  23072801.350    -5821928.149 5  -4360637.17721
 91  4 24 20 52 14.9980000  0  6G18G 2G11G19G16G 6
  21581459.7874    5206708.96747   4050915.82662
  21410256.2874  -13331967.61747 -10299973.99062
  22394552.3974   -7462806.71046  -5749448.52661
  20424906.725    -2123027.847 7  -1644671.08423
  23172605.4364   -5084399.07445  -3815350.91661
  23064457.0844   -5865769.45745  -4394799.16361
 91  4 24 20 52 29.9980000  0  6G18G 2G11G19G16G 6
  21587544.2014    5238679.28547   4075827.63562
  21402074.9824  -13374962.30047 -10333476.27962
  22392450.772    -7473853.153 6  -5758056.13721
  20424463.209    -2125364.122 7  -1646491.57123
  23170071.357    -5097711.156 5  -3825724.01721
  23056116.553    -5909601.103 5  -4428953.61721
 91  4 24 20 52 44.9980000  0  6G18G 2G11G19G16G 6
  21593642.6234    5270728.72547   4100801.10762
  21393905.5534  -13417882.07347 -10366920.19562
  22390376.7564   -7484747.67446  -5766545.36561
  20424028.061    -2127648.439 7  -1648271.57323
  23167559.0614   -5110890.92345  -3835994.00261
  23047774.5144   -5953424.22845  -4463101.44361
 91  4 24 20 52 59.9980000  0  6G18G 2G11G19G16G 6
  21599757.8734    5302860.21447   4125838.50962
  21385754.1624  -13460723.66447 -10400303.19462
  22388333.8654   -7495487.26546  -5774913.86861
  20423606.717    -2129877.657 6  -1650008.63723
  23165077.131    -5123935.608 5  -3846158.73721
  23039441.412    -5997235.752 5  -4497240.21621
 91  4 24 20 53 14.9980000  0  6G18G 2G11G19G16G 6
  21605885.4434    5335068.66047   4150935.88062
  21377614.4204  -13503492.16647 -10433629.24362
  22386317.8114   -7506076.63046  -5783165.31261
  20423189.740    -2132056.549 7  -1651706.48923
  23162622.4754   -5136850.05545  -3856221.99561
  23031104.193    -6041040.461 5  -4531373.67921
 91  4 24 20 53 29.9980000  0  6G18G 2G11G19G16G 6
  21612031.1784    5367352.47047   4176091.97362
  21369490.2794  -13546188.49547 -10466899.04662
  22384331.7404   -7516517.00046  -5791300.65961
  20422784.350    -2134186.275 6  -1653366.02923
  23160185.826    -5149635.833 5  -3866184.96721
  23022768.8574   -6084839.70745  -4565502.89461
 91  4 24 20 53 44.9980000  0  6G18G 2G11G19G16G 6
  21618187.1624    5399711.57747   4201306.73862
  21361379.3654  -13588812.68947 -10500112.63862
  22382373.9284   -7526808.44446  -5799319.95461
  20422387.951    -2136266.701 7  -1654987.14723
  23157775.5844   -5162292.74145  -3876047.55461
  23014430.412    -6128633.509 5  -4599627.86221
 91  4 24 20 53 59.9980000  0  6G18G 2G11G19G16G 6
  21624359.3814    5432141.65447   4226576.80162
  21353278.373   -13631368.760 7 -10533273.15622
  22380442.1624   -7536954.78146  -5807226.18761
  20422001.787    -2138301.800 6  -1656572.95123
  23155394.2954   -5174824.87345  -3885812.90761
  23006103.3654   -6172425.64945  -4633751.53161
 91  4 24 20 54 14.9980000  0  6G18G 2G11G19G16G 6
  21630544.9904    5464649.59246   4251907.53662
  21345196.7724  -13673849.62347 -10566375.06662
  22378541.623    -7546948.895 6  -5815013.79721
  20421624.623    -2140284.402 7  -1658117.84823
  23153030.7954   -5187225.17145  -3895475.51461
  22997770.1234   -6216209.32445  -4667868.61661
 91  4 24 20 54 29.9980000  0  6G18G 2G11G19G16G 6
  21636744.600     5497230.110 7   4277294.82722
  21337127.5844  -13716259.95047 -10599422.01462
  22376666.6394   -7556795.71146  -5822686.63461
  20421255.9124   -2142219.27546  -1659625.55563
  23150699.740    -5199498.430 5  -3905039.14721
  22989441.5454   -6259989.22445  -4701982.76061
 91  4 24 20 54 44.9980000  0  6G18G 2G11G19G16G 6
  21642960.600     5529891.692 7   4302745.28022
  21329071.3344  -13758591.41847 -10632407.51162
  22374823.3344   -7566486.80246  -5830238.12061
  20420897.6544   -2144097.96547  -1661089.47663
  23148385.3344   -5211636.46445  -3914497.39861
  22981111.389    -6303757.077 5  -4736087.50221
 91  4 24 20 54 59.9980000  0  6G18G 2G11G19G16G 6
  21649189.7324    5562631.58846   4328256.75862
  21321031.4364  -13800846.31947 -10665333.34962
  22373007.3574   -7576024.57646  -5837670.14761
  20420552.5294   -2145922.92346  -1662511.53463
  23146099.7874   -5223642.17845  -3923852.54461
  22972788.326    -6347515.301 5  -4770184.73921
 91  4 24 20 55 14.9980000  0  6G18G 2G11G19G16G 6
  21655434.4514    5595444.53546   4353825.16062
  21313004.4364  -13843029.33347 -10698203.17162
  22371220.2644   -7585413.82746  -5844986.44161
  20420212.334    -2147698.977 7  -1663895.48223
  23143839.9044   -5235520.14845  -3933108.13261
  22964458.4284   -6391268.88045  -4804278.36961
 91  4 24 20 55 29.9980000  0  6G18G 2G11G19G16G 6
  21661693.3424    5628331.93446   4379451.58062
  21304989.779   -13885138.895 7 -10731015.76022
  22369462.8734   -7594652.80646  -5852185.63061
  20419886.5924   -2149424.23346  -1665239.84463
  23141608.029    -5247268.790 5  -3942262.99421
  22956135.6624   -6435015.92745  -4838366.91461
 91  4 24 20 55 44.9980000  0  6G18G 2G11G19G16G 6
  21667965.811     5661296.892 6   4405138.41622
  21296991.9904  -13927171.64247 -10763768.49262
  22367732.2174   -7603738.20146  -5859265.15361
  20419566.217    -2151095.370 6  -1666542.04223
  23139398.678    -5258884.868 5  -3951314.52421
  22947811.1074   -6478753.27145  -4872447.87761
 91  4 24 20 55 59.9980000  0  6G18G 2G11G19G16G 6
  21674254.920     5694338.859 6   4430885.27122
  21289007.0374  -13969127.86947 -10796461.59462
  22366034.584    -7612670.232 6  -5866225.16721
  20419260.0924   -2152712.70646  -1667802.31463
  23137206.5534   -5270368.78945  -3960263.05961
  22939489.389    -6522481.310 5  -4906521.60221
 91  4 24 20 56 14.9980000  0  6G18G 2G11G19G16G 6
  21680556.795     5727458.475 6   4456692.62822
  21281039.4594  -14011006.79847 -10829094.46462
  22364363.2954   -7621448.26946  -5873065.18561
  20418960.943    -2154275.510 6  -1669020.09323
  23135049.0684   -5281720.06145  -3969108.24661
  22931166.9984   -6566199.10445  -4940587.34861
 91  4 24 20 56 29.9980000  0  6G18G 2G11G19G16G 6
  21686872.404     5760658.755 6   4482562.84322
  21273086.5294  -14052805.05047 -10861664.47462
  22362723.2324   -7630068.96246  -5879782.60561
  20418676.5064   -2155780.29546  -1670192.66463
  23132919.0144   -5292935.23945  -3977847.41161
  22922852.9434   -6609903.49545  -4974642.64661
 91  4 24 20 56 44.9980000  0  6G18G 2G11G19G16G 6
  21693205.912     5793931.392 6   4508489.43922
  21265143.350   -14094530.590 7 -10894177.82922
  22361111.3424   -7638540.46646  -5886383.77361
  20418398.381    -2157235.170 6  -1671326.34323
  23130802.1154   -5304022.78445  -3986487.08161
  22914539.8734   -6653602.75545  -5008693.93961
 91  4 24 20 56 59.9980000  0  6G18G 2G11G19G16G 6
  21699551.709     5827281.286 6   4534476.24022
  21257219.4904  -14136178.44547 -10926630.64862
  22359526.9204   -7646857.63346  -5892864.67961
  20418133.6624   -2158634.94346  -1672417.08763
  23128719.0294   -5314977.49045  -3995023.28061
  22906222.639    -6697291.601 5  -5042737.12621
 91  4 24 20 57 14.9980000  0  6G18G 2G11G19G16G 6
  21705913.006     5860703.341 6   4560519.26722
  21249306.498   -14177753.221 7 -10959026.52422
  22357974.5614   -7655025.16546  -5899228.97761
  20417872.850    -2159984.396 6  -1673468.62223
  23126665.451    -5325803.978 5  -4003459.53921
  22897911.4044   -6740974.83045  -5076775.91861
 91  4 24 20 57 29.9980000  0  6G18G 2G11G19G16G 6
  21712288.943     5894204.057 6   4586623.58322
  21241411.3114  -14219248.16947 -10991360.18862
  22356448.7484   -7663036.41546  -5905471.50561
  20417630.1784   -2161276.68846  -1674475.60963
  23124637.4984   -5336496.12645  -4011791.12261
  22889600.9754   -6784645.80945  -5110805.18361
 91  4 24 20 57 44.9980000  0  6G18G 2G11G19G16G 6
  21718677.436     5927779.347 6   4612786.00722
  21233529.1624  -14260666.99847 -11023634.55063
  22354951.8504   -7670895.18546  -5911595.22161
  20417393.131    -2162515.636 6  -1675441.03723
  23122619.6234   -5347057.72645  -4020021.01261
  22881287.873    -6828308.338 5  -5144827.85221
 91  4 24 20 57 59.9980000  0  6G18G 2G11G19G16G 6
  21725080.850     5961428.679 6   4639006.13122
  21225662.701   -14302010.213 7 -11055849.98622
  22353489.1004   -7678601.89946  -5917600.45061
  20417169.654    -2163701.477 6  -1676365.08623
  23120624.967    -5357489.174 5  -4028149.46021
  22872984.6704   -6871962.77645  -5178844.22361
 91  4 24 20 58 14.9980000  0  6G18G 2G11G19G16G 6
  21731498.912     5995153.123 7   4665284.77822
  21217810.1234  -14343276.40447 -11088005.40362
  22352050.3504   -7686155.18546  -5923486.12461
  20416950.943    -2164832.771 6  -1677246.62623
  23118680.2644   -5367789.09945  -4036175.40461
  22864676.490    -6915607.802 5  -5212853.26021
 91  4 24 20 58 29.9980000  0  6G18G 2G11G19G16G 6
  21737930.514     6028950.515 6   4691620.26622
  21209971.123   -14384467.356 7 -11120102.20022
  22350643.3654   -7693556.85046  -5929253.64761
  20416746.9674   -2165911.27546  -1678087.03163
  23116742.2404   -5377959.63045  -4044100.55561
  22856377.600    -6959245.363 5  -5246856.47821
 91  4 24 20 58 44.9980000  0  6G18G 2G11G19G16G 6
  21744376.248     6062825.174 6   4718015.96322
  21202147.725   -14425578.529 7 -11152136.82222
  22349262.9514   -7700802.39646  -5934899.53161
  20416551.537    -2166932.397 6  -1678882.72523
  23114829.3344   -5387996.22645  -4051921.32561
  22848072.3344   -7002870.79145  -5280850.24361
 91  4 24 20 58 59.9980000  0  6G18G 2G11G19G16G 6
  21750836.490     6096776.341 6   4744471.28122
  21194339.357   -14466610.242 7 -11184109.53022
  22347914.8034   -7707892.34646  -5940424.16061
  20416369.334    -2167896.669 6  -1679634.12823
  23112940.428    -5397899.662 5  -4059638.32821
  22839772.732    -7046484.735 5  -5314835.05621
 91  4 24 20 59 14.9980000  0  6G18G 2G11G19G16G 6
  21757310.6934    6130803.24946   4770985.60862
  21186546.389   -14507563.230 7 -11216020.89622
  22346595.3894   -7714827.27846  -5945828.01361
  20416195.959    -2168804.697 6  -1680341.69723
  23111085.4984   -5407670.39245  -4067251.94261
  22831480.0924   -7090087.73845  -5348811.34361
 91  4 24 20 59 29.9980000  0  6G18G 2G11G19G16G 6
  21763800.529     6164907.543 6   4797560.24522
  21178770.076   -14548435.192 7 -11247869.12923
  22345305.5614   -7721605.00146  -5951109.35461
  20416034.326    -2169654.340 6  -1681003.77223
  23109247.7794   -5417306.65045  -4074760.76561
  22823181.748    -7133677.742 5  -5382777.51021
 91  4 24 20 59 44.9980000  0  6G18G 2G11G19G16G 6
  21770306.647     6199086.715 7   4824193.22322
  21171004.342   -14589228.784 7 -11279656.28723
  22344043.6784   -7728228.37446  -5956270.42561
  20415884.225    -2170448.145 6  -1681622.33723
  23107440.1314   -5426810.99445  -4082166.81761
  22814890.4204   -7177257.46645  -5416735.67661
 91  4 24 20 59 59.9980000  0  6G18G 2G11G19G16G 6
  21776824.2564    6233339.14846   4850883.28261
  21163257.131   -14629945.056 7 -11311383.19623
  22342812.8344   -7734698.50146  -5961312.08961
  20415743.326    -2171187.167 6  -1682198.21923
  23105658.4284   -5436184.72845  -4089471.06961
  22806593.8574   -7220827.87345  -5450686.56461
 91  4 24 21  0 14.9980000  0  6G18G 2G11G19G16G 6
  21783357.6234    6267664.00347   4877629.77562
  21155525.068   -14670584.687 7 -11343050.39423
  22341611.4364   -7741015.85246  -5966234.70861
  20415612.959    -2171871.920 6  -1682731.81123
  23103906.5224   -5445428.46045  -4096674.03061
  22798307.178    -7264389.649 5  -5484630.73321
 91  4 24 21  0 29.9980000  0  6G18G 2G11G19G16G 6
  21789902.897     6302061.223 7   4904432.66422
  21147806.014   -14711147.399 7 -11374657.65023
  22340435.6154   -7747180.27546  -5971038.15661
  20415492.193    -2172502.212 6  -1683222.97023
  23102159.428    -5454542.259 5  -4103775.73821
  22790017.264    -7307942.599 5  -5518568.01421
 91  4 24 21  0 44.9980000  0  6G18G 2G11G19G16G 6
  21796462.4824    6336533.27846   4931293.85861
  21140103.022   -14751630.483 7 -11406202.86123
  22339294.5844   -7753189.19446  -5975720.43861
  20415383.100    -2173075.223 6  -1683669.49423
  23100456.912    -5463523.447 4  -4110774.14021
  22781732.2254   -7351483.96945  -5552496.28161
 91  4 24 21  0 59.9980000  0  6G18G 2G11G19G16G 6
  21803036.4754    6371076.29447   4958210.34662
  21132414.443   -14792037.740 7 -11437688.98423
  22338178.5534   -7759046.28046  -5980284.40661
  20415289.092    -2173594.783 6  -1684074.36523
  23098768.482    -5472376.157 5  -4117672.40521
  22773447.1394   -7395017.67745  -5586418.59261
 91  4 24 21  1 14.9980000  0  6G18G 2G11G19G16G 6
  21809621.623     6405687.692 7   4985180.12121
  21124738.022   -14832371.068 7 -11469117.50623
  22337096.4594   -7764753.60846  -5984731.67861
  20415194.717    -2174062.717 6  -1684439.01123
  23097110.342    -5481102.378 5  -4124472.09521
  22765167.193    -7438545.702 5  -5620336.46021
 91  4 24 21  1 29.9980000  0  6G18G 2G11G19G16G 6
  21816222.9124    6440373.99846   5012208.26561
  21117078.959   -14872624.093 7 -11500483.45323
  22336037.5684   -7770304.77846  -5989057.27061
  20415119.897    -2174472.681 6  -1684758.48323
  23095476.365    -5489695.659 5  -4131168.22121
  22756883.2794   -7482061.63745  -5654244.91661
 91  4 24 21  1 44.9980000  0  6G18G 2G11G19G16G 6
  21822837.8974    6475134.21646   5039293.99062
  21109433.162   -14912797.249 7 -11531787.16223
  22335010.8894   -7775700.32446  -5993261.60161
  20415051.889    -2174824.972 6  -1685033.01823
  23093868.2094   -5498156.79545  -4137761.38061
  22748608.662    -7525565.938 5  -5688144.29521
 91  4 24 21  1 59.9980000  0  6G18G 2G11G19G16G 6
  21829465.623     6509970.698 6   5066439.15822
  21101803.186   -14952888.000 7 -11563026.66123
  22334015.1704   -7780937.74446  -5997342.71861
  20414995.318    -2175116.905 6  -1685260.51423
  23092281.0374   -5506483.38345  -4144249.68061
  22740335.2324   -7569056.12045  -5722032.68061
 91  4 24 21  2 14.9980000  0  6G18G 2G11G19G16G 6
  21836109.8344    6544879.51246   5093640.68261
  21094188.897   -14992900.017 7 -11594204.81223
  22333047.1474   -7786020.75246  -6001303.50561
  20414950.576    -2175352.253 6  -1685443.92923
  23090719.6934   -5514679.20045  -4150636.07761
  22732056.6624   -7612535.90845  -5755912.97061
 91  4 24 21  2 29.9980000  0  6G18G 2G11G19G16G 6
  21842765.7404    6579856.06846   5120894.99362
  21086589.818   -15032837.378 7 -11625324.79023
  22332108.4124   -7790953.52746  -6005147.22961
  20414913.998    -2175534.966 6  -1685586.31823
  23089184.4754   -5522748.60245  -4156923.97561
  22723783.3184   -7656009.53545  -5789788.44961
 91  4 24 21  2 44.9980000  0  6G18G 2G11G19G16G 6
  21849435.1544    6614901.42546   5148202.91261
  21079004.420   -15072698.958 7 -11656385.71123
  22331198.5294   -7795735.08046  -6008873.12061
  20414891.7254   -2175663.94346
  23087672.9594   -5530690.54045  -4163112.56861
  22715513.709    -7699475.776 5  -5823658.17121
 91  4 24 21  2 59.9980000  0  6G18G 2G11G19G16G 6
  21856117.6624    6650019.40846   5175567.42661
  21071433.701   -15112480.405 7 -11687384.20123
  22330318.8574   -7800361.36746  -6012478.02261
  20414877.5294   -2175735.29046
  23086194.154    -5538501.210 5  -4169198.85421
  22707242.5294   -7742930.54445  -5857518.96461
 91  4 24 21  3 14.9980000  0  6G18G 2G11G19G16G 6
  21862813.5454    6685204.15346   5202983.96061
  21063878.568   -15152187.549 7 -11718324.78523
  22329468.0534   -7804837.99346  -6015966.30961
  20414874.6074   -2175754.31146
  23084729.9284   -5546186.26745  -4175187.28261
  22698973.381    -7786379.534 5  -5891375.24621
 91  4 24 21  3 29.9980000  0  6G18G 2G11G19G16G 6
  21869522.5144    6720459.25746   5230455.31661
  21056336.553   -15191816.494 7 -11749204.43923
  22328643.5144   -7809161.02446  -6019334.91261
  20414884.6864   -2175717.07046
  23083285.6624   -5553741.59945  -4181074.62561
  22690709.8264   -7829818.64445  -5925223.83561
 91  4 24 21  3 44.9980000  0  6G18G 2G11G19G16G 6
  21876244.6544    6755787.61646   5257983.75561
  21048810.506   -15231363.985 7 -11780020.62023
  22327849.3034   -7813327.51746  -6022581.54061
  20414899.8814   -2175620.50546
  23081876.857    -5561164.687 5  -4186858.91521
  22682443.014    -7873245.026 5  -5959062.49521
 91  4 24 21  3 59.9980000  0  6G18G 2G11G19G16G 6
  21882980.3814    6791183.39446   5285564.72561
  21041299.748   -15270835.570 7 -11810777.65123
  22327086.7404   -7817343.07546  -6025710.54961
  20414932.209    -2175470.178 6
  23080490.9824   -5568461.26445  -4192544.62061
  22674179.8654   -7916664.23345  -5992895.57961
 91  4 24 21  4 14.9980000  0  6G18G 2G11G19G16G 6
  21889728.9674    6826647.99646   5313199.32162
  21033803.248   -15310229.767 7 -11841474.38623
  22326353.7484   -7821206.06146  -6028720.67861
  20414967.256    -2175264.438 6
  23079121.373    -5575629.657 5  -4198130.44921
  22665923.1394   -7960074.55645  -6026721.75161
 91  4 24 21  4 29.9980000  0  6G18G 2G11G19G16G 6
  21896492.8264    6862189.07546   5340893.51661
  21026322.6934  -15349538.60547 -11872104.61063
  22325645.5534   -7824908.49846  -6031605.69661
  20415021.6624   -2174995.06546  -1685165.81263
  23077781.873    -5582662.334 5  -4203610.53621
  22657661.889    -8003468.023 5  -6060534.76021
 91  4 24 21  4 44.9980000  0  6G18G 2G11G19G16G 6
  21903268.4904    6897798.20646   5368640.73561
  21018857.607   -15388770.087 7 -11902674.55223
  22324972.1154   -7828458.71146  -6034372.09361
  20415080.2724   -2174670.41247  -1684912.86363
  23076474.1864   -5589567.40745  -4208991.18861
  22649406.5224   -8046853.07545  -6094341.23261
 91  4 24 21  4 59.9980000  0  6G18G 2G11G19G16G 6
  21910057.818     6933474.460 6   5396440.25221
  21011407.857   -15427924.988 7 -11933184.82023
  22324322.920    -7831857.434 6  -6037020.45921
  20415154.170    -2174290.925 7  -1684617.17923
  23075182.404    -5596345.502 5  -4214272.89221
  22641153.7324   -8090230.18445  -6128141.51461
 91  4 24 21  5 14.9980000  0  6G18G 2G11G19G16G 6
  21916860.279     6969220.476 6   5424294.13021
  21003970.1004  -15467000.22547 -11963633.01563
  22323708.7794   -7835101.69546  -6039548.46461
  20415235.584    -2173853.454 7  -1684276.31323
  23073913.9674   -5602993.64345  -4219453.33961
  22632902.6704   -8133596.29145  -6161933.21761
 91  4 24 21  5 29.9980000  0  6G18G 2G11G19G16G 6
  21923676.2874    7005032.13446   5452199.16161
  20996549.0844  -15505999.49547 -11994022.01763
  22323118.1934   -7838195.34946  -6041959.10261
  20415331.475    -2173362.022 6  -1683893.40423
  23072675.717    -5609516.115 5  -4224535.86121
  22624649.8734   -8176955.30145  -6195719.39461
 91  4 24 21  5 44.9980000  0  6G18G 2G11G19G16G 6
  21930503.225     7040909.960 6   5480155.74721
  20989143.529   -15544922.344 7 -12024351.46623
  22322558.2644   -7841137.78246  -6044251.91361
  20415434.803    -2172815.723 7  -1683467.74023
  23071465.4364   -5615912.44745  -4229520.09961
  22616397.967    -8220306.662 5  -6229499.60221
 91  4 24 21  5 59.9980000  0  6G18G 2G11G19G16G 6
  21937342.889     7076855.352 6   5508164.98021
  20981750.2094  -15583766.98847 -12054619.97563
  22322026.7404   -7843927.40546  -6046425.65061
  20415550.740    -2172212.833 7  -1682997.98023
  23070262.5534   -5622180.85445  -4234404.63861
  22608152.1004   -8263648.60645  -6263272.48361
 91  4 24 21  6 14.9980000  0  6G18G 2G11G19G16G 6
  21944195.693     7112868.431 6   5536226.96021
  20974374.803   -15622532.961 7 -12084827.18623
  22321526.7254   -7846564.08246  -6048480.20261
  20415673.701    -2171553.045 7  -1682483.88223
  23069095.834    -5628321.485 5  -4239189.62421
  22599906.022    -8306980.811 5  -6297037.77421
 91  4 24 21  6 29.9980000  0  6G18G 2G11G19G16G 6
  21951062.4674    7148948.89346   5564341.44061
  20967010.740   -15661220.408 7 -12114973.20723
  22321054.1864   -7849047.76146  -6050415.54061
  20415810.576    -2170836.278 7  -1681925.38623
  23067953.2794   -5634334.46145  -4243875.12361
  22591660.381    -8350303.287 5  -6330795.46921
 91  4 24 21  6 44.9980000  0  6G18G 2G11G19G16G 6
  21957954.225     7185167.414 6   5592563.50621
  20959677.607   -15699758.410 7 -12145002.77223
  22320625.6624   -7851307.49446  -6052176.37061
  20415969.725    -2169991.388 7  -1681267.05623
  23066844.311    -5640148.876 5  -4248405.91321
  22583433.076    -8393544.985 5  -6364490.23321
 91  4 24 21  6 59.9980000  0  6G18G 2G11G19G16G 6
  21964865.107     7221480.677 6   5620859.38821
  20952365.920   -15738190.024 7 -12174949.44323
  22320226.8184   -7853386.52446  -6053796.40261
  20416146.998    -2169061.529 7  -1680542.51223
  23065771.6704   -5645807.70445  -4252815.47861
  22575212.9364   -8436749.05445  -6398155.67361
 91  4 24 21  7 14.9980000  0  6G18G 2G11G19G16G 6
  21971788.912     7257864.318 6   5649210.11321
  20945068.006   -15776539.211 7 -12204831.88123
  22319862.0374   -7855308.84746  -6055294.30861
  20416335.967    -2168070.674 7  -1679770.44223
  23064721.678    -5651335.291 5  -4257122.76221
  22566991.8974   -8479939.53445  -6431810.52861
 91  4 24 21  7 29.9980000  0  6G18G 2G11G19G16G 6
  21978724.639     7294313.881 6   5677612.20121
  20937783.959   -15814810.168 7 -12234653.36223
  22319524.9754   -7857078.69646  -6056673.40961
  20416539.201    -2167023.024 7  -1678954.11423
  23063699.522    -5656736.043 5  -4261331.20921
  22558778.0064   -8523120.62145  -6465458.06461
 91  4 24 21  7 44.9970000  0  6G18G 2G11G19G16G 6
  21985673.712     7330827.749 6   5706064.39421
  20930516.8684  -15852999.17647 -12264410.98963
  22319216.5014   -7858695.19646  -6057933.02461
  20416745.7744   -2165917.50447  -1678092.69963
  23062688.798    -5662008.940 5  -4265440.04721
  22550562.8764   -8566288.51445  -6499095.32161
 91  4 24 21  7 59.9970000  0  6G18G 2G11G19G16G 6
  21992634.774     7367409.969 6   5734569.84521
  20923264.368   -15891112.017 7 -12294109.26323
  22318940.7514   -7860159.25746  -6059073.85461
  20416967.337    -2164754.532 7  -1677186.51123
  23061706.064    -5667155.320 5  -4269450.28221
  22542348.6964   -8609449.63845  -6532727.30661
 91  4 24 21  8 14.9970000  0  6G18G 2G11G19G16G 6
  21999607.8214    7404057.95446   5763126.54961
  20916026.8534  -15929145.94947 -12323746.05163
  22318689.7354   -7861470.50246  -6060095.60361
  20417201.993    -2163533.734 7  -1676235.26523
  23060749.8064   -5672174.75845  -4273361.59461
  22534134.595    -8652600.731 5  -6566351.46321
 91  4 24 21  8 29.9970000  0  6G18G 2G11G19G16G 6
  22006596.306     7440778.211 6   5791739.56221
  20908805.743   -15967094.270 7 -12353316.12823
  22318469.9154   -7862622.48946  -6060993.26361
  20417446.962    -2162248.699 6  -1675233.96423
  23059817.501    -5677060.862 5  -4277169.02121
  22525929.8764   -8695735.26845  -6599962.71961
 91  4 24 21  8 44.9970000  0  6G18G 2G11G19G16G 6
  22013596.4394    7477561.29646   5820401.53161
  20901599.126   -16004965.972 7 -12382826.50923
  22318280.4704   -7863624.21446  -6061773.82461
  20417699.7044   -2160908.44047  -1674189.63263
  23058915.2984   -5681822.89045  -4280879.77261
  22517722.7594   -8738862.14545  -6633568.01661
 91  4 24 21  8 59.9970000  0  6G18G 2G11G19G16G 6
  22020608.407     7514408.396 6   5849113.38821
  20894406.743   -16042759.355 7 -12412275.86123
  22318118.6034   -7864474.13146  -6062436.10161
  20417966.8844   -2159511.01446  -1673100.75663
  23058034.524    -5686459.268 5  -4284492.60321
  22509518.079    -8781979.839 5  -6667166.15421
 91  4 24 21  9 14.9970000  0  6G18G 2G11G19G16G 6
  22027631.9934    7551323.06946   5877877.88561
  20887230.642   -16080470.881 7 -12441661.41923
  22317984.0954   -7865168.71846  -6062977.33361
  20418244.1574   -2158052.93747  -1671964.62363
  23057171.603    -5690966.266 5  -4288004.64021
  22501314.931    -8825084.777 5  -6700754.36121
 91  4 24 21  9 29.9970000  0  6G18G 2G11G19G16G 6
  22034670.806     7588303.481 6   5906693.61321
  20880069.7124  -16118102.18147 -12470984.46563
  22317883.4314   -7865709.66846  -6063398.84761
  20418531.7354   -2156535.66646  -1670782.36363
  23056341.282    -5695346.307 5  -4291417.72421
  22493115.798    -8868178.345 5  -6734333.70121
 91  4 24 21  9 44.9970000  0  6G18G 2G11G19G16G 6
  22041718.7904    7625341.41946   5935554.17161
  20872922.4464  -16155661.02147 -12500251.05463
  22317805.8454   -7866104.89946  -6063706.82161
  20418829.5404   -2154967.09247  -1669560.12163
  23055538.142    -5699607.030 5  -4294737.85421
  22484911.6894   -8911268.58845  -6767910.44761
 91  4 24 21  9 59.9970000  0  6G18G 2G11G19G16G 6
  22048779.6894    7662441.83746   5964463.41461
  20865789.314   -16193142.491 7 -12529457.35323
  22317758.3294   -7866349.50946  -6063897.43161
  20419142.2744   -2153342.04047  -1668293.87663
  23054747.235    -5703743.399 5  -4297961.06721
  22476716.7674   -8954350.43745  -6801480.65861
 91  4 24 21 10 14.9970000  0  6G18G 2G11G19G16G 6
  22055851.454     7699611.662 6   5993426.72421
  20858672.5954  -16230538.95147 -12558597.40963
  22317743.8374   -7866436.12846
  20419461.6034   -2151653.01647  -1666977.78363
  23053979.517    -5707748.125 5  -4301081.71521
  22468520.3064   -8997416.43145  -6835038.51261
 91  4 24 21 10 29.9970000  0  6G18G 2G11G19G16G 6
  22062938.5954    7736847.26346   6022441.29761
  20851574.3604  -16267854.34947 -12587674.30863
  22317758.0014   -7866368.55646
  20419796.665    -2149903.706 6  -1665614.71223
  23053249.0874   -5711625.16645  -4304102.86261
  22460327.6734   -9040470.18145  -6868586.83061
 91  4 24 21 10 44.9970000  0  6G18G 2G11G19G16G 6
  22070034.3994    7774140.49246   6051500.78261
  20844486.3844  -16305096.25247 -12616693.93263
  22317797.462    -7866154.574 6
  20420137.7594   -2148101.74147  -1664210.61163
  23052531.493    -5715382.461 5  -4307030.70521
  22452133.5954   -9083519.48745  -6902131.67461
 91  4 24 21 10 59.9970000  0  6G18G 2G11G19G16G 6
  22077143.0014    7811496.16446   6080608.92361
  20837414.9544  -16342259.63647 -12645652.37363
  22317866.6264   -7865789.29346
  20420490.446    -2146241.975 6  -1662761.46723
  23051837.478    -5719015.410 5  -4309861.65021
  22443946.1814   -9126559.27645  -6935669.12261
 91  4 24 21 11 14.9970000  0  6G18G 2G11G19G16G 6
  22084264.4704    7848914.29546   6109765.71261
  20830355.5714  -16379344.09647 -12674549.31863
  22317966.3294   -7865272.27146  -6063058.02561
  20420857.1184   -2144323.95347  -1661266.93263
  23051171.0564   -5722523.68845  -4312595.45461
  22435757.0484   -9169589.18345  -6969198.84961
 91  4 24 21 11 29.9970000  0  6G18G 2G11G19G16G 6
  22091395.3764    7886390.32846   6138967.63161
  20823313.9854  -16416353.71147 -12703387.94063
  22318089.0484   -7864607.93146  -6062540.36161
  20421232.8764   -2142351.93746  -1659730.32563
  23050527.993    -5725911.770 5  -4315235.60621
  22427571.1104   -9212613.46345  -7002724.21561
 91  4 24 21 11 44.9970000  0  6G18G 2G11G19G16G 6
  22098538.4544    7923928.03046   6168217.60061
  20816286.9704  -16453284.76147 -12732165.34263
  22318247.5014   -7863792.37746  -6061904.86661
  20421617.0404   -2140321.86847  -1658148.48063
  23049909.2284   -5729175.61245  -4317778.95061
  22419386.2824   -9255628.10745  -7036242.05461
 91  4 24 21 11 59.9970000  0  6G18G 2G11G19G16G 6
  22105694.4464    7961528.63346   6197516.58761
  20809272.6034  -16490135.79647 -12760880.40163
  22318432.6424   -7862824.33846  -6061150.55061
  20422014.673    -2138232.106 7  -1656520.11923
  23049313.024    -5732314.107 5  -4320224.61021
  22411204.353    -9298631.569 5  -7069751.19221
 91  4 24 21 12 14.9970000  0  6G18G 2G11G19G16G 6
  22112859.8374    7999189.83146   6226862.78261
  20802275.4934  -16526908.38847 -12789534.32963
  22318644.204    -7861705.646 6  -6060278.85521
  20422423.782    -2136084.390 7  -1654846.59623
  23048733.517    -5735329.126 5  -4322574.05821
  22403019.931    -9341625.788 5  -7103253.13121
 91  4 24 21 12 29.9970000  0  6G18G 2G11G19G16G 6
  22120039.142     8036913.974 6   6256258.02821
  20795292.7204  -16563600.52947 -12818125.57463
  22318887.1964   -7860434.20846  -6059288.12461
  20422844.2434   -2133876.51646  -1653126.20563
  23048181.329    -5738218.657 5  -4324825.70821
  22394840.5324   -9384608.45845  -7136746.05461
 91  4 24 21 12 44.9970000  0  6G18G 2G11G19G16G 6
  22127229.5014    8074695.82446   6285698.24961
  20788325.5174  -16600217.06747 -12846657.90963
  22319157.7744   -7859014.97246  -6058182.23461
  20423274.1184   -2131613.31846  -1651362.70363
  23047657.462    -5740987.734 5  -4326983.52021
  22386664.243    -9427584.544 5  -7170233.86521
 91  4 24 21 12 59.9970000  0  6G18G 2G11G19G16G 6
  22134428.735     8112535.411 6   6315183.45021
  20781372.4074  -16636757.41147 -12875130.86463
  22319454.1424   -7857447.57646  -6056960.89061
  20423715.4784   -2129294.35446  -1649555.74863
  23047153.618    -5743636.465 5  -4329047.53221
  22378481.696    -9470553.456 5  -7203716.07721
 91  4 24 21 13 14.9970000  0  6G18G 2G11G19G16G 6
  22141641.673     8150432.989 6   6344713.83921
  20774434.2434  -16673221.16147 -12903544.14663
  22319782.7044   -7855731.77146  -6055623.89861
  20424168.4314   -2126919.11547  -1647704.94463
  23046671.0874   -5746164.11045  -4331017.20561
  22370306.790    -9513514.681 5  -7237192.29221
 91  4 24 21 13 29.9970000  0  6G18G 2G11G19G16G 6
  22148865.032     8188390.052 6   6374290.57421
  20767509.8534  -16709606.47547 -12931896.30263
  22320136.8064   -7853865.69946  -6054169.82461
  20424633.2674   -2124485.77446  -1645808.86163
  23046211.4934   -5748569.11145  -4332891.31961
  22362139.4704   -9556466.62445  -7270661.28661
 91  4 24 21 13 44.9970000  0  6G18G 2G11G19G16G 6
  22156099.4704    8226404.03046   6403911.64861
  20760600.6184  -16745915.56147 -12960189.06163
  22320519.3294   -7851851.93146  -6052600.66361
  20425106.0244   -2121996.54646  -1643869.23563
  23045784.6494   -5750854.09245  -4334671.91561
  22353964.0324   -9599411.38345  -7304124.67361
 91  4 24 21 13 59.9970000  0  6G18G 2G11G19G16G 6
  22163344.235     8264475.285 6   6433577.36921
  20753706.2204  -16782147.77747 -12988421.92463
  22320930.6494   -7849689.66046  -6050915.78361
  20425592.9934   -2119450.48046  -1641885.31463
  23045367.6494   -5753018.54845  -4336358.56561
  22345794.720    -9642348.209 5  -7337581.88821
 91  4 24 21 14 14.9970000  0  6G18G 2G11G19G16G 6
  22170599.4394    8302608.80146   6463291.58761
  20746825.9314  -16818297.99147 -13016590.89163
  22321371.7824   -7847374.08646  -6049111.45261
  20426086.5404   -2116842.45847  -1639853.12163
  23044981.157    -5755057.553 5  -4337947.49521
  22337627.5644   -9685272.13045  -7371029.03461
 91  4 24 21 14 29.9970000  0  6G18G 2G11G19G16G 6
  22177869.4234    8340805.96846   6493055.41861
  20739963.3604  -16854364.46547 -13044694.60063
  22321843.6894   -7844903.52046  -6047186.33561
  20426593.3214   -2114170.81446  -1637771.34663
  23044620.7824   -5756969.34445  -4339437.28061
  22329457.7594   -9728181.28045  -7404464.68161
 91  4 24 21 14 44.9970000  0  6G18G 2G11G19G16G 6
  22185148.868     8379060.906 6   6522864.25721
  20733114.0244  -16890353.08047 -13072737.63663
  22322341.103    -7842283.815 6
  20427112.946    -2111441.160 7
  23044274.9544   -5758759.74245  -4340832.47761
  22321298.321    -9771081.438 5  -7437893.31721
 91  4 24 21 14 59.9970000  0  6G18G 2G11G19G16G 6
  22192440.399     8417375.976 6   6552719.95421
  20726282.5564  -16926261.06047 -13100717.85063
  22322869.767    -7839512.378 6
  20427642.274    -2108650.605 6
  23043957.7904   -5760426.78345  -4342131.55061
  22313135.1184   -9813969.92845  -7471312.86061
 91  4 24 21 15 14.9970000  0  6G18G 2G11G19G16G 6
  22199743.6814    8455750.84546   6582622.23561
  20719463.8214  -16962088.50147 -13128635.29863
  22323425.5244   -7836589.32446  -6040707.77461
  20428185.0874   -2105799.22346  -1631248.11163
  23043666.5874   -5761970.64445  -4343334.64761
  22304977.649    -9856846.777 5  -7504723.31921
 91  4 24 21 15 29.9970000  0  6G18G 2G11G19G16G 6
  22207055.9464    8494182.39446   6612568.69661
  20712660.9544  -16997838.26747 -13156492.22463
  22324009.985    -7833517.882 6  -6038314.47321
  20428741.0244   -2102889.91146  -1628981.14163
  23043397.790    -5763394.390 5  -4344444.13221
  22296820.8534   -9899714.83445  -7538126.94861
 91  4 24 21 15 44.9970000  0  6G18G 2G11G19G16G 6
  22214381.774     8532667.374 6   6642556.78821
  20705871.6734  -17033513.21647 -13184290.85263
  22324621.3764   -7830300.89946  -6035807.74661
  20429305.0644   -2099925.45846  -1626671.20363
  23043144.9544   -5764701.10945  -4345462.43161
  22288660.024    -9942576.886 5  -7571525.88021
 91  4 24 21 15 59.9970000  0  6G18G 2G11G19G16G 6
  22221714.548     8571205.359 6   6672586.18621
  20699097.0954  -17069113.48647 -13212031.28663
  22325259.1184   -7826938.54746  -6033187.74561
  20429884.064    -2096906.019 6  -1624318.42023
  23042919.079    -5765890.834 5  -4346389.56921
  22280506.9464   -9985433.12445  -7604920.29361
 91  4 24 21 16 14.9970000  0  6G18G 2G11G19G16G 6
  22229058.8064    8609800.40146   6702660.03061
  20692339.2744  -17104634.96947 -13239710.33263
  22325928.415    -7823426.817 6  -6030451.35521
  20430464.8994   -2093827.28246  -1621919.43163
  23042721.587    -5766959.370 5  -4347222.27221
  22272354.4544  -10028279.48945  -7638307.01661
 91  4 24 21 16 29.9970000  0  6G18G 2G11G19G16G 6
  22236413.2044    8648451.86546   6732777.84861
  20685592.5324  -17140077.73747 -13267328.03363
  22326625.876    -7819765.976 6  -6027598.77021
  20431064.3534   -2090689.29046  -1619474.27363
  23042536.8294   -5767907.49345  -4347961.15061
  22264200.4234  -10071115.88246  -7671685.96261
 91  4 24 21 16 44.9970000  0  6G18G 2G11G19G16G 6
  22243778.837     8687162.061 6   6762941.41221
  20678864.7904  -17175439.45847 -13294882.58763
  22327349.595    -7815953.968 6  -6024628.38421
  20431673.5874   -2087489.90846  -1616981.27562
  23042375.110    -5768733.108 5  -4348604.55921
  22256052.5094  -10113940.06245  -7705055.39461
 91  4 24 21 16 59.9970000  0  6G18G 2G11G19G16G 6
  22251156.267     8725925.257 6   6793146.28421
  20672148.9934  -17210725.43747 -13322378.12163
  22328105.564    -7811996.261 6  -6021544.48221
  20432293.0174   -2084234.29846  -1614444.46862
  23042245.134    -5769441.740 5  -4349156.83121
  22247904.3454  -10156757.37045  -7738419.47361
 91  4 24 21 17 14.9970000  0  6G18G 2G11G19G16G 6
  22258542.103     8764742.249 6   6823393.06521
  20665449.392   -17245934.648 7 -13349813.82824
  22328883.899    -7807891.822 6  -6018346.23321
  20432922.485    -2080921.190 6  -1611862.84823
  23042132.4464   -5770032.48645  -4349617.22861
  22239757.564   -10199566.679 6  -7771777.31821
 91  4 24 21 17 29.9970000  0  6G18G 2G11G19G16G 6
  22265939.3994    8803607.31046   6853677.31261
  20658762.7204  -17281072.36747 -13377193.83263
  22329694.532    -7803645.976 6  -6015037.79921
  20433561.1734   -2077555.67146  -1609240.39462
  23042043.907    -5770510.758 5  -4349989.99021
  22231613.5564  -10242373.18546  -7805132.97861
 91  4 24 21 17 44.9970000  0  6G18G 2G11G19G16G 6
  22273347.923     8842527.933 6   6884004.83721
  20652091.4394  -17316131.22647 -13404512.38563
  22330529.978    -7799251.512 6  -6011613.56621
  20434215.4154   -2074130.43646  -1606571.41262
  23041971.9544   -5770869.30645  -4350269.45861
  22223469.181   -10285169.606 6  -7838480.78421
 91  4 24 21 17 59.9970000  0  6G18G 2G11G19G16G 6
  22280761.939     8881501.628 6   6914373.73421
  20645434.7124  -17351113.43447 -13431771.20763
  22331393.345    -7794710.807 6  -6008075.37521
  20434879.6734   -2070647.81346  -1603857.70663
  23041931.8454   -5771110.91645  -4350457.80661
  22215327.1814  -10327958.00246  -7871822.33661
 91  4 24 21 18 14.9970000  0  6G18G 2G11G19G16G 6
  22288189.134     8920528.420 6   6944783.99321
  20638792.0714  -17386018.46147 -13458969.88764
  22332286.235    -7790023.529 6  -6004422.97921
  20435549.048    -2067107.149 6  -1601098.77323
  23041904.126    -5771234.912 5
  22207184.532   -10370737.905 6  -7905157.27121
 91  4 24 21 18 29.9970000  0  6G18G 2G11G19G16G 6
  22295627.1344    8959611.76646   6975238.33561
  20632165.7744  -17420842.36447 -13486105.36663
  22333207.509    -7785185.838 6  -6000653.36521
  20436235.9314   -2063504.29946  -1598291.38463
  23041905.603    -5771237.739 5
  22199044.9464  -10413505.41045  -7938482.54061
 91  4 24 21 18 44.9970000  0  6G18G 2G11G19G16G 6
  22303074.884     8998751.761 6   7005736.80621
  20625554.2594  -17455585.22447 -13513177.68964
  22334155.423    -7780197.897 6  -5996766.68121
  20436932.9784   -2059839.17146  -1595435.46763
  23041929.603    -5771119.379 5
  22190910.9544  -10456260.35346  -7971798.02161
 91  4 24 21 18 59.9970000  0  6G18G 2G11G19G16G 6
  22310533.181     9037940.714 6   7036273.42121
  20618957.9314  -17490254.15547 -13540192.40363
  22335130.876    -7775067.011 6  -5992768.61721
  20437642.6654   -2056119.19546  -1592536.81562
  23041972.0174   -5770887.47245
  22182776.6264  -10499010.06746  -8005109.42461
 91  4 24 21 19 14.9970000  0  6G18G 2G11G19G16G 6
  22317998.892     9077182.979 6   7066851.58821
  20612374.3604  -17524844.65647 -13567146.00263
  22336133.251    -7769788.638 6  -5988655.62321
  20438361.0564   -2052339.65946  -1589591.75162
  23042040.439    -5770537.631 5
  22174643.095   -10541749.835 6  -8038413.07721
 91  4 24 21 19 29.9970000  0  6G18G 2G11G19G16G 6
  22325477.759     9116474.664 6   7097468.26421
  20605806.0174  -17559360.50047 -13594041.43463
  22337166.517    -7764366.755 6  -5984430.79421
  20439090.7204   -2048504.09946  -1586603.03462
  23042126.1574   -5770073.74445  -4349650.15061
  22166510.6184  -10584483.40846  -8071711.90961
 91  4 24 21 19 44.9970000  0  6G18G 2G11G19G16G 6
  22332965.556     9155824.758 6   7128130.44621
  20599254.1344  -17593792.25847 -13620871.33364
  22338226.821    -7758792.301 6  -5980087.09021
  20439832.642    -2044603.059 6  -1583563.28622
  23042241.3374   -5769486.52145  -4349192.66661
  22158382.868   -10627201.518 6  -8104998.68421
 91  4 24 21 19 59.9970000  0  6G18G 2G11G19G16G 6
  22340463.689     9195225.386 6   7158832.00821
  20592717.0324  -17628147.49147 -13647641.60763
  22339317.0244   -7753072.87346  -5975630.40561
  20440585.423    -2040644.300 6  -1580478.56622
  23042370.4934   -5768784.05445  -4348645.37961
  22150252.2284  -10669911.51845  -8138279.14861
 91  4 24 21 20 14.9970000  0  6G18G 2G11G19G16G 6
  22347970.431     9234678.300 6   7189574.30721
  20586194.0244  -17662424.21447 -13674350.71064
  22340434.564    -7747206.601 6  -5971059.30821
  20441349.7744   -2036625.49246  -1577347.05662
  23042530.0874   -5767964.45545  -4348006.83961
  22142127.4154  -10712611.41846  -8171551.73961
 91  4 24 21 20 29.9970000  0  6G18G 2G11G19G16G 6
  22355489.4074    9274184.55946   7220358.16361
  20579686.7984  -17696621.26047 -13700997.72164
  22341577.4784   -7741192.38746  -5966372.93461
  20442128.298    -2032545.512 6  -1574167.87222
  23042707.556    -5767026.505 5  -4347276.05321
  22134004.978   -10755300.011 6  -8204815.52621
 91  4 24 21 20 44.9970000  0  6G18G 2G11G19G16G 6
  22363016.181     9313739.792 6   7251180.19221
  20573192.6184  -17730742.68747 -13727585.81164
  22342747.899    -7735034.475 6  -5961574.58421
  20442915.056    -2028408.452 6  -1570944.21622
  23042904.923    -5765974.794 5  -4346456.65321
  22125882.5954  -10797981.38145  -8238073.68461
 91  4 24 21 20 59.9970000  0  6G18G 2G11G19G16G 6
  22370551.9624    9353343.27046   7282039.81461
  20566714.9314  -17764788.70647 -13754115.14064
  22343949.814    -7728733.274 6  -5956664.57921
  20443713.8374   -2024214.33346  -1567676.10062
  23043127.7904   -5764809.82945  -4345548.98261
  22117761.9854  -10840655.70646  -8271326.33461
 91  4 24 21 21 14.9970000  0  6G18G 2G11G19G16G 6
  22378100.712     9392999.818 6   7312940.79221
  20560251.2904  -17798754.53547 -13780581.98664
  22345174.212    -7722283.986 6  -5951639.18221
  20444522.2434   -2019958.19846  -1564359.65862
  23043372.978    -5763526.774 5  -4344549.30121
  22109644.079   -10883318.065 5  -8304569.67721
 91  4 24 21 21 29.9970000  0  6G18G 2G11G19G16G 6
  22385655.884     9432708.670 6   7343882.52221
  20553803.5014  -17832640.65547 -13806986.72064
  22346432.759    -7715687.179 6  -5946498.83421
  20445345.3214   -2015640.45246  -1560995.21162
  23043648.017    -5762126.407 5  -4343458.21021
  22101530.040   -10925968.845 6  -8337803.99921
 91  4 24 21 21 44.9970000  0  6G18G 2G11G19G16G 6
  22393221.353     9472465.738 6   7374861.82721
  20547369.2594  -17866450.95647 -13833332.37464
  22347712.8534   -7708946.90046  -5941246.68661
  20446178.228    -2011264.908 6  -1557585.72122
  23043926.9464   -5760612.67345  -4342278.76861
  22093411.4314  -10968611.84145  -8371032.25161
 91  4 24 21 21 59.9970000  0  6G18G 2G11G19G16G 6
  22400796.181     9512270.281 6   7405878.12321
  20540949.6184  -17900185.61747 -13859619.09264
  22349025.235    -7702063.714 6  -5935883.18321
  20447020.8764   -2006831.71846  -1554131.31862
  23044237.118    -5758986.196 5  -4341011.50221
  22085299.8994  -11011247.36045  -8404254.66661
 91  4 24 21 22 14.9970000  0  6G18G 2G11G19G16G 6
  22408381.056     9552120.602 6   7436930.08121
  20534544.7904  -17933846.33747 -13885848.19364
  22350359.681    -7695039.253 6  -5930409.59421
  20447875.2204   -2002342.39146  -1550633.16662
  23044566.9394   -5757248.82445  -4339657.78361
  22077186.9074  -11053877.01145  -8437472.51661
 91  4 24 21 22 29.9970000  0  6G18G 2G11G19G16G 6
  22415974.6184    9592025.41846   7468024.49961
  20528153.9314  -17967424.09347 -13912012.64164
  22351725.837    -7687864.760 6  -5924819.10021
  20448743.8764   -1997788.12346  -1547084.41662
  23044923.001    -5755391.600 5  -4338210.70721
  22069079.4624  -11096491.81946  -8470678.79661
 91  4 24 21 22 44.9970000  0  6G18G 2G11G19G16G 6
  22423575.9784    9631978.64446   7499156.64861
  20521778.7674  -18000924.65147 -13938116.94564
  22353118.696    -7680546.356 6  -5919116.46321
  20449619.5954   -1993174.55647  -1543489.46262
  23045294.954    -5753421.053 5  -4336675.30521
  22060970.071   -11139097.505 5  -8503877.97521
 91  4 24 21 22 59.9970000  0  6G18G 2G11G19G16G 6
  22431188.110     9671979.524 6   7530325.92121
  20515418.7984  -18034348.41947 -13964161.40864
  22354538.712    -7673084.286 6  -5913301.88521
  20450510.3294   -1988501.81446  -1539848.39262
  23045694.837    -5751337.275 5  -4335051.69021
  22052866.782   -11181694.256 6  -8537070.19321
 91  4 24 21 23 14.9970000  0  6G18G 2G11G19G16G 6
  22438811.2354    9712028.35346   7561532.56561
  20509073.0404  -18067694.87647 -13990145.62963
  22355987.079    -7665478.329 6  -5907375.17221
  20451408.6654   -1983769.48946  -1536160.89762
  23046113.251    -5749140.116 5  -4333339.73221
  22044762.0874  -11224281.72446  -8570255.16361
 91  4 24 21 23 29.9970000  0  6G18G 2G11G19G16G 6
  22446440.642     9752127.575 6   7592778.46321
  20502742.6034  -18100960.96847 -14016067.22864
  22357460.470    -7657725.642 6  -5901334.13421
  20452321.6264   -1978974.57646  -1532424.63362
  23046551.524    -5746826.804 5  -4331537.26121
  22036658.8294  -11266856.86445  -8603430.54261
 91  4 24 21 23 44.9970000  0  6G18G 2G11G19G16G 6
  22454080.0644    9792275.80146   7624062.55861
  20496428.1344  -18134148.12747 -14041927.32163
  22358964.603    -7649827.814 6  -5895180.00221
  20453246.4934   -1974118.27846  -1528640.53162
  23047011.728    -5744398.906 5  -4329645.47021
  22028560.868   -11309420.953 6  -8636597.31121
 91  4 24 21 23 59.9970000  0  6G18G 2G11G19G16G 6
  22461730.9934    9832469.71946   7655382.25761
  20490126.6734  -18167259.39847 -14067728.28063
  22360493.837    -7641788.046 6  -5888915.26321
  20454181.2204   -1969203.67946  -1524811.00762
  23047496.110    -5741859.950 5  -4327667.17521
  22020460.5244  -11351976.94045  -8669757.76461
 91  4 24 21 24 14.9970000  0  6G18G 2G11G19G16G 6
  22469388.9314    9872714.35246   7686741.46261
  20483840.8064  -18200289.49947 -14093465.99064
  22362051.4074   -7633601.11346  -5882535.84261
  20455128.6654   -1964225.18846  -1520931.68962
  23048001.3844   -5739204.60845  -4325598.18461
  22012363.204   -11394519.493 6  -8702907.75821
 91  4 24 21 24 29.9970000  0  6G18G 2G11G19G16G 6
  22477055.4784    9913005.33246   7718136.79061
  20477570.6894  -18233242.74947 -14119143.81664
  22363639.376    -7625271.386 6  -5876045.15821
  20456087.0714   -1959187.10746  -1517005.94462
  23048532.798    -5736437.175 5  -4323441.85021
  22004272.1184  -11437052.65846  -8736050.42461
 91  4 24 21 24 44.9970000  0  6G18G 2G11G19G16G 6
  22484730.6344    9953344.24746   7749569.46961
  20471314.0324  -18266117.17347 -14144760.21764
  22365250.5244   -7616797.11146  -5869441.84161
  20457058.2904   -1954087.48747  -1513032.24362
  23049074.3684   -5733556.24145  -4321197.09661
  21996180.329   -11479574.694 6  -8769184.43021
 91  4 24 21 24 59.9970000  0  6G18G 2G11G19G16G 6
  22492417.2514    9993727.19646   7781036.45961
  20465072.9314  -18298916.29747 -14170317.94764
  22366888.1344   -7608182.09146  -5862728.84761
  20458039.5404   -1948929.91546  -1509013.38362
  23049642.2354   -5730565.52045  -4318866.77261
  21988087.939   -11522089.080 6  -8802312.46321
 91  4 24 21 25 14.9970000  0  6G18G 2G11G19G16G 6
  22500109.8534   10034154.06846   7812537.67061
  20458846.2124  -18331639.78847 -14195816.74164
  22368555.251    -7599426.290 6  -5855906.16521
  20459032.1964   -1943713.94146  -1504949.01862
  23050237.8684   -5727465.26645  -4316451.09961
  21979999.0174  -11564595.54146  -8835434.32161
 91  4 24 21 25 29.9970000  0  6G18G 2G11G19G16G 6
  22507813.1184   10074623.81646   7844072.29361
  20452631.7124  -18364288.93747 -14221257.60163
  22370248.1344   -7590530.80246  -5848974.62461
  20460035.5014   -1938440.32246  -1500839.73462
  23050850.907    -5724256.599 5  -4313950.96121
  21971912.532   -11607095.000 6  -8868550.72921
 91  4 24 21 25 44.9970000  0  6G18G 2G11G19G16G 6
  22515520.728    10115142.143 6   7875644.76221
  20446434.9464  -18396857.79547 -14246635.90363
  22371967.954    -7581489.679 6  -5841929.61121
  20461052.595    -1933103.014 7  -1496680.81923
  23051479.134    -5720933.630 5  -4311361.73621
  21963827.048   -11649581.350 6  -8901656.92921
 91  4 24 21 25 59.9970000  0  6G18G 2G11G19G16G 6
  22523240.6814   10155708.33546   7907254.53761
  20440252.2204  -18429346.69647 -14271951.89663
  22373718.829    -7572303.547 6  -5834771.60621
  20462081.1184   -1927702.48746  -1492472.64663
  23052133.8374   -5717496.78445  -4308683.79361
  21955746.798   -11692055.017 6  -8934753.23821
 91  4 24 21 26 14.9970000  0  6G18G 2G11G19G16G 6
  22530970.0954   10196319.50646   7938899.35161
  20434085.9464  -18461757.94847 -14297207.38463
  22375491.142    -7562975.250 6  -5827502.82121
  20463118.751    -1922241.441 7  -1488217.31222
  23052807.868    -5713948.796 5  -4305919.23321
  21947664.8064  -11734518.43745  -8967841.56161
 91  4 24 21 26 29.9970000  0  6G18G 2G11G19G16G 6
  22538707.173    10236976.923 6   7970580.20621
  20427931.9394  -18494090.16447 -14322401.28663
  22377296.0244   -7553503.38346  -5820122.15161
  20464170.8144   -1916718.11246  -1483913.45163
  23053502.5404   -5710288.64445  -4303067.28661
  21939587.681   -11776970.049 6  -9000920.68421
 91  4 24 21 26 44.9970000  0  6G18G 2G11G19G16G 6
  22546453.470    10277681.210 6   8002297.57421
  20421795.1424  -18526342.61047 -14347533.03263
  22379122.782    -7543887.266 6  -5812629.09421
  20465232.0244   -1911131.51947  -1479560.29062
  23054229.259    -5706515.788 5  -4300127.51121
  21931509.384   -11819408.929 6  -9033989.89321
 91  4 24 21 26 59.9970000  0  6G18G 2G11G19G16G 6
  22554207.040    10318428.961 6   8034048.82121
  20415671.5644  -18558518.33847 -14372604.99263
  22380979.931    -7534130.173 6  -5805026.18721
  20466307.7284   -1905484.72747  -1475160.22162
  23054962.4074   -5702633.57145  -4297102.52361
  21923437.142   -11861838.172 6  -9067051.58521
 91  4 24 21 27 14.9970000  0  6G18G 2G11G19G16G 6
  22561970.314    10359218.364 6   8065832.50821
  20409562.7904  -18590618.81547 -14397618.31863
  22382864.9154   -7524234.10546  -5797314.97761
  20467391.5244   -1899779.30947  -1470714.47462
  23055724.6424   -5698643.93045  -4293993.82161
  21915363.9704  -11904259.37046  -9100107.00461
 91  4 24 21 27 29.9970000  0  6G18G 2G11G19G16G 6
  22569740.337    10400052.618 6   8097651.15521
  20403468.8534  -18622640.77647 -14422570.46463
  22384773.978    -7514195.714 6  -5789492.87421
  20468487.9624   -1894011.66347  -1466220.23162
  23056504.134    -5694543.547 5  -4290798.82921
  21907292.0874  -11946669.07946  -9133153.48661
 91  4 24 21 27 44.9970000  0  6G18G 2G11G19G16G 6
  22577519.868    10440934.166 6   8129506.64721
  20397390.8844  -18654581.36347 -14447459.20163
  22386711.149    -7504012.257 6  -5781557.73021
  20469600.1264   -1888178.90247  -1461675.25662
  23057305.142    -5690329.717 5  -4287515.44521
  21899225.110   -11989064.376 6  -9166188.73821
 91  4 24 21 27 59.9970000  0  6G18G 2G11G19G16G 6
  22585306.3684   10481853.86045   8161391.86261
  20391326.9074  -18686449.48447 -14472291.46763
  22388675.024    -7493692.772 6  -5773516.59421
  20470722.1344   -1882290.23247  -1457086.71063
  23058127.571    -5686011.780 5  -4284150.90421
  21891160.165   -12031454.070 6  -9199219.62021
 91  4 24 21 28 14.9970000  0  6G18G 2G11G19G16G 6
  22593099.493    10522809.460 5   8193305.05821
  20385277.8604  -18718247.25947 -14497068.91763
  22390663.837    -7483239.443 6  -5765371.16021
  20471852.5714   -1876347.26047  -1452455.85163
  23058965.9784   -5681591.81745  -4280706.91861
  21883094.8064  -12073840.16746  -9232247.68661
 91  4 24 21 28 29.9970000  0  6G18G 2G11G19G16G 6
  22600904.0014   10563809.12246   8225252.58461
  20379239.4394  -18749966.08347 -14521784.85063
  22392681.079    -7472643.957 6  -5757114.95521
  20472997.8064   -1870341.32346  -1447775.93063
  23059835.134    -5677061.553 5  -4277176.92321
  21875031.899   -12116213.952 6  -9265266.17721
 91  4 24 21 28 44.9970000  0  6G18G 2G11G19G16G 6
  22608713.2514   10604858.54945   8257238.88961
  20373220.5874  -18781600.17747 -14546434.76363
  22394723.235    -7461900.620 6  -5748743.55421
  20474152.3064   -1864266.41847  -1443042.26363
  23060714.314    -5672415.183 5  -4273556.51321
  21866970.587   -12158569.548 6  -9298270.48021
 91  4 24 21 28 59.9970000  0  6G18G 2G11G19G16G 6
  22616530.790    10645948.648 5   8289256.88521
  20367215.2044  -18813158.01347 -14571025.25563
  22396795.126    -7451018.336 6  -5740263.86521
  20475322.751    -1858131.280 6  -1438261.66523
  23061619.462    -5667661.974 5  -4269852.83921
  21858911.7904  -12200915.53646  -9331267.30561
 91  4 24 21 29 14.9970000  0  6G18G 2G11G19G16G 6
  22624361.8844   10687086.99345   8321312.46361
  20361226.5644  -18844631.94547 -14595550.36363
  22398894.0564   -7439989.58646  -5731670.04261
  20476498.696    -1851928.155 7  -1433428.08622
  23062543.9624   -5662794.36045  -4266059.99961
  21850858.118   -12243244.271 6  -9364250.68021
 91  4 24 21 29 29.9970000  0  6G18G 2G11G19G16G 6
  22632197.0014   10728265.11846   8353399.05261
  20355250.7204  -18876030.18347 -14620016.48763
  22401019.603    -7428822.689 6  -5722968.58321
  20477692.3764   -1845665.15347  -1428547.85363
  23063487.2904   -5657820.65745  -4262184.51161
  21842805.321   -12285563.690 6  -9397226.80621
 91  4 24 21 29 44.9970000  0  6G18G 2G11G19G16G 6
  22640041.2204   10769481.95446   8385515.80161
  20349291.4934  -18907353.77047 -14644424.44563
  22403171.1814   -7417518.75146  -5714160.33261
  20478893.3534   -1839342.97447  -1423621.50763
  23064457.9624   -5652741.98345  -4258227.22261
  21834753.118   -12327874.836 6  -9430196.47421
 91  4 24 21 29 59.9970000  0  6G18G 2G11G19G16G 6
  22647893.8534   10810741.77746   8417666.04061
  20343344.8764  -18938598.17647 -14668770.70063
  22405347.4074   -7406073.21046  -5705241.73761
  20480108.767    -1832957.000 7  -1418645.44622
  23065442.446    -5647554.158 5  -4254184.86921
  21826701.978   -12370172.837 6  -9463155.90421
 91  4 24 21 30 14.9970000  0  6G18G 2G11G19G16G 6
  22655753.4624   10852042.52246   8449848.16161
  20337413.9234  -18969765.07247 -14693056.56163
  22407552.907    -7394488.185 6  -5696214.46321
  20481336.603    -1826508.945 7  -1413621.00423
  23066457.860    -5642259.412 5  -4250059.22321
  21818657.376   -12412459.516 6  -9496106.51221
 91  4 24 21 30 29.9970000  0  6G18G 2G11G19G16G 6
  22663621.1184   10893388.45146   8482065.50061
  20331497.7904  -19000849.95147 -14717278.50763
  22409787.267    -7382759.415 6  -5687075.18521
  20482578.7354   -1819994.38947  -1408544.75763
  23067475.3604   -5636853.26645  -4245846.77761
  21810612.165   -12454730.407 6  -9529044.81621
 91  4 24 21 30 44.9970000  0  6G18G 2G11G19G16G 6
  22671496.6034   10934770.35446   8514310.87661
  20325596.8924  -19031861.46447 -14741443.28863
  22412040.829    -7370895.898 6  -5677830.90121
  20483826.7204   -1813421.91247  -1403423.37663
  23068529.9234   -5631344.66845  -4241554.45661
  21802569.399   -12496994.205 6  -9561977.59321
 91  4 24 21 30 59.9970000  0  6G18G 2G11G19G16G 6
  22679377.0014   10976186.71346   8546583.09061
  20319709.4464  -19062801.18247 -14765552.12563
  22414327.9934   -7358899.10746  -5668482.76261
  20485086.657    -1806792.754 7  -1398257.82223
  23069599.9154   -5625735.29645  -4237183.65061
  21794528.4624  -12539252.01946  -9594905.70661
 91  4 24 21 31 14.9970000  0  6G18G 2G11G19G16G 6
  22687266.165    11017642.928 6   8578886.35721
  20313836.3924  -19093663.33847 -14789600.52563
  22416634.8924   -7346763.75146  -5659026.64561
  20486361.7674   -1800101.31747  -1393043.74263
  23070683.610    -5620019.791 5  -4232730.11221
  21786489.720   -12581498.347 6  -9627824.86421
 91  4 24 21 31 29.9970000  0  6G18G 2G11G19G16G 6
  22695164.1964   11059138.79946   8611220.53361
  20307978.5874  -19124448.24847 -14813588.73163
  22418972.603    -7334489.962 6  -5649462.68421
  20487646.6104   -1793347.41447  -1387780.99163
  23071792.1494   -5614198.30845  -4228194.02061
  21778451.2354  -12623733.11346  -9660735.01761
 91  4 24 21 31 44.9970000  0  6G18G 2G11G19G16G 6
  22703068.0174   11100674.29046   8643585.56861
  20302133.9394  -19155155.23147 -14837516.21963
  22421333.228    -7322077.290 6  -5639790.47521
  20488943.064    -1786530.536 7  -1382469.16323
  23072919.259    -5608270.611 5  -4223575.15421
  21770417.837   -12665955.642 6  -9693635.63621
 91  4 24 21 31 59.9970000  0  6G18G 2G11G19G16G 6
  22710977.876    11142244.047 5   8675977.31121
  20296306.4234  -19185789.61147 -14861387.13563
  22423720.6894   -7309531.46546  -5630014.51461
  20490252.7284   -1779656.03947  -1377112.44063
  23074068.212    -5602242.398 5  -4218877.98321
  21762382.7984  -12708171.35346  -9726530.93661
 91  4 24 21 32 14.9970000  0  6G18G 2G11G19G16G 6
  22718896.6344   11183850.00245   8708397.25561
  20290490.3994  -19216349.05147 -14885199.64763
  22426134.173    -7296850.308 6  -5620133.11021
  20491570.7284   -1772721.56347  -1371708.98163
  23075236.189    -5596111.669 5  -4214100.91221
  21754352.9234  -12750377.72446  -9759418.95961
 91  4 24 21 32 29.9970000  0  6G18G 2G11G19G16G 6
  22726820.1344   11225497.36545   8740849.46361
  20284690.7284  -19246828.10647 -14908949.52663
  22428573.8214   -7284028.29446  -5610141.93961
  20492904.3844   -1765721.24747  -1366254.21963
  23076419.5954   -5589873.02145  -4209239.76261
  21746323.9154  -12792569.06946  -9792295.27361
 91  4 24 21 32 44.9970000  0  6G18G 2G11G19G16G 6
  22734753.243    11267181.813 5   8773330.56021
  20278905.1494  -19277230.81647 -14932639.91763
  22431039.407    -7271069.962 6  -5600044.55221
  20494246.2124   -1758659.40447  -1360751.51263
  23077628.8764   -5583530.61145  -4204297.73961
  21738296.2674  -12834749.65446  -9825163.19261
 91  4 24 21 32 59.9970000  0  6G18G 2G11G19G16G 6
  22742693.696    11308898.179 5   8805836.55521
  20273132.7284  -19307562.31747 -14956274.82163
  22433531.2984   -7257980.33146  -5589844.85461
  20495602.9784   -1751540.94947  -1355204.69363
  23078854.103    -5577090.074 5  -4199279.25321
  21730272.8374  -12876924.29846  -9858026.49861
 91  4 24 21 33 14.9970000  0  6G18G 2G11G19G16G 6
  22750639.1814   11350649.46545   8838369.75061
  20267375.7204  -19337819.33547 -14979851.67963
  22436045.3684   -7244756.41646  -5579540.51961
  20496968.8374   -1744362.47347  -1349611.10463
  23080096.220    -5570548.303 5  -4194181.91421
  21722246.5094  -12919089.58046  -9890882.49961
 91  4 24 21 33 29.9970000  0  6G18G 2G11G19G16G 6
  22758591.157    11392438.028 5   8870931.97621
  20261633.2744  -19367999.11747 -15003368.36063
  22438588.8604   -7231395.72046  -5569129.59561
  20498346.9544   -1737121.09447  -1343968.50063
  23081362.978    -5563902.664 5  -4189003.61021
  21714225.0244  -12961242.77946  -9923729.08561
 91  4 24 21 33 44.9970000  0  6G18G 2G11G19G16G 6
  22766550.485    11434268.712 5   8903527.03821
  20255905.1494  -19398096.44747 -15026820.78663
  22441157.720    -7217893.389 6  -5558608.31521
  20499737.4154   -1729811.74547  -1338272.93763
  23082648.712    -5557148.637 5  -4183740.85921
  21706206.0714  -13003378.72746  -9956562.23761
 91  4 24 21 33 59.9970000  0  6G18G 2G11G19G16G 6
  22774519.618    11476141.098 5   8936154.58921
  20250192.5644  -19428111.64547 -15050209.22363
  22443755.337    -7204249.826 6  -5547976.99821
  20501142.149    -1722434.485 7  -1332524.45123
  23083958.157    -5550286.440 5  -4178393.83421
  21698188.7514  -13045497.49946  -9989381.99361
 91  4 24 21 34 14.9970000  0  6G18G 2G11G19G16G 6
  22782493.2204   11518046.58645   8968807.93561
  20244494.8294  -19458053.19247 -15073540.26063
  22446375.876    -7190473.523 6  -5537242.22921
  20502554.5094   -1714997.61347  -1326729.51663
  23085282.1184   -5543324.89345  -4172969.35861
  21690178.5244  -13087607.47146 -10022194.89561
 91  4 24 21 34 29.9970000  0  6G18G 2G11G19G16G 6
  22790475.095    11559985.807 5   9001487.56421
  20238812.1034  -19487920.19847 -15096813.21963
  22449024.423    -7176563.927 6  -5526403.59621
  20503983.423    -1707499.973 7  -1320887.22523
  23086626.2824   -5536263.18245  -4167466.84861
  21682168.1734  -13129707.60946 -10055000.13961
 91  4 24 21 34 44.9970000  0  6G18G 2G11G19G16G 6
  22798462.618    11601962.784 5   9034196.60821
  20233143.3994  -19517708.34447 -15120024.72563
  22451697.3374   -7162516.85246  -5515457.85061
  20505421.9544   -1699937.33047  -1314994.28563
  23087985.767    -5529097.116 5  -4161883.05321
  21674158.5094  -13171793.56046 -10087794.32161
 91  4 24 21 34 59.9970000  0  6G18G 2G11G19G16G 6
  22806458.618    11643976.440 5   9066934.23721
  20227489.7204  -19547418.25847 -15143175.27163
  22454395.7744   -7148333.14946  -5504405.62561
  20506874.6344   -1692310.22547  -1309051.11663
  23089371.4234   -5521827.73145  -4156218.71561
  21666153.1424  -13213865.92946 -10120577.91961
 91  4 24 21 35 14.9970000  0  6G18G 2G11G19G16G 6
  22814460.5714   11686025.69645   9099699.62061
  20221849.9464  -19577050.88547 -15166265.59763
  22457120.970    -7134014.042 6  -5493247.89821
  20508336.5094   -1684619.82847  -1303058.62963
  23090780.314    -5514456.510 5  -4150475.02521
  21658149.7354  -13255925.55946 -10153351.59561
 91  4 24 21 35 29.9970000  0  6G18G 2G11G19G16G 6
  22822467.4394   11728111.68345   9132493.59861
  20216226.8604  -19606605.00447 -15189294.74663
  22459873.0094   -7119558.41246  -5481983.78661
  20509815.5014   -1676864.75347  -1297015.74663
  23092195.048    -5506982.331 5  -4144651.13421
  21650147.4934  -13297971.07046 -10186114.26561
 91  4 24 21 35 44.9970000  0  6G18G 2G11G19G16G 6
  22830482.204    11770233.425 5   9165315.46021
  20210617.1184  -19636081.19547 -15212263.16763
  22462646.806    -7104967.034 6  -5470613.89721
  20511300.5794   -1669045.48947  -1290922.84163
  23093638.665    -5499405.806 5  -4138747.43821
  21642148.712   -13340002.910 6 -10218866.27321
 91  4 24 21 35 59.9970000  0  6G18G 2G11G19G16G 6
  22838505.2514   11812390.37545   9198164.73461
  20205023.2284  -19665479.71647 -15235171.07063
  22465449.689    -7090240.317 6  -5459138.54121
  20512801.1424   -1661162.01747  -1284779.90663
  23095095.610    -5491727.393 5  -4132764.43121
  21634153.3454  -13382021.32846 -10251607.83661
 91  4 24 21 36 14.9970000  0  6G18G 2G11G19G16G 6
  22846535.517    11854582.321 6   9231041.29121
  20199443.7744  -19694800.81547 -15258018.64363
  22468279.274    -7075378.677 6  -5447558.06521
  20514313.3294   -1653214.44347  -1278587.02963
  23096575.6264   -5483947.77945  -4126702.47961
  21626160.5244  -13424026.41146 -10284339.00161
 91  4 24 21 36 29.9970000  0  6G18G 2G11G19G16G 6
  22854571.6894   11896809.19346   9263945.06861
  20193879.2824  -19724043.99647 -15280805.50563
  22471134.165    -7060381.715 6  -5435872.14921
  20515838.0174   -1645202.28847  -1272343.82063
  23098081.2284   -5476066.68345  -4120561.52461
  21618169.673   -13466017.595 6 -10317059.33421
 91  4 24 21 36 44.9970000  0  6G18G 2G11G19G16G 6
  22862612.587    11939064.081 6   9296870.67221
  20188327.0484  -19753216.09447 -15303536.97563
  22474010.790    -7045256.625 6  -5424086.37821
  20517373.2824   -1637132.29047
  23099593.743    -5468091.294 5
  21610179.3764  -13508001.49846 -10349774.00161
 91  4 24 21 36 59.9970000  0  6G18G 2G11G19G16G 6
  22870661.2044   11981355.27245   9329824.55661
  20182790.6734  -19782308.53747 -15326206.37563
  22476914.2674   -7029995.07446  -5412194.29061
  20518922.2514   -1628995.65247
  23101134.556    -5460013.410 5
  21602194.3294  -13549969.49746 -10382476.27261
 91  4 24 21 37 14.9970000  0  6G18G 2G11G19G16G 6
  22878713.642    12023681.847 5   9362806.01721
  20177270.3924  -19811322.00947 -15348814.24363
  22479844.243    -7014598.068 6  -5400196.64721
  20520483.0174   -1620793.05647
  23102690.189    -5451833.766 5
  21594210.7744  -13591922.30446 -10415166.70661
 91  4 24 21 37 29.9970000  0  6G18G 2G11G19G16G 6
  22886775.579    12066037.477 5   9395810.10721
  20171763.4854  -19840262.42447 -15371365.17663
  22482797.532    -6999071.784 6  -5388098.25921
  20522055.2904   -1612530.47947
  23104268.634    -5443558.511 5
  21586230.9074  -13633865.72046 -10447849.81961
 91  4 24 21 37 44.9970000  0  6G18G 2G11G19G16G 6
  22894841.6264   12108424.05645   9428838.30961
  20166270.2594  -19869127.78547 -15393857.63363
  22485779.876    -6983414.384 6  -5375897.71221
  20523639.0564   -1604205.67747
  23105859.673    -5435185.741 5
  21578249.829   -13675797.518 6 -10480523.87021
 91  4 24 21 37 59.9970000  0  6G18G 2G11G19G16G 6
  22902913.524    12150844.483 5   9461892.87521
  20160791.9624  -19897914.65747 -15416288.93063
  22488784.767    -6967622.468 6  -5363592.34021
  20525234.8534   -1595815.14847  -1233860.51463
  23107472.798    -5426712.386 5
  21570274.0244  -13717714.20046 -10513186.15761
 91  4 24 21 38 14.9970000  0  6G18G 2G11G19G16G 6
  22910990.5954   12193296.65445   9494972.20161
  20155328.6964  -19926625.20347 -15438660.75763
  22491815.103    -6951698.383 6  -5351183.98121
  20526844.2984   -1587361.00947  -1227272.90263
  23109103.423    -5418140.927 5
  21562298.8454  -13759617.87046 -10545838.30261
 91  4 24 21 38 29.9970000  0  6G18G 2G11G19G16G 6
  22919076.954    12235779.813 5   9528075.65921
  20149880.0404  -19955260.04947 -15460973.58663
  22494868.1494   -6935642.95446  -5338673.28561
  20528468.7354   -1578843.67346  -1220636.04563
  23110750.110    -5409472.248 5
  21554326.8534  -13801508.92946 -10578480.61361
 91  4 24 21 38 44.9970000  0  6G18G 2G11G19G16G 6
  22927167.4234   12278293.06145   9561202.55661
  20144444.9154  -19983819.85147 -15483227.94163
  22497948.767    -6919456.968 6  -5326060.84721
  20530098.4314   -1570263.65247  -1213950.34463
  23112417.7284   -5400707.24945        -0.06271
  21546357.5174  -13843387.93346 -10611113.53161
 91  4 24 21 38 59.9970000  0  6G18G 2G11G19G16G 6
  22935261.6894   12320838.09545   9594354.23361
  20139024.8214  -20012302.33147 -15505422.05163
  22501056.501    -6903138.632 6  -5313345.27821
  20531745.5484   -1561618.87046  -1207214.18163
  23114111.071    -5391843.846 5      6906.35121
  21538392.8534  -13885252.73346 -10643735.39361
 91  4 24 21 39 14.9970000  0  6G18G 2G11G19G16G 6
  22943363.0094   12363414.55745   9627530.38361
  20133619.1734  -20040707.68747 -15527556.06263
  22504186.196    -6886688.262 6  -5300526.82821
  20533399.9074   -1552909.32347  -1200427.55363
  23115810.603    -5382882.615 5     13889.00321
  21530427.946   -13927103.235 6 -10676346.11721
 91  4 24 21 39 29.9960000  0  6G18G 2G11G19G16G 6
  22951471.426    12406016.823 5   9660726.64521
  20128228.8244  -20069036.60147 -15549630.50863
  22507340.1374   -6870109.71946  -5287608.50961
  20535070.2624   -1544138.11147  -1193592.87763
  23117535.395    -5373826.853 5     20945.33521
  21522466.4414  -13968939.14846 -10708945.47061
 91  4 24 21 39 44.9960000  0  6G18G 2G11G19G16G 6
  22959585.824    12448652.914 5   9693949.27521
  20122851.6604  -20097290.37047 -15571646.40363
  22510521.059    -6853398.387 6  -5274586.71121
  20536751.4884   -1535301.32047  -1186707.09863
  23119280.2704   -5364673.05845     28078.01661
  21514507.473   -14010763.363 6 -10741535.69821
 91  4 24 21 39 59.9960000  0  6G18G 2G11G19G16G 6
  22967705.3094   12491316.50945   9727193.32761
  20117489.0204  -20125470.34247 -15593604.78963
  22513725.949    -6836559.068 6  -5261465.19321
  20538445.3954   -1526402.95547  -1179773.34863
  23121041.262    -5355425.769 5     35283.57021
  21506550.0594  -14052576.36046 -10774117.19461
 91  4 24 21 40 14.9960000  0  6G18G 2G11G19G16G 6
  22975831.863    12534014.007 5   9760463.80021
  20112141.356   -20153569.868 7 -15615500.49023
  22516954.676    -6819585.246 6  -5248238.84821
  20540151.3014   -1517436.03547  -1172786.17363
  23122815.5904   -5346078.45445     42567.06361
  21498597.9884  -14094371.38346 -10806684.67661
 91  4 24 21 40 29.9960000  0  6G18G 2G11G19G16G 6
  22983959.395    12576742.371 5   9793758.32421
  20106810.2544  -20181591.65847 -15637335.62363
  22520208.027    -6802479.830 6  -5234909.97621
  20541870.4814   -1508403.24847  -1165747.66663
  23124614.356    -5336633.989 5     49926.25421
  21490644.9654  -14136150.94346 -10839240.11061
 91  4 24 21 40 44.9960000  0  6G18G 2G11G19G16G 6
  22992095.6914   12619499.43745   9827075.23061
  20101492.371   -20209537.430 7 -15659111.52523
  22523489.6214   -6785244.83746  -5221480.14061
  20543601.2154   -1499306.31047  -1158659.17763
  23126430.543    -5327094.275 5     57359.65921
  21482698.731   -14177916.771 6 -10871784.85621
 91  4 24 21 40 59.9960000  0  6G18G 2G11G19G16G 6
  23000237.840    12662284.407 5   9860413.85321
  20096188.9184  -20237408.15647 -15680828.93763
  22526793.207    -6767881.355 6  -5207950.16821
  20545347.8794   -1490146.23146  -1151521.48363
  23128251.840    -5317460.441 5     64866.42821
  21474752.1134  -14219669.66546 -10904319.51861
 91  4 24 21 41 14.9960000  0  6G18G 2G11G19G16G 6
  23008386.606    12705101.593 5   9893777.58121
  20090899.902   -20265199.149 7 -15702484.23023
  22530122.231    -6750384.904 6  -5194316.60321
  20547100.5824   -1480918.06547  -1144330.73763
  23130115.0124   -5307728.47445     72449.65861
  21466811.559   -14261404.736 6 -10936840.29421
 91  4 24 21 41 29.9960000  0  6G18G 2G11G19G16G 6
  23016541.277    12747945.520 5   9927162.14021
  20085624.8404  -20292915.59847 -15724081.43363
  22533476.473    -6732760.950 6  -5180583.66221
  20548871.5354   -1471626.93146  -1137090.92863
  23131984.3324   -5297903.53545     80105.29361
  21458873.4654  -14303127.09246 -10969351.16261
 91  4 24 21 41 44.9960000  0  6G18G 2G11G19G16G 6
  23024700.387    12790817.752 5   9960568.77321
  20080365.1604  -20320555.68647 -15745619.13663
  22536854.731    -6715007.812 6  -5166750.07521
  20550648.9814   -1462270.89347  -1129800.54063
  23133874.191    -5287984.078 5     87834.63221
  21450934.9654  -14344834.86346 -11001850.65961
 91  4 24 21 41 59.9960000  0  6G18G 2G11G19G16G 6
  23032864.113    12833716.164 5   9993995.77921
  20075119.1604  -20348121.29247 -15767098.80063
  22540257.871    -6697127.484 6  -5152817.36021
  20552444.3564   -1452851.65546  -1122460.91163
  23135780.5824   -5277972.16345     95635.97261
  21442999.9494  -14386529.66946 -11034340.05661
 91  4 24 21 42 14.9960000  0  6G18G 2G11G19G16G 6
  23041030.668    12876642.472 5  10027444.52721
  20069888.3794  -20375610.58047 -15788518.99663
  22543684.293    -6679118.489 6  -5138784.40021
  20554247.0664   -1443367.38547  -1115070.60663
  23137702.1294   -5267866.34745    103510.49861
  21435069.2314  -14428209.65646 -11066817.90461
 91  4 24 21 42 29.9960000  0  6G18G 2G11G19G16G 6
  23049206.0274   12919600.20845  10060917.77361
  20064672.5904  -20403019.59747 -15809876.63963
  22547138.5514   -6660977.09946  -5124648.26161
  20556065.0044   -1433813.90947  -1107626.37263
  23139642.8244   -5257662.80744    111461.18761
  21427142.4964  -14469870.65046 -11099280.95461
 91  4 24 21 42 44.9960000  0  6G18G 2G11G19G16G 6
  23057386.387    12962585.409 5  10094412.42221
  20059470.9964  -20430352.07747 -15831174.65063
  22550612.020    -6642707.276 6  -5110412.05321
  20557894.7384   -1424194.89847  -1100131.07263
  23141602.473    -5247365.933 4    119484.57021
  21419217.8794  -14511516.34446 -11131732.07961
 91  4 24 21 42 59.9960000  0  6G18G 2G11G19G16G 6
  23065572.723    13005597.072 5  10127927.69921
  20054284.0904  -20457608.90847 -15852413.70963
  22554114.0434   -6624310.08446  -5096076.58961
  20559739.6374   -1414511.22646  -1092585.38563
  23143577.645    -5236976.391 5    127580.17821
  21411293.8164  -14553147.42946 -11164171.82861
 91  4 24 21 43 14.9960000  0  6G18G 2G11G19G16G 6
  23073762.7854   13048633.32845  10161462.12461
  20049111.8164  -20484791.64247 -15873595.02963
  22557638.606    -6605787.151 6  -5081643.15021
  20561591.5354   -1404764.20047  -1084990.33063
  23145574.2314   -5226495.95244    135746.62561
  21403376.848   -14594765.266 6 -11196601.25721
 91  4 24 21 43 29.9960000  0  6G18G 2G11G19G16G 6
  23081956.4734   13091697.16745  10195018.05661
  20043954.1684  -20511897.11847 -15894716.15163
  22561187.8874   -6587135.74846  -5067109.59661
  20563460.4734   -1394950.68347  -1077343.46263
  23147588.957    -5215921.818 4    143986.08921
  21395459.1374  -14636366.73846 -11229017.92761
 91  4 24 21 43 44.9960000  0  6G18G 2G11G19G16G 6
  23090154.504    13134785.446 5  10228593.05021
  20038811.0204  -20538928.31947 -15915779.39263
  22564761.340    -6568359.068 6  -5052478.43421
  20565339.2154   -1385073.55447  -1069647.03163
  23149614.3094   -5205257.15744    152296.08261
  21387545.254   -14677954.642 6 -11261424.02821
 91  4 24 21 43 59.9960000  0  6G18G 2G11G19G16G 6
  23098360.527    13177895.329 5  10262184.86921
  20033680.2544  -20565887.56547 -15936786.56963
  22568357.3324   -6549459.60446  -5037751.59661
  20567232.8484   -1375135.08947  -1061902.79863
  23151661.5664   -5194504.73944    160674.42561
  21379632.8714  -14719531.17246 -11293821.26861
 91  4 24 21 44 14.9960000  0  6G18G 2G11G19G16G 6
  23106567.191    13221026.576 5  10295793.31121
  20028564.4104  -20592775.13947 -15957737.89364
  22571979.270    -6530438.020 6  -5022929.60221
  20569134.3014   -1365135.69047  -1054111.09063
  23153722.3484   -5183665.44245    169120.50361
  21371722.543   -14761096.674 6 -11326209.91721
 91  4 24 21 44 29.9960000  0  6G18G 2G11G19G16G 6
  23114780.801    13264178.088 5  10329417.56521
  20023460.6994  -20619591.57547 -15978633.77963
  22575620.1914   -6511295.05146  -5008013.01461
  20571047.8094   -1355075.78647  -1046272.23463
  23155807.106    -5172739.846 5    177633.82821
  21363813.9414  -14802651.28046 -11358590.06861
 91  4 24 21 44 44.9960000  0  6G18G 2G11G19G16G 6
  23122996.723    13307350.977 5  10363058.45721
  20018371.3634  -20646335.66947 -15999473.30064
  22579286.824    -6492029.658 6  -4993001.03721
  20572974.0664   -1344953.74447  -1038384.95663
  23157897.887    -5161726.804 5    186215.26721
  21355909.7854  -14844193.76646 -11390960.78261
 91  4 24 21 44 59.9960000  0  6G18G 2G11G19G16G 6
  23131215.684    13350545.268 5  10396716.04121
  20013295.8874  -20673007.16147 -16020256.25064
  22582978.004    -6472641.788 6  -4977893.61721
  20574913.6844   -1334769.23047  -1030448.99763
  23160018.0824   -5150626.44245    194864.78661
  21348005.973   -14885723.701 6 -11423321.71121
 91  4 24 21 45 14.9960000  0  6G18G 2G11G19G16G 6
  23139440.2544   13393761.77645  10430390.89861
  20008234.5984  -20699605.18547 -16040981.95463
  22586690.0204   -6453130.65846  -4962690.15761
  20576862.8484   -1324521.36947  -1022463.67963
  23162140.3634   -5139438.36445    203582.60561
  21340108.0824  -14927240.07546 -11455672.07661
 91  4 24 21 45 29.9960000  0  6G18G 2G11G19G16G 6
  23147669.1524   13437005.47845  10464086.97061
  20003187.2774  -20726124.39447 -16061646.24064
  22590425.481    -6433491.115 6  -4947386.64221
  20578826.6294   -1314204.65647  -1014424.70963
  23164289.8244   -5128156.99445    212373.16261
  21332208.4964  -14968737.29346 -11488007.50861
 91  4 24 21 45 44.9960000  0  6G18G 2G11G19G16G 6
  23155904.1214   13480274.13045  10497802.48561
  19998156.5124  -20752566.76147 -16082250.65064
  22594188.738    -6413725.643 6  -4931984.99021
  20580800.652    -1303821.077 7  -1006333.63323
  23166453.6064   -5116784.96944    221234.35061
  21324316.723   -15010217.382 6 -11520329.59521
 91  4 24 21 45 59.9960000  0  6G18G 2G11G19G16G 6
  23164141.5984   13523564.38545  10531534.82161
  19993137.6684  -20778935.31247 -16102797.54063
  22597971.168    -6393837.413 6  -4916487.67721
  20582792.1214   -1293373.56747   -998192.74563
  23168631.6524   -5105324.97745    230164.06061
  21316424.7464  -15051683.15946 -11552640.52761
 91  4 24 21 46 14.9960000  0  6G18G 2G11G19G16G 6
  23172382.965    13566872.984 5  10565281.46621
  19988134.0744  -20805233.06347 -16123289.26563
  22601778.4264   -6373829.71946  -4900897.26661
  20584790.9414   -1282865.06547   -990004.33063
  23170832.0434   -5093781.05945    239159.17461
  21308536.5594  -15093137.65946 -11584942.67761
 91  4 24 21 46 29.9960000  0  6G18G 2G11G19G16G 6
  23180628.4734   13610203.22745  10599044.95961
  19983143.5044  -20831456.50447 -16143723.08464
  22605609.348    -6353699.271 6  -4885211.22221
  20586802.5434   -1272291.94747   -981765.57063
  23173047.4574   -5082149.74145    248222.41161
  21300650.410   -15134577.149 6 -11617233.13421
 91  4 24 21 46 44.9960000  0  6G18G 2G11G19G16G 6
  23188880.059    13653554.720 5  10632825.02321
  19978167.5744  -20857606.11247 -16164099.37364
  22609465.207    -6333446.653 6  -4869429.98121
  20588823.8014   -1261654.61447   -973476.76963
  23175265.9414   -5070431.78344    257353.15761
  21292768.4884  -15176001.95046 -11649512.14061
 91  4 24 21 46 59.9960000  0  5G18G 2G11G19G 6
  23197130.793    13696927.265 5  10666621.49521
  19973205.8404  -20883681.39147 -16184417.73564
  22613341.020    -6313071.853 6  -4853553.53221
  20590862.6994   -1250952.45746   -965137.45763
  21284890.0514  -15217411.45346 -11681779.22761
 91  4 24 21 47 14.9960000  0  5G18G 2G11G19G 6
  23205389.0824   13740316.58745  10700431.03361
  19968257.6064  -20909686.70347 -16204681.58564
  22617240.6294   -6292579.15746  -4837585.21361
  20592909.9344   -1240189.71347   -956750.92963
  21277011.356   -15258809.795 6 -11714037.61221
 91  4 24 21 47 29.9960000  0  5G18G 2G11G19G 6
  23213648.473    13783727.819 5  10734257.65921
  19963323.1844  -20935616.73647 -16224886.77264
  22621163.074    -6271963.575 6  -4821521.14521
  20594970.8164   -1229361.23647   -948313.18463
  21269135.051   -15300191.598 6 -11746283.11721
 91  4 24 21 47 44.9960000  0  5G18G 2G11G19G 6
  23221912.2314   13827156.27545  10768097.67261
  19958401.6764  -20961475.72447 -16245036.60464
  22625108.113    -6251229.564 6  -4805364.79121
  20597042.9104   -1218470.95747   -939827.28763
  21261262.2384  -15341560.87046 -11778518.85061
 91  4 24 21 47 59.9960000  0  5G18G 2G11G19G 6
  23230181.9024   13870607.13945  10801955.16861
  19953495.1914  -20987258.33947 -16265126.91964
  22629078.4814   -6230372.01446  -4789112.17961
  20599130.2464   -1207513.28946   -931288.87563
  21253394.262   -15382912.062 6 -11810740.50421
 91  4 24 21 48 14.9960000  0  5G18G 2G11G19G 6
  23238456.2074   13914076.35245  10835826.96361
  19948603.5124  -21012968.48547 -16285160.76463
  22633071.1764   -6209395.13046  -4772766.57861
  20601224.7154   -1196492.16247   -922701.01463
  21245526.8014  -15424249.12246 -11842951.14461
 91  4 24 21 48 29.9960000  0  5G18G 2G11G19G 6
  23246729.4574   13957563.74545  10869712.91461
  19943724.1134  -21038605.96147 -16305137.98364
  22637083.621    -6188298.792 6  -4756327.89021
  20603335.5354   -1185407.21046   -914063.42163
  21237664.981   -15465571.528 6 -11875150.35921
 91  4 24 21 48 44.9960000  0  5G18G 2G11G19G 6
  23255010.684    14001068.914 5  10903612.73721
  19938859.7384  -21064171.10047 -16325058.83164
  22641122.059    -6167083.564 6  -4739796.55421
  20605456.0204   -1174258.74247   -905376.34163
  21229803.191   -15506879.545 6 -11907338.37321
 91  4 24 21 48 59.9960000  0  5G18G 2G11G19G 6
  23263291.691    14044587.427 5  10937522.94421
  19934007.5904  -21089667.92947 -16344926.46164
  22645180.2854   -6145753.95146  -4723176.09061
  20607589.9654   -1163050.75346   -896642.87863
  21221946.434   -15548177.027 6 -11939518.17221
 91  4 24 21 49 14.9960000  0  5G18G 2G11G19G 6
  23271577.9574   14088122.16545  10971445.80661
  19929169.5594  -21115093.42947 -16364738.50764
  22649262.090    -6124306.956 6  -4706464.16021
  20609734.3324   -1151779.96246   -887860.47763
  21214088.9184  -15589460.88746 -11971687.35961
 91  4 24 21 49 29.9960000  0  5G18G 2G11G19G 6
  23279864.7854   14131678.47445  11005385.46261
  19924345.1994  -21140441.80647 -16384490.45764
  22653365.3404   -6102737.17446  -4689656.55361
  20611892.2624   -1140440.65046   -879024.68263
  21206237.074   -15630725.148 6 -12003841.28021
 91  4 24 21 49 44.9960000  0  5G18G 2G11G19G 6
  23288159.4344   14175255.88245  11039341.57461
  19919536.8164  -21165713.52447 -16404182.67164
  22657494.293    -6081045.297 6  -4672753.80821
  20614062.8874   -1129033.09146   -870135.70763
  21198389.3014  -15671970.20546 -12035980.22761
 91  4 24 21 49 59.9960000  0  5G18G 2G11G19G 6
  23296453.426    14218848.984 5  11073309.89321
  19914740.5824  -21190913.62447 -16423819.07664
  22661644.4264   -6059236.50446  -4655759.95361
  20616245.4734   -1117562.35446   -861197.50563
  21190542.082   -15713200.848 6 -12068107.94621
 91  4 24 21 50 14.9960000  0  5G18G 2G11G19G 6
  23304752.590    14262459.050 5  11107291.45321
  19909960.2384  -21216040.70947 -16443398.58964
  22665817.9884   -6037309.82746  -4638674.24861
  20618439.7464   -1106027.11546   -852209.04163
  21182699.1134  -15754415.59146 -12100223.27161
 91  4 24 21 50 29.9960000  0  5G18G 2G11G19G 6
  23313053.481    14306084.491 5  11141285.00421
  19905191.2384  -21241095.92547 -16462922.10164
  22670011.973    -6015266.611 6  -4621497.74321
  20620648.4414   -1094428.25746   -843171.01063
  21174860.1134  -15795615.33746 -12132326.90461
 91  4 24 21 50 44.9960000  0  5G18G 2G11G19G 6
  23321359.2854   14349724.33545  11175289.76361
  19900438.0274  -21266080.15047 -16482390.29164
  22674227.7464   -5993108.03846  -4604231.34961
  20622867.1844   -1082766.65446   -834084.08163
  21167020.973   -15836801.007 6 -12164419.58421
 91  4 24 21 50 59.9960000  0  4G 2G11G19G 6
  19895695.6374  -21290997.88747 -16501806.67764
  22678465.0124   -5970838.69846  -4586878.62661
  20625100.9414   -1071046.48746   -824951.52163
  21159188.066   -15877976.742 6 -12196504.52021
 91  4 24 21 51 14.9960000  0  4G 2G11G19G 6
  19890967.4344  -21315841.88647 -16521165.60964
  22682726.2314   -5948451.62946  -4569434.17761
  20627339.2544   -1059260.42546   -815767.61663
  21151355.770   -15919135.187 6 -12228575.97821
 91  4 24 21 51 29.9960000  0  4G 2G11G19G 6
  19886254.0824  -21340613.64747 -16540468.24764
  22687007.895    -5925948.430 6  -4551899.23221
  20629598.6914   -1047409.70546   -806533.32963
  21143524.277   -15960277.526 6 -12260634.89321
 91  4 24 21 51 44.9960000  0  4G 2G11G19G 6
  19881553.5514  -21365315.13747 -16559716.12864
  22691312.9574   -5903331.50946  -4534275.67061
  20631862.6764   -1035496.39246   -797250.26263
  21135698.012   -16001405.880 6 -12292682.90421
 91  4 24 21 51 59.9960000  0  4G 2G11G19G 6
  19876867.5744  -21389941.66947 -16578905.60364
  22695638.207    -5880596.357 6  -4516559.99721
  20634142.7624   -1023515.79146   -787914.76763
  21127876.941   -16042515.235 6 -12324716.11421
 91  4 24 21 52 14.9960000  0  4G 2G11G19G 6
  19872194.3954  -21414499.60447 -16598041.62764
  22699987.449    -5857749.473 6  -4498757.24421
  20636434.5664   -1011474.22646   -778531.75763
  21120055.988   -16083611.745 6 -12356739.32821
 91  4 24 21 52 29.9960000  0  4G 2G11G19G 6
  19867534.043   -21438988.534 7 -16617123.88224
  22704355.2774   -5834790.72546  -4480867.31861
  20638736.3634    -999370.99246   -769100.69563
  21112235.090   -16124694.827 6 -12388752.07421
 91  4 24 21 52 44.9960000  0  4G 2G11G19G 6
  19862888.3564  -21463402.33747 -16636147.60064
  22708745.4494   -5811714.43346  -4462885.81061
  20641052.9964    -987200.03046   -759616.86663
  21104423.457   -16165758.323 6 -12420749.55021
 91  4 24 21 52 59.9960000  0  4G 2G11G19G 6
  19858255.6454  -21487741.71647 -16655113.32664
  22713159.8564   -5788521.44346  -4444813.36761
  20643383.5514    -974961.95246   -750080.73363
  21096612.207   -16206802.932 6 -12452732.30621
 91  4 24 21 53 14.9960000  0  4G 2G11G19G 6
  19853637.9884  -21512012.54447 -16674025.62364
  22717593.816    -5765217.923 6  -4426654.79821
  20645721.9494    -962662.49246   -740496.76663
  21088804.2234  -16247834.19746 -12484704.66761
 91  4 24 21 53 29.9960000  0  4G 2G11G19G 6
  19849032.6134  -21536211.45447 -16692881.89164
  22722050.746    -5741800.658 6  -4408407.59821
  20648076.7154    -950298.12846   -730862.23163
  21080999.918   -16288848.486 6 -12516663.79321
 91  4 24 21 53 44.9960000  0  4G 2G11G19G 6
  19844441.3634  -21560338.88347 -16711682.46064
  22726528.449    -5718270.425 6  -4390072.37121
  20650441.1374    -937869.32146   -721177.48263
  21073198.8244  -16329846.26346 -12548610.05961
 91  4 24 21 53 59.9960000  0  4G 2G11G19G 6
  19839863.1064  -21584398.04247 -16730429.82764
  22731028.1294   -5694630.51546  -4371651.67561
  20652821.3324    -925379.05046   -711444.84263
  21065399.223   -16370830.393 6 -12580545.69021
 91  4 24 21 54 14.9960000  0  4G 2G11G19G 6
  19835298.9964  -21608386.78747 -16749122.32964
  22735545.449    -5670879.203 6  -4353144.18021
  20655206.4024    -912825.22446   -701662.67763
  21057602.512   -16411798.716 6 -12612469.00921
 91  4 24 21 54 29.9960000  0  4G 2G11G19G 6
  19830745.5514  -21632309.18547 -16767763.13264
  22740088.051    -5647020.755 5  -4334553.19621
  20657608.8014    -900211.89146   -691834.14063
  21049810.387   -16452755.108 6 -12644383.02821
 91  4 24 21 54 44.9960000  0  4G 2G11G19G 6
  19826208.1524  -21656158.12447 -16786346.68764
  22744650.527    -5623048.184 5  -4315873.28721
  20660019.6214    -887531.61946   -681953.44263
  21042019.652   -16493692.103 6 -12676281.93521
 91  4 24 21 54 59.9960000  0  4G 2G11G19G 6
  19821682.9814  -21679932.88247 -16804872.44464
  22749232.5594   -5598961.05945  -4297104.12461
  20662445.7544    -874783.53046   -672019.90263
  21034232.184   -16534608.902 6 -12708165.09921
 91  4 24 21 55 14.9960000  0  4G 2G11G19G 6
  19817173.0514  -21703639.59947 -16823345.18164
  22753835.8794   -5574765.77045  -4278250.66061
  20664883.1294    -861973.87546   -662038.39163
  21026450.637   -16575511.495 6 -12740037.19721
 91  4 24 21 55 29.9960000  0  4G 2G11G19G 6
  19812675.332   -21727272.954 7 -16841760.75324
  22758461.988    -5550457.252 5  -4259308.97521
  20667334.9184    -849097.15846   -652004.62163
  21018669.582   -16616394.348 6 -12771893.91121
 91  4 24 21 55 44.9960000  0  4G 2G11G19G 6
  19808190.6524  -21750836.42947 -16860121.87764
  22763107.6684   -5526039.31545  -4240282.02661
  20669795.0984    -836156.90046   -641921.34163
  21010892.160   -16657260.929 6 -12803737.94621
 91  4 24 21 55 59.9960000  0  4G 2G11G19G 6
  19803720.9414  -21774328.06547 -16878427.01964
  22767778.9964   -5501510.26045  -4221168.47961
  20672270.3484    -823150.93846   -631786.86363
  21003119.6454  -16698109.06546 -12835567.60561
 91  4 24 21 56 14.9960000  0  4G 2G11G19G 6
  19799263.7464  -21797749.86047 -16896677.73864
  22772466.5984   -5476872.24145  -4201970.03161
  20674757.4184    -810081.14446   -621602.64663
  20995350.5044  -16738940.38646 -12867384.16261
 91  4 24 21 56 29.9960000  0  4G 2G11G19G 6
  19794820.1524  -21821100.23647 -16914872.80764
  22777175.4494   -5452124.02245  -4182685.71461
  20677258.0664    -796945.88346   -611367.41563
  20987582.059   -16779753.316 6 -12899186.39521
 91  4 24 21 56 44.9960000  0  4G 2G11G19G 6
  19790389.8164  -21844382.37347 -16933014.70664
  22781904.6454   -5427269.03545  -4163318.20161
  20679769.012     -783748.272 6   -601083.60123
  20979820.168   -16820550.762 6 -12930976.55421
 91  4 24 21 56 59.9960000  0  4G 2G11G19G 6
  19785972.7774  -21867595.81047 -16951103.07064
  22786654.402    -5402307.233 5  -4143867.46521
  20682292.8484    -770487.83846   -590750.83463
  20972056.106   -16861332.210 6 -12962754.25121
 91  4 24 21 57 14.9960000  0  4G 2G11G19G 6
  19781567.645   -21890743.452 7 -16969140.16724
  22791424.0594   -5377241.50445  -4124335.72761
  20684827.6374    -757167.14246   -580371.11063
  20964300.1684  -16902100.23546 -12994521.48261
 91  4 24 21 57 29.9960000  0  4G 2G11G19G 6
  19777176.0664  -21913819.82747 -16987121.73064
  22796214.9734   -5352066.75745  -4104719.05161
  20687374.6374    -743780.86046   -569940.28263
  20956546.4814  -16942849.33346 -13026273.96061
 91  4 24 21 57 44.9960000  0  4G 2G11G19G 6
  19772797.2774  -21936832.11147 -17005053.35364
  22801026.3564   -5326790.31645  -4085023.12961
  20689931.551     -730336.019 6   -559463.82523
  20948795.6994  -16983586.40546 -13058017.07761
 91  4 24 21 57 59.9960000  0  4G 2G11G19G 6
  19768429.2234  -21959776.62547 -17022932.16764
  22805854.441    -5301408.833 5  -4065245.35721
  20692503.8874    -716828.74046   -548938.71263
  20941044.8794  -17024307.65846 -13089747.85961
 91  4 24 21 58 14.9960000  0  4G 2G11G19G 6
  19764078.6684  -21982646.14247 -17040752.54164
  22810708.2314   -5275915.30245  -4045380.27561
  20695087.8954    -703251.75746   -538359.28563
  20933302.5434  -17065005.63946 -13121460.51761
 91  4 24 21 58 29.9960000  0  4G 2G11G19G 6
  19759739.9734  -22005447.77947 -17058520.02264
  22815575.1294   -5250317.14745  -4025433.66761
  20697685.246     -689612.151 6   -527731.06923
  20925558.473   -17105687.229 6 -13153160.40321
 91  4 24 21 58 44.9960000  0  4G 2G11G19G 6
  19755412.5664  -22028181.76847 -17076234.78964
  22820469.5984   -5224614.89745  -4005405.94861
  20700290.5984    -675910.10546   -517054.19063
  20917820.9964  -17146352.70046 -13184847.72461
 91  4 24 21 58 59.9960000  0  4G 2G11G19G 6
  19751101.5124  -22050843.69847 -17093893.41164
  22825381.316    -5198804.334 5  -3985293.83921
  20702911.020     -662141.022 6   -506325.07723
  20910086.574   -17186997.266 6 -13216518.75821
 91  4 24 21 59 14.9960000  0  4G 2G11G19G 6
  19746801.8794  -22073434.77247 -17111496.81464
  22830312.770    -5172886.767 5  -3965098.34221
  20705542.895     -648305.934 6   -495544.53023
  20902354.762   -17227621.960 6 -13248174.31221
 91  4 24 21 59 29.9960000  0  4G 2G11G19G 6
  19742516.4574  -22095957.49847 -17129046.96264
  22835265.2384   -5146865.04445  -3944821.68561
  20708188.8794    -634407.26546   -484714.43963
  20894628.6684  -17268229.05746 -13279816.14662
 91  4 24 21 59 44.9960000  0  4G 2G11G19G 6
  19738244.3484  -22118408.31147 -17146541.07464
  22840233.8014   -5120735.81945  -3924461.26161
  20710845.887     -620441.406 6   -473831.99523
  20886904.8874  -17308814.85946 -13311441.38961
 91  4 24 21 59 59.9960000  0  4G 2G11G19G 6
  19733985.6134  -22140782.83347 -17163975.73664
  22845227.2934   -5094495.23945  -3904014.05861
  20713517.434     -606404.196 6   -462893.95223
  20879187.426   -17349375.044 6 -13343046.67021
 91  4 24 22  0 14.9960000  0  4G 2G11G19G 6
  19729741.7774  -22163091.10147 -17181358.77764
  22850239.6764   -5068153.47245  -3883488.01061
  20716198.699     -592305.405 6   -451907.92523
  20871471.941   -17389919.221 6 -13374639.48321
 91  4 24 22  0 29.9960000  0  4G 2G11G19G 6
  19725509.3094  -22185330.67447 -17198688.28664
  22855277.8094   -5041708.27645  -3862881.36261
  20718895.754     -578142.503 6   -440871.94123
  20863760.207   -17430444.718 6 -13406217.73721
 91  4 24 22  0 44.9960000  0  4G 2G11G19G 6
  19721289.738   -22207502.730 7 -17215965.18624
  22860327.4964   -5015161.29345  -3842195.41961
  20721600.590     -563916.546 6   -429786.82923
  20856051.2934  -17470952.66846 -13437782.31761
 91  4 24 22  0 59.9960000  0  4G 2G11G19G 6
  19717082.449   -22229607.513 7 -17233189.66624
  22865399.0904   -4988512.99245  -3821430.51261
  20724320.535     -549627.666 6   -418652.68523
  20848345.6604  -17511443.05946 -13469333.20761
 91  4 24 22  1 14.9960000  0  4G 2G11G19G 6
  19712890.9264  -22251642.19147 -17250359.51664
  22870487.106    -4961760.652 5  -3800584.55121
  20727051.434     -535272.903 6   -407467.19923
  20840646.3094  -17551912.89946 -13500868.08761
 91  4 24 22  1 29.9960000  0  4G 2G11G19G 6
  19708709.9814  -22273609.52847 -17267476.89864
  22875595.3164   -4934907.41144  -3779659.94961
  20729797.738     -520854.947 6   -396232.47823
  20832946.910   -17592364.863 6 -13532389.04721
 91  4 24 22  1 44.9960000  0  4G 2G11G19G 6
  19704542.988   -22295509.831 7 -17284542.04124
  22880729.0434   -4907953.92644  -3758657.23661
  20732550.496     -506374.124 6   -384948.76723
  20825251.949   -17632799.087 6 -13563896.17722
 91  4 24 22  1 59.9960000  0  4G 2G11G19G 6
  19700388.004   -22317342.691 7 -17301554.63824
  22885874.3874   -4880899.87544  -3737576.16661
  20735320.324     -491829.912 6   -373615.66523
  20817561.082   -17673214.718 6 -13595388.83022
 91  4 24 22  2 14.9960000  0  4G 2G11G19G 6
  19696247.574   -22339104.855 7 -17318512.14524
  22891040.348    -4853742.164 4  -3716414.33021
  20738099.793     -477218.808 6   -362230.42923
  20809875.910   -17713608.318 6 -13626864.30822
 91  4 24 22  2 29.9960000  0  4G 2G11G19G 6
  19692117.598   -22360800.541 7 -17335417.85124
  22896228.6064   -4826485.55044  -3695175.41061
  20740893.035     -462545.099 6   -350796.42123
  20802192.871   -17753984.059 6 -13658325.86721
 91  4 24 22  2 44.9960000  0  4G 2G11G19G 6
  19688002.4654  -22382429.44947 -17352271.51164
  22901436.1914   -4799129.96945  -3673859.37961
  20743695.965     -447808.458 6   -339313.37223
  20794513.020   -17794341.510 6 -13689773.17721
 91  4 24 22  2 59.9960000  0  4G 2G11G19G 6
  19683899.035   -22403988.051 7 -17369070.40124
  22906658.8874   -4771672.11344  -3652463.64961
  20746514.426     -433005.266 6   -327778.46023
  20786837.348   -17834676.838 6 -13721203.25221
 91  4 24 22  3 14.9960000  0  4G 2G11G19G 6
  19679809.379   -22425477.834 7 -17385815.66524
  22911903.8324   -4744113.62544  -3630989.50761
  20749342.652     -418136.827 6   -316192.71123
  20779165.184   -17874991.347 6 -13752617.10321
 91  4 24 22  3 29.9960000  0  4G 2G11G19G 6
  19675734.535   -22446896.010 7 -17402505.12724
  22917169.059    -4716451.970 4  -3609434.98521
  20752188.965     -403200.043 6   -304553.70723
  20771498.324   -17915281.807 6 -13784012.21921
 91  4 24 22  3 44.9960000  0  4G 2G11G19G 6
  19671670.2934  -22468246.86847 -17419142.12764
  22922451.832    -4688691.885 4  -3587803.75221
  20755039.106     -388199.286 6   -292864.85023
  20763835.004   -17955552.506 6 -13815391.93722
 91  4 24 22  3 59.9960000  0  4G 2G11G19G 6
  19667622.066   -22489528.605 7 -17435725.27524
  22927752.7464   -4660831.65544  -3566094.49561
  20757910.863     -373132.958 6   -281124.90223
  20756175.184   -17995801.590 6 -13846754.81522
 91  4 24 22  4 14.9960000  0  4G 2G11G19G 6
  19663585.809   -22510742.992 7 -17452255.93924
  22933074.1064   -4632873.21344  -3544308.70661
  20760785.629     -358002.285 6   -269334.81123
  20748519.785   -18036030.345 6 -13878101.84522
 91  4 24 22  4 29.9960000  0  4G 2G11G19G 6
  19659559.910   -22531891.329 7 -17468735.14124
  22938414.3404   -4604818.30045  -3522447.72761
  20763678.434     -342808.583 6   -257495.61123
  20740867.895   -18076240.057 6 -13909434.03422
 91  4 24 22  4 44.9960000  0  4G 2G11G19G 6
  19655549.457   -22552969.725 7 -17485159.84124
  22943767.6844   -4576663.34445  -3500508.80061
  20766581.051     -327547.991 6   -245604.29023
  20733221.176   -18116426.613 6 -13940748.17721
 91  4 24 22  4 59.9960000  0  4G 2G11G19G 6
  19651550.520   -22573976.768 7 -17501528.94324
  22949147.0124   -4548407.12544  -3478490.96761
  20769497.957     -312219.081 6   -233659.73122
  20725577.941   -18156588.359 6 -13972042.99922
 91  4 24 22  5 14.9960000  0  4G 2G11G19G 6
  19647566.582   -22594916.620 7 -17517845.68424
  22954540.5514   -4520054.15845  -3456397.74961
  20772426.754     -296825.911 6   -221665.10722
  20717939.887   -18196729.365 6 -14003321.64922
 91  4 24 22  5 29.9960000  0  4G 2G11G19G 6
  19643595.0124  -22615793.34647 -17534113.23964
  22959958.4814   -4491608.79845  -3434232.52361
  20775370.465     -281372.373 6   -209623.43522
  20710305.074   -18236853.403 6 -14034587.09022
 91  4 24 22  5 44.9960000  0  4G 2G11G19G 6
  19639634.6914  -22636603.21647 -17550328.68964
  22965384.988    -4463067.623 4  -3411992.66321
  20778320.856     -265854.765 6   -197531.84022
  20702672.9494  -18276956.63146 -14065836.30062
 91  4 24 22  5 59.9960000  0  4G 2G11G19G 6
  19635688.3954  -22657341.04147 -17566488.00764
  22970837.4574   -4434425.64445  -3389674.25261
  20781291.059     -250267.718 6   -185386.13322
  20695048.270   -18317033.610 6 -14097065.05822
 91  4 24 22  6 14.9960000  0  4G 2G11G19G 6
  19631754.9494  -22678012.38147 -17582595.51364
  22976301.1374   -4405688.65145  -3367281.80361
  20784265.637     -234616.704 6   -173190.58322
  20687423.887   -18357089.727 6 -14128277.56622
 91  4 24 22  6 29.9960000  0  4G 2G11G19G 6
  19627833.5824  -22698613.88347 -17598648.60264
  22981789.3954   -4376853.57344  -3344812.91561
  20787261.363     -218898.474 6   -160942.66023
  20679806.590   -18397121.360 6 -14159470.99521
 91  4 24 22  6 44.9960000  0  4G 2G11G19G 6
  19623924.5514  -22719156.65347 -17614655.92464
  22987293.1374   -4347931.62444  -3322276.32661
  20790257.348     -203123.870 6   -148650.81522
  20672192.0594  -18437139.45546 -14190653.87062
 91  4 24 22  6 59.9960000  0  4G 2G11G19G 6
  19620029.2464  -22739629.90847 -17630609.08264
  22992816.3634   -4318912.33144  -3299663.89861
  20793275.902     -187281.978 6   -136306.53322
  20664579.129   -18477132.733 6 -14221817.40621
 91  4 24 22  7 14.9960000  0  4G 2G11G19G 6
  19616145.0354  -22760039.05347 -17646512.28164
  22998356.1454   -4289801.47044  -3276980.11661
  20796299.184     -171378.075 6   -123913.92922
  20656973.512   -18517106.688 6 -14252965.89122
 91  4 24 22  7 29.9960000  0  4G 2G11G19G 6
  19612273.7544  -22780379.09847 -17662361.63964
  23003917.2464   -4260594.37244  -3254221.32861
  20799339.4574    -155407.31446   -111469.23262
  20649371.762   -18557056.225 6 -14284095.34521
 91  4 24 22  7 44.9960000  0  4G 2G11G19G 6
  19608416.8794  -22800650.58647 -17678157.57464
  23009488.824    -4231291.944 4  -3231388.29121
  20802391.512     -139370.125 6    -98972.77722
  20641774.004   -18596981.595 6 -14315205.97222
 91  4 24 22  7 59.9960000  0  4G 2G11G19G 6
  19604572.3634  -22820853.62847 -17693900.17164
  23015085.215    -4201894.400 5  -3208481.14521
  20805458.676     -123266.452 6    -86424.51222
  20634180.012   -18636882.464 6 -14346297.50322
 91  4 24 22  8 14.9960000  0  4G 2G11G19G 6
  19600741.6524  -22840987.37347 -17709588.77564
  23020697.731    -4172401.158 5  -3185499.38021
  20808531.2464    -107095.13646    -73823.54262
  20626594.3564  -18676757.85546 -14377369.18361
 91  4 24 22  8 29.9960000  0  4G 2G11G19G 6
  19596922.2854  -22861051.74247 -17725223.31664
  23026328.613    -4142812.592 5  -3162443.35921
  20811625.137      -90856.426 6    -61170.05922
  20619010.199   -18716607.679 6 -14408420.93322
 91  4 24 22  8 44.9960000  0  4G 2G11G19G 6
  19593117.2624  -22881050.98947 -17740807.11864
  23031977.676    -4113132.950 5  -3139316.35221
  20814725.066      -74554.066 6    -48466.97122
  20611432.0204  -18756435.64546 -14439455.65362
 91  4 24 22  8 59.9960000  0  4G 2G11G19G 6
  19589324.3164  -22900980.01647 -17756336.20064
  23037641.6524   -4083357.52545  -3116114.71861
  20817841.348      -58183.117 6    -35710.44522
  20603857.9814  -18796236.68246 -14470469.38662
 91  4 24 22  9 14.9960000  0  4G 2G11G19G 6
  19585545.4574  -22920839.50547 -17771811.09464
  23043324.9344   -4053487.14045  -3092839.10361
  20820969.1294     -41744.14446    -22900.90962
  20596287.3164  -18836011.09746 -14501462.38062
 91  4 24 22  9 29.9960000  0  4G 2G11G19G 6
  19581780.1374  -22940628.52447 -17787231.08064
  23049029.5984   -4023521.30545  -3069489.09061
  20824111.129      -25236.144 6    -10037.58722
  20588724.2234  -18875757.86846 -14532433.82862
 91  4 24 22  9 44.9960000  0  4G 2G11G19G 6
  19578026.8954  -22960349.85247 -17802598.31964
  23054747.731    -3993463.119 5  -3046067.11421
  20827264.324       -8661.951 6      2877.31722
  20581165.6454  -18915479.62446 -14563385.78662
 91  4 24 22  9 59.9960000  0  4G 2G11G19G 6
  19574287.4184  -22980006.26147 -17817914.97364
  23060485.2854   -3963315.70545  -3022575.62261
  20830431.082        7975.833 6     15841.76422
  20573610.4734  -18955178.96546 -14594320.27662
 91  4 24 22 10 14.9960000  0  4G 2G11G19G 6
  19570558.1994  -22999597.10547 -17833180.53764
  23066241.691    -3933078.631 5  -2999014.24821
  20833608.4734      24677.88746     28856.29562
  20566061.0744  -18994854.93846 -14625236.55562
 91  4 24 22 10 29.9960000  0  4G 2G11G19G 6
  19566844.1524  -23019119.65347 -17848392.88964
  23072008.863    -3902749.347 5  -2975381.03021
  20836800.457       41447.138 6     41923.18822
  20558516.4654  -19034504.42746 -14656132.20362
 91  4 24 22 10 44.9960000  0  4G 2G11G19G 6
  19563141.2154  -23038573.19847 -17863551.46364
  23077800.6294   -3872327.30745  -2951675.52561
  20840004.199       58284.357 6     55043.04422
  20550975.3874  -19074126.59546 -14687006.56462
 91  4 24 22 10 59.9960000  0  4G 2G11G19G 6
  19559451.0744  -23057964.76147 -17878661.74664
  23083606.6684   -3841819.85445  -2927903.48661
  20843222.1844      75182.57546     68210.43062
  20543440.637   -19113728.203 6 -14717864.90522
 91  4 24 22 11 14.9960000  0  4G 2G11G19G 6
  19555773.2234  -23077294.44147 -17893723.80564
  23089424.801    -3811227.466 5  -2904065.25221
  20846445.449       92141.615 6     81425.21422
  20535907.3794  -19153309.24746 -14748707.21662
 91  4 24 22 11 29.9960000  0  4G 2G11G19G 6
  19552106.3324  -23096561.06947 -17908736.73364
  23095266.4814   -3780549.34445  -2880160.21461
  20849688.0664     109162.80546     94688.42162
  20528378.4884  -19192868.35246 -14779532.43462
 91  4 24 22 11 44.9950000  0  4G 2G11G19G 6
  19548454.3434  -23115761.31947 -17923697.94164
  23101119.3514   -3749785.55945  -2856188.43461
  20852937.241      126247.264 6    108000.93922
  20520857.0854  -19232400.43146 -14810336.59162
 91  4 24 22 11 59.9950000  0  4G 2G11G19G 6
  19544811.241   -23134899.363 7 -17938610.68024
  23106989.5774   -3718933.94345  -2832148.21061
  20856201.148      143395.706 6    121363.30622
  20513338.4994  -19271912.28146 -14841124.97862
 91  4 24 22 12 14.9950000  0  4G 2G11G19G 6
  19541182.1014  -23153971.40847 -17953471.98564
  23112878.2574   -3687994.38545  -2808039.45461
  20859475.7184     160609.60746    134776.68262
  20505826.1944  -19311398.47746 -14871893.38762
 91  4 24 22 12 29.9950000  0  4G 2G11G19G 6
  19537566.366   -23172973.493 7 -17968278.78124
  23118783.6874   -3656963.29945  -2783859.40261
  20862766.6714     177892.90846    148244.12962
  20498315.0154  -19350854.77946 -14902638.49562
 91  4 24 22 12 44.9950000  0  4G 2G11G19G 6
  19533962.952   -23191907.321 8 -17983032.38624
  23124705.2334   -3625842.57245  -2759609.47861
  20866064.898      195243.919 6    161764.34122
  20490814.2884  -19390282.82746 -14933361.59062
 91  4 24 22 12 59.9950000  0  4G 2G11G19G 6
  19530372.437   -23210776.305 8 -17997735.46424
  23130644.7884   -3594635.93945  -2735292.63161
  20869383.819      212659.443 6    175334.83122
  20483313.7734  -19429685.80346 -14964065.14862
 91  4 24 22 13 14.9950000  0  4G 2G11G19G 6
  19526793.702   -23229581.221 7 -18012388.61824
  23136595.304    -3563344.537 5  -2710909.73821
  20872707.562      230138.649 6    188954.94022
  20475819.569   -19469064.294 6 -14994749.63022
 91  4 24 22 13 29.9950000  0  4G 2G11G19G 6
  19523228.132   -23248319.957 7 -18026990.20824
  23142566.390    -3531966.472 5  -2686459.31521
  20876047.069      247683.810 6    202626.43622
  20468333.0234  -19508415.85746 -15025413.13062
 91  4 24 22 13 44.9950000  0  4G 2G11G19G 6
  19519674.421   -23266989.807 7 -18041538.11824
  23148554.4214   -3500499.28445  -2661939.43761
  20879397.663      265297.656 6    216351.45922
  20460851.069   -19547737.606 6 -15056053.39322
 91  4 24 22 13 59.9950000  0  4G 2G11G19G 6
  19516136.2024  -23285592.16548 -18056033.43463
  23154562.1794   -3468944.61645  -2637351.35561
  20882762.6554     282978.90946    230128.99962
  20453372.6084  -19587030.72946 -15086671.35462
 91  4 24 22 14 14.9950000  0  4G 2G11G19G 6
  19512607.3194  -23304131.59847 -18070479.71663
  23160582.132    -3437307.341 5  -2612698.88721
  20886137.358      300723.051 6    243955.55122
  20445900.9764  -19626299.46446 -15117270.31562
 91  4 24 22 14 29.9950000  0  4G 2G11G19G 6
  19509091.249   -23322605.827 7 -18084875.19323
  23166618.694    -3405585.459 5  -2587980.52821
  20889528.866      318532.482 6    257832.97722
  20438433.163   -19665541.359 6 -15147848.35322
 91  4 24 22 14 44.9950000  0  4G 2G11G19G 6
  19505589.4834  -23341013.19147 -18099218.56764
  23172669.7884   -3373777.60845  -2563195.18961
  20892928.937      336408.855 6    271762.56222
  20430973.0624  -19704754.46646 -15178403.96462
 91  4 24 22 14 59.9950000  0  4G 2G11G19G 6
  19502099.163   -23359353.080 7 -18113509.36323
  23178738.9374   -3341883.50345  -2538342.63261
  20896345.8824     354352.86846    285744.85262
  20423513.7104  -19743938.00546 -15208936.53662
 91  4 24 22 15 14.9950000  0  4G 2G11G19G 6
  19498622.038   -23377623.369 7 -18127745.92823
  23184825.3274   -3309901.22745  -2513421.37261
  20899771.765      372366.769 6    299781.60322
  20416064.1404  -19783089.60746 -15239444.21662
 91  4 24 22 15 29.9950000  0  4G 2G11G19G 6
  19495159.0234  -23395826.84948 -18141930.43363
  23190928.8584   -3277833.88245  -2488433.84061
  20903213.2104     390447.83646    313870.68962
  20408618.9684  -19822211.81146 -15269928.99462
 91  4 24 22 15 44.9950000  0  4G 2G11G19G 6
  19491707.3744  -23413962.24748 -18156061.88563
  23197046.1244   -3245680.47245  -2463379.23461
  20906666.5694     408597.37746    328013.12862
  20401179.616   -19861303.113 6 -15300389.69522
 91  4 24 22 15 59.9950000  0  4G 2G11G19G 6
  19488268.679   -23432032.008 8 -18170142.19723
  23203181.5384   -3213443.57245  -2438259.59561
  20910137.6244     426813.07846    342207.12362
  20393748.366   -19900365.638 6 -15330827.97822
 91  4 24 22 16 14.9950000  0  3G 2G19G 6
  19484843.155   -23450037.705 8 -18184172.58123
  20913611.1874     445093.28546    356451.38562
  20386318.765   -19939400.711 6 -15361244.86122
 91  4 24 22 16 29.9950000  0  3G 2G19G 6
  19481427.960   -23467981.411 8 -18198154.66823
  20917106.2494     463436.29246    370744.57562
  20378895.296   -19978410.273 6 -15391641.86622
 91  4 24 22 16 44.9950000  0  3G 2G19G 6
  19478025.757   -23485860.139 8 -18212086.12323
  20920605.2184     481844.93146    385088.91062
  20371479.515   -20017391.077 6 -15422016.46422
 91  4 24 22 16 59.9950000  0  3G 2G19G 6
  19474636.655   -23503670.670 8 -18225964.43423
  20924122.5074     500322.59746    399487.02862
  20364066.5934  -20056339.73846 -15452366.00962
 91  4 24 22 17 14.9950000  0  3G 2G19G 6
  19471260.530   -23521412.363 8 -18239789.10523
  20927650.3664     518869.98146    413939.47762
  20356660.327   -20095255.179 6 -15482689.68122
 91  4 24 22 17 29.9950000  0  3G 2G19G 6
  19467895.757   -23539091.522 8 -18253565.04623
  20931192.1714     537480.60946    428441.20262
  20349259.843   -20134143.658 6 -15512992.33722
 91  4 24 22 17 44.9950000  0  3G 2G19G 6
  19464542.546   -23556709.610 8 -18267293.40523
  20934745.1944     556153.31546    442991.30262
  20341865.819   -20173006.475 6 -15543275.00322
 91  4 24 22 17 59.9950000  0  3G 2G19G 6
  19461202.827   -23574260.122 8 -18280969.10323
  20938314.6484     574894.78746    457594.98662
  20334474.468   -20211836.584 6 -15573532.18222
 91  4 24 22 18 14.9950000  0  3G 2G19G 6
  19457876.155   -23591743.144 8 -18294592.21423
  20941890.9134     593705.06146    472252.28162
  20327091.976   -20250633.901 6 -15603763.80722
 91  4 24 22 18 29.9950000  0  3G 2G19G 6
  19454560.515   -23609167.209 8 -18308169.38223
  20945486.507      612575.372 6    486956.36222
  20319714.601   -20289406.903 6 -15633976.49022
 91  4 24 22 18 44.9950000  0  3G 2G19G 6
  19451257.077   -23626526.836 8 -18321696.34123
  20949086.2734     631511.20046    501711.49362
  20312341.749   -20328149.923 6 -15664165.80222
 91  4 24 22 18 59.9950000  0  3G 2G19G 6
  19447966.023   -23643819.509 8 -18335171.12923
  20952707.1944     650515.49046    516519.96162
  20304975.038   -20366859.895 6 -15694329.37122
 91  4 24 22 19 14.9950000  0  3G 2G19G 6
  19444687.921   -23661045.927 8 -18348594.29023
  20956332.4994     669587.45246    531381.17062
  20297614.538   -20405537.368 6 -15724467.61022
 91  4 24 22 19 29.9950000  0  3G 2G19G 6
  19441422.694   -23678206.035 8 -18361965.78423
  20959977.3354     688727.10646    546295.11962
  20290262.7184  -20444182.28046 -15754580.48962
 91  4 24 22 19 44.9950000  0  3G 2G19G 6
  19438168.585   -23695305.966 8 -18375290.38423
  20963627.3984     707928.51446    561257.19362
  20282914.460   -20482800.266 6 -15784672.37422
 91  4 24 22 19 59.9950000  0  3G 2G19G 6
  19434926.132   -23712343.082 8 -18388566.04023
  20967294.8514     727194.44146    576269.54262
  20275571.241   -20521388.474 7 -15814741.06022
 91  4 24 22 20 14.9950000  0  3G 2G19G 6
  19431697.046   -23729313.174 8 -18401789.46823
  20970972.9604     746529.03246    591335.39662
  20268231.968   -20559942.473 6 -15844783.09122
 91  4 24 22 20 29.9950000  0  3G 2G19G 6
  19428480.226   -23746217.093 8 -18414961.33823
  20974668.8514     765931.31546    606453.99662
  20260902.273   -20598462.928 6 -15874798.99122
 91  4 24 22 20 44.9950000  0  3G 2G19G 6
  19425277.187   -23763050.294 8 -18428078.09423
  20978371.7184     785406.01146    621629.01862
  20253578.413   -20636944.991 6 -15904784.96622
 91  4 24 22 20 59.9950000  0  3G 2G19G 6
  19422086.140   -23779819.027 8 -18441144.62823
  20982093.0384     804946.87346    636855.60762
  20246263.898   -20675394.802 6 -15934745.81222
 91  4 24 22 21 14.9950000  0  3G 2G19G 6
  19418906.702   -23796526.527 8 -18454163.44223
  20985821.4604     824551.00846    652131.49062
  20238952.148   -20713815.337 6 -15964683.84722
 91  4 24 22 21 29.9950000  0  3G 2G19G 6
  19415739.343   -23813172.821 7 -18467134.56623
  20989566.8194     844218.35546    667456.63562
  20231646.679   -20752206.172 7 -15994598.73822
 91  4 24 22 21 44.9950000  0  3G 2G19G 6
  19412584.405   -23829751.379 7 -18480052.90523
  20993320.2104     863955.48246    682836.15162
  20224346.819   -20790560.616 6 -16024485.27022
 91  4 24 22 21 59.9950000  0  3G 2G19G 6
  19409441.819   -23846264.953 7 -18492920.60623
  20997088.9134     883759.69646    698267.94462
  20217057.983   -20828881.267 7 -16054345.47422
 91  4 24 22 22 14.9950000  0  3G 2G19G 6
  19406311.413   -23862714.672 7 -18505738.55223
  21000869.8584     903629.83146    713751.10662
  20209771.0854  -20867168.87146 -16084179.93162
 91  4 24 22 22 29.9950000  0  3G 2G19G 6
  19403193.718   -23879102.990 8 -18518508.65123
  21004664.9914     923563.53746    729283.80962
  20202489.7264  -20905425.66547 -16113990.38362
 91  4 24 22 22 44.9950000  0  3G 2G19G 6
  19400087.632   -23895428.231 7 -18531229.60423
  21008466.9914     943562.64146    744867.46362
  20195215.733   -20943649.623 7 -16143775.24122
 91  4 24 22 22 59.9950000  0  3G 2G19G 6
  19396991.773   -23911692.218 7 -18543902.81923
  21012287.4834     963625.18646    760500.55462
  20187948.054   -20981842.517 7 -16173535.89622
 91  4 24 22 23 14.9950000  0  3G 2G19G 6
  19393908.640   -23927892.966 7 -18556526.75823
  21016116.7184     983753.14446    776184.61762
  20180686.9914  -21020002.11346 -16203270.60562
 91  4 24 22 23 29.9950000  0  3G 2G19G 6
  19390838.116   -23944026.917 7 -18569098.64923
  21019963.9374    1003950.28446    791922.58562
  20173432.0304  -21058124.56546 -16232976.37662
 91  4 24 22 23 44.9950000  0  3G 2G19G 6
  19387779.757   -23960102.596 7 -18581625.13023
  21023814.4294    1024208.23146    807707.93862
  20166183.3904  -21096218.08947 -16262659.59862
 91  4 24 22 23 59.9950000  0  3G 2G19G 6
  19384731.866   -23976118.425 7 -18594104.97523
  21027684.0544    1044528.64446    823541.96062
  20158939.148   -21134280.889 7 -16292318.88022
 91  4 24 22 24 14.9950000  0  3G 2G19G 6
  19381696.655   -23992068.452 7 -18606533.54123
  21031561.4524    1064917.72446    839429.49262
  20151703.491   -21172306.616 6 -16321949.27122
 91  4 24 22 24 29.9950000  0  3G 2G19G 6
  19378674.476   -24007953.373 7 -18618911.37923
  21035456.4914    1085374.56046    855369.82262
  20144473.483   -21210295.723 6 -16351551.12922
 91  4 24 22 24 44.9950000  0  3G 2G19G 6
  19375660.741   -24023779.001 7 -18631243.01623
  21039359.6484    1105893.47746    871358.52162
  20137250.257   -21248253.832 7 -16381128.83122
 91  4 24 22 24 59.9950000  0  3G 2G19G 6
  19372662.905   -24039539.838 7 -18643524.16223
  21043279.5624    1126480.06446    887399.94962
  20130034.538   -21286175.081 7 -16410677.81522
 91  4 24 22 25 14.9950000  0  3G 2G19G 6
  19369675.538   -24055238.530 7 -18655756.88623
  21047207.6084    1147131.70746    903492.08162
  20122826.382   -21324061.963 7 -16440200.01822
 91  4 24 22 25 29.9950000  0  3G 2G19G 6
  19366699.655   -24070875.535 7 -18667941.54123
  21051151.3664    1167847.78646    919634.41762
  20115621.7804  -21361914.83347 -16469695.72062
 91  4 24 22 25 44.9950000  0  3G 2G19G 6
  19363737.351   -24086449.915 7 -18680077.40023
  21055103.3584    1188629.44146    935827.84562
  20108424.8434  -21399732.37647 -16499163.89962
 91  4 24 22 25 59.9950000  0  3G 2G19G 6
  19360784.366   -24101958.464 7 -18692161.95923
  21059073.4834    1209479.71046    952074.74362
  20101237.0934  -21437511.00547 -16528601.75862
 91  4 24 22 26 14.9950000  0  3G 2G19G 6
  19357845.523   -24117404.798 7 -18704198.04023
  21063050.9294    1230395.15846    968372.42562
  20094054.3124  -21475254.17847 -16558011.98862
 91  4 24 22 26 29.9950000  0  3G 2G19G 6
  19354918.312   -24132787.032 7 -18716184.17023
  21067045.9294    1251377.92646    984722.57162
  20086879.5304  -21512959.70347 -16587392.88362
 91  4 24 22 26 44.9950000  0  3G 2G19G 6
  19352002.812   -24148111.640 7 -18728125.40023
  21071049.679     1272421.441 6   1001120.04422
  20079710.1634  -21550633.88047 -16616749.34462
 91  4 24 22 26 59.9950000  0  3G 2G19G 6
  19349097.952   -24163371.625 7 -18740016.27523
  21075066.9374    1293532.82546   1017570.40262
  20072548.796   -21588269.521 7 -16646075.77722
 91  4 24 22 27 14.9950000  0  3G 2G19G 6
  19346206.601   -24178573.503 7 -18751861.87223
  21079096.429     1314705.662 6   1034068.64522
  20065391.9834  -21625872.56947 -16675376.81062
 91  4 24 22 27 29.9950000  0  3G 2G19G 6
  19343325.249   -24193710.670 7 -18763657.04323
  21083139.5854    1335946.46646   1050619.85162
  20058244.7654  -21663436.31647 -16704647.22162
 91  4 24 22 27 44.9950000  0  3G 2G19G 6
  19340456.335   -24208789.231 7 -18775406.55023
  21087191.202     1357249.294 6   1067219.38822
  20051101.2884  -21700966.58347 -16733891.55062
 91  4 24 22 27 59.9950000  0  3G 2G19G 6
  19337598.062   -24223807.068 7 -18787108.73523
  21091259.0074    1378615.93846   1083868.64562
  20043967.694   -21738461.284 7 -16763108.15922
 91  4 24 22 28 14.9950000  0  3G 2G19G 6
  19334750.562   -24238766.286 7 -18798765.24923
  21095335.991     1400044.434 6   1100566.10022
  20036839.8124  -21775922.19347 -16792298.43662
 91  4 24 22 28 29.9950000  0  3G 2G19G 6
  19331915.741   -24253664.042 7 -18810373.87023
  21099429.702     1421537.807 6   1117314.10622
  20029717.9524  -21813345.98847 -16821459.79762
 91  4 24 22 28 44.9950000  0  3G 2G19G 6
  19329092.101   -24268504.855 7 -18821938.12423
  21103528.921     1443091.865 6   1134109.40522
  20022601.8984  -21850736.68947 -16850595.36962
 91  4 24 22 28 59.9950000  0  3G 2G19G 6
  19326279.749   -24283288.522 7 -18833457.84623
  21107643.538     1464706.621 6   1150951.99722
  20015492.2184  -21888094.26047 -16879705.12962
 91  4 24 22 29 14.9950000  0  3G 2G19G 6
  19323476.405   -24298014.829 7 -18844932.86924
  21111765.499     1486382.368 6   1167842.11522
  20008390.4604  -21925418.23447 -16908788.71062
 91  4 24 22 29 29.9950000  0  3G 2G19G 6
  19320686.577   -24312675.920 7 -18856357.08123
  21115903.507     1508126.936 6   1184785.86221
  20001296.0384  -21962700.12647 -16937839.49562
 91  4 24 22 29 44.9950000  0  5G13G 2G15G19G 6
  22616030.1484         -0.16254
  19317908.538   -24327277.314 7 -18867734.77224
  22803185.4604         -0.34655
  21120052.999     1529934.823 6   1201778.94822
  19994208.4914  -21999945.44947 -16966861.78862
 91  4 24 22 29 59.9950000  0  5G13G 2G15G19G 6
  22602282.7414     -72243.14644
  19315140.741   -24341821.376 7 -18879067.78924
  22796111.7414     -37168.24445
  21124216.468     1551803.876 6   1218819.68922
  19987126.6634  -22037156.27747 -16995857.20062
 91  4 24 22 30 14.9950000  0  5G13G 2G15G19G 6
  22588543.0384    -144458.82044
  19312384.398   -24356304.276 7 -18890353.14724
  22789055.0694     -74247.52145
  21128388.429     1573738.162 6   1235911.26822
  19980053.687   -22074328.375 7 -17024822.42322
 91  4 24 22 30 29.9950000  0  5G13G 2G15G19G 6
  22574804.2804    -216641.63644
  19309640.319   -24370720.820 7 -18901586.80824
  22782018.7494    -111233.05445
  21132578.648     1595742.590 6   1253057.50622
  19972987.835   -22111456.352 7 -17053753.27322
 91  4 24 22 30 44.9950000  0  5G13G 2G15G19G 6
  22561073.2804    -288795.87244
  19306910.054   -24385075.717 7 -18912772.42624
  22774994.421     -148128.991 5
  21136775.905     1617812.482 6   1270254.74822
  19965930.7104  -22148544.70147 -17082653.24662
 91  4 24 22 30 59.9950000  0  5G13G 2G15G19G 6
  22547347.9134    -360923.85144
  19304189.163   -24399371.512 7 -18923911.99524
  22767989.5854    -184937.13745
  21140992.616     1639945.298 6   1287501.02422
  19958880.0854  -22185595.69147 -17111524.10762
 91  4 24 22 31 14.9950000  0  5G13G 2G15G19G 6
  22533627.0304    -433026.49645
  19301479.882   -24413609.503 7 -18935006.52024
  22760999.9914    -221658.60245        -0.41271
  21145210.444     1662139.832 6   1304795.39822
  19951836.6484  -22222610.50147 -17140366.77962
 91  4 24 22 31 29.9950000  0  5G13G 2G15G19G 6
  22519912.3274    -505097.37845
  19298782.187   -24427783.930 7 -18946051.51724
  22754032.757     -258287.417 5    -28542.24321
  21149452.202     1684401.670 6   1322142.20721
  19944799.3274  -22259582.82147 -17169176.33662
 91  4 24 22 31 44.9950000  0  5G13G 2G15G19G 6
  22506201.8124    -577142.98645
  19296095.413   -24441901.762 7 -18957052.40924
  22747081.0774    -294830.03345    -57016.92461
  21153695.858     1706724.101 6   1339536.23522
  19937771.6634  -22296519.46447 -17197958.09762
 91  4 24 22 31 59.9950000  0  5G13G 2G15G19G 6
  22492497.8584    -649156.23845
  19293420.187   -24455956.294 7 -18968003.97624
  22740140.8514    -331279.04345    -85418.63561
  21157960.093     1729114.024 6   1356982.85222
  19930752.2104  -22333413.56747 -17226706.71262
 91  4 24 22 32 14.9950000  0  5G13G 2G15G19G 6
  22478799.6554    -721142.45745
  19290757.577   -24469953.192 7 -18978910.63624
  22733223.5624    -367640.00145   -113751.76461
  21162229.819     1751565.751 6   1374477.63122
  19923737.9524  -22370270.45947 -17255426.32862
 91  4 24 22 32 29.9950000  0  5G13G 2G15G19G 6
  22465106.2334    -793096.64645
  19288105.7654  -24483888.14347 -18989769.02964
  22726325.4294    -403907.70545   -142012.20461
  21166514.319     1774083.696 6   1392024.00522
  19916731.0074  -22407085.31547 -17284113.19362
 91  4 24 22 32 44.9950000  0  5G13G 2G15G19G 6
  22451422.9994    -865017.68945
  19285466.476   -24497760.380 7 -19000578.54724
  22719438.7414    -440081.04645   -170199.13561
  21170811.710     1796668.736 6   1409622.66622
  19909733.9684  -22443857.13347 -17312766.51762
 91  4 24 22 32 59.9950000  0  5G13G 2G15G19G 6
  22437739.5774    -936914.92345
  19282836.1404  -24511579.56747 -19011346.73164
  22712572.2804    -476169.39745   -198319.83961
  21175124.991     1819311.098 6   1427265.98821
  19902743.132   -22480595.364 7 -17341393.66522
 91  4 24 22 33 14.9950000  0  5G13G 2G15G19G 6
  22424062.1324   -1008784.74845
  19280216.8664  -24525342.65947 -19022071.20664
  22705717.718     -512169.324 5   -226371.64121
  21179440.679     1842013.842 6   1444956.36022
  19895759.1794  -22517296.79247 -17369992.14362
 91  4 24 22 33 29.9950000  0  5G13G 2G15G19G 6
  22410390.8584   -1080621.31445
  19277609.491   -24539044.306 7 -19032747.79924
  22698888.4604    -548075.39945   -254350.30461
  21183774.968     1864782.291 6   1462697.93721
  19888783.3434  -22553955.93447 -17398557.66962
 91  4 24 22 33 44.9950000  0  5G13G 2G15G19G 6
  22396727.2964   -1152426.41645
  19275013.0384  -24552686.85747 -19043378.34964
  22692071.9444    -583889.54545   -282257.33461
  21188117.749     1887614.022 6   1480488.81921
  19881815.515   -22590574.731 7 -17427091.75222
 91  4 24 22 33 59.9950000  0  5G13G 2G15G19G 6
  22383068.6084   -1224199.85744
  19272429.343   -24566270.572 7 -19053963.04924
  22685276.319     -619611.366 5   -310092.43821
  21192477.616     1910509.157 6   1498329.10122
  19874854.187   -22627152.884 7 -17455594.16622
 91  4 24 22 34 14.9950000  0  5G13G 2G15G19G 6
  22369415.8984   -1295940.46944
  19269855.0234  -24579794.56147 -19064501.20664
  22678494.5694    -655239.73045   -337854.71061
  21196842.882     1933468.367 6   1516219.31621
  19867902.358   -22663689.695 7 -17484064.36522
 91  4 24 22 34 29.9950000  0  5G13G 2G15G19G 6
  22355766.6244   -1367650.72444
  19267293.327   -24593261.989 7 -19074995.29824
  22671733.2734    -690777.11045   -365546.07361
  21201226.726     1956488.656 6   1534157.12921
  19860956.3584  -22700187.79647 -17512504.40262
 91  4 24 22 34 44.9950000  0  5G13G 2G15G19G 6
  22342129.3664   -1439330.36544
  19264740.6014  -24606672.73647 -19085445.21764
  22664988.3984    -726223.29245   -393166.37961
  21205617.0774    1979569.97346   1552142.49461
  19854018.4834  -22736646.99747 -17540914.13562
 91  4 24 22 34 59.9950000  0  5G13G 2G15G19G 6
  22328491.4764   -1510977.69144
  19262199.280   -24620025.613 7 -19095850.04424
  22658256.2964    -761576.43545   -420714.19561
  21210024.812     2002713.668 6   1570176.46121
  19847088.4054  -22773065.47947 -17569292.13662
 91  4 24 22 35 14.9950000  0  5G13G 2G15G19G 6
  22314866.9444   -1582589.80544
  19259670.241   -24633318.365 7 -19106208.01924
  22651550.8044    -796833.95945   -448187.49261
  21214437.140     2025922.041 6   1588260.82921
  19840166.8824  -22809440.94747 -17597636.61562
 91  4 24 22 35 29.9950000  0  5G13G 2G15G19G 6
  22301244.5854   -1654170.47744
  19257150.538   -24646555.335 7 -19116522.52624
  22644860.5154    -831999.94445   -475589.47061
  21218866.788     2049190.844 6   1606392.28221
  19833250.9524  -22845777.41547 -17625950.71662
 91  4 24 22 35 44.9950000  0  5G13G 2G15G19G 6
  22287629.7414   -1725720.36344
  19254642.523   -24659737.439 7 -19126794.28024
  22638181.6084    -867075.15345   -502920.70861
  21223303.898     2072519.006 6   1624569.99021
  19826343.6794  -22882075.61147 -17654234.98762
 91  4 24 22 35 59.9950000  0  5G13G 2G15G19G 6
  22274021.9994   -1797231.24844
  19252145.851   -24672856.791 7 -19137017.13324
  22631527.9374    -902051.16245   -530174.65961
  21227759.421     2095914.566 6   1642800.21722
  19819446.8824  -22918327.29047 -17682483.01062
 91  4 24 22 36 14.9950000  0  5G13G 2G15G19G 6
  22260416.4604   -1868706.87744
  19249660.023   -24685917.702 7 -19147194.45424
  22624887.4524    -936931.57945   -557354.10461
  21232221.671     2119373.134 6   1661079.53321
  19812555.5774  -22954536.59147 -17710698.00962
 91  4 24 22 36 29.9950000  0  5G13G 2G15G19G 6
  22246820.8824   -1940146.38844
  19247186.171   -24698919.990 7 -19157326.09524
  22618268.687     -971715.973 5   -584458.76121
  21236699.233     2142895.121 6   1679408.27521
  19805673.1324  -22990702.85447 -17738879.47862
 91  4 24 22 36 44.9950000  0  5G13G 2G15G19G 6
  22233237.3664   -2011546.18445
  19244723.523   -24711860.239 7 -19167409.38724
  22611670.4444   -1006400.58245   -611485.63461
  21241185.5234    2166483.94846   1697789.09461
  19798799.9684  -23026822.39947 -17767024.54262
 91  4 24 22 36 59.9950000  0  5G13G 2G15G19G 6
  22219658.2734   -2082912.53145
  19242271.812   -24724745.301 7 -19177449.68224
  22605087.265    -1040991.611 5   -638439.58921
  21245688.304     2190132.738 6   1716216.63921
  19791934.7574  -23062901.76047 -17795138.28962
 91  4 24 22 37 14.9950000  0  5G13G 2G15G19G 6
  22206083.6244   -2154244.74745        -0.40471
  19239830.194   -24737574.926 7 -19187446.77924
  22598523.6014   -1075488.56145   -665320.24561
  21250197.694     2213841.630 6   1734691.02021
  19785076.2804  -23098940.41947 -17823220.32262
 91  4 24 22 37 29.9950000  0  5G13G 2G15G19G 6
  22192516.1634   -2225540.41245    -55555.02561
  19237399.765   -24750347.055 7 -19197399.07424
  22591975.5934   -1109889.23445   -692125.86861
  21254722.8194    2237612.67246   1753213.82461
  19778225.9214  -23134936.26347 -17851268.99362
 91  4 24 22 37 44.9950000  0  5G13G 2G15G19G 6
  22178955.1084   -2296798.61045   -111080.51861
  19234980.890   -24763061.351 7 -19207306.30424
  22585447.421    -1144192.431 5   -718855.55521
  21259256.858     2261446.313 6   1771785.40621
  19771384.2104  -23170888.43947 -17879283.63662
 91  4 24 22 37 59.9950000  0  5G13G 2G15G19G 6
  22165401.874    -2368023.024 5   -166579.66321
  19232570.593   -24775721.873 7 -19217171.63024
  22578937.3044   -1178402.21045   -745512.43761
  21263807.1014    2285338.72946   1790402.78961
  19764550.0624  -23206800.98547 -17907267.40562
 91  4 24 22 38 14.9950000  0  5G13G 2G15G19G 6
  22151856.4604   -2439208.33645   -222048.34061
  19230173.796   -24788323.796 7 -19226991.29724
  22572445.530    -1212513.407 5   -772092.49521
  21268361.5304    2309294.74146   1809069.72461
  19757725.3584  -23242668.61747 -17935216.17562
 91  4 24 22 38 29.9950000  0  5G13G 2G15G19G 6
  22138313.991    -2510353.438 5   -277485.70621
  19227786.749   -24800866.285 7 -19236764.64924
  22565976.9834   -1246524.67745   -798594.69561
  21272936.1634    2333315.08246   1827786.78661
  19750908.0154  -23278490.12047 -17963128.99362
 91  4 24 22 38 44.9950000  0  5G13G 2G15G19G 6
  22124783.8124   -2581458.52745   -332891.85461
  19225411.398   -24813350.229 7 -19246492.38024
  22559521.1404   -1280436.42345   -825019.33961
  21277515.8984    2357398.92246   1846553.32861
  19744101.2334  -23314266.30047 -17991006.50162
 91  4 24 22 38 59.9950000  0  5G13G 2G15G19G 6
  22111261.530    -2652523.284 5   -388266.58021
  19223046.257   -24825775.754 7 -19256174.59124
  22553088.0154   -1314248.55745   -851366.36161
  21282113.0934    2381546.14946   1865369.26161
  19737302.0774  -23349996.84547 -18018848.44762
 91  4 24 22 39 14.9950000  0  5G13G 2G15G19G 6
  22097743.773    -2723548.941 5   -443610.87921
  19220692.858   -24838144.398 7 -19265812.48324
  22546671.405    -1347962.140 5   -877636.61421
  21286717.7574    2405755.23346   1884233.39361
  19730510.780   -23385682.984 7 -18046655.78822
 91  4 24 22 39 29.9950000  0  5G13G 2G15G19G 6
  22084237.882    -2794529.880 5   -498920.28821
  19218351.632   -24850451.176 7 -19275402.16424
  22540278.2184   -1381571.75645   -903825.84461
  21291340.6554    2430030.93646   1903149.42461
  19723728.3984  -23421319.70147 -18074424.62063
 91  4 24 22 39 44.9950000  0  5G13G 2G15G19G 6
  22070739.2414   -2865470.08045   -554197.98161
  19216021.312   -24862700.427 7 -19284947.01924
  22533902.390    -1415081.205 5   -929937.01821
  21295969.1554    2454369.25046   1922114.26261
  19716955.8514  -23456910.90347 -18102157.98463
 91  4 24 22 39 59.9950000  0  5G13G 2G15G19G 6
  22057247.7654   -2936364.95745   -609440.36061
  19213700.8904  -24874888.23747 -19294444.00163
  22527541.4684   -1448486.15645   -955966.76361
  21300615.8584    2478774.33146   1941131.11461
  19710191.7654  -23492452.01147 -18129852.32262
 91  4 24 22 40 14.9950000  0  5G13G 2G15G19G 6
  22043762.663    -3007218.843 5   -664650.80821
  19211392.0694  -24887019.17047 -19303896.66664
  22521206.241    -1481791.158 5   -981918.62921
  21305268.991     2503241.278 6   1960196.16721
  19703436.9834  -23527947.67047 -18157511.23663
 91  4 24 22 40 29.9950000  0  5G13G 2G15G19G 6
  22030288.718    -3078029.525 5   -719827.55121
  19209095.421   -24899091.505 7 -19313303.66623
  22514884.390    -1514994.044 5  -1007790.92321
  21309937.8124    2527771.99446   1979310.91661
  19696694.5384  -23563395.96047 -18185133.23963
 91  4 24 22 40 44.9950000  0  5G13G 2G15G19G 6
  22016820.0624   -3148800.27445   -774973.24561
  19206808.5544  -24911108.77047 -19322667.75863
  22508589.0934   -1548097.87545  -1033586.03161
  21314615.6404    2552362.86246   1998472.53461
  19689954.9914  -23598800.02447 -18212720.78463
 91  4 24 22 40 59.9950000  0  4G13G15G19G 6
  22003360.7104   -3219530.02345   -830086.91961
  22502305.335    -1581102.005 5  -1059303.46421
  21319311.1164    2577014.36546   2017681.40361
  19683226.6404  -23634159.21547 -18240273.36263
 91  4 24 22 41 14.9950000  0  5G13G 2G15G19G 6
  21989909.319    -3290215.378 5   -885166.09321
  19202266.882          -0.19617
  22496048.257    -1614003.036 5  -1084940.53521
  21324010.8124    2601729.42046   2036939.78961
  19676505.7734  -23669470.22547 -18267788.39463
 91  4 24 22 41 29.9950000  0  5G13G 2G15G19G 6
  21976467.132    -3360856.995 5   -940211.10321
  19200012.3904     -11846.22447
  22489803.8744   -1646801.45645  -1110497.66461
  21328730.2964    2626507.10746   2056246.98161
  19669796.0694  -23704733.73047 -18295266.41263
 91  4 24 22 41 44.9950000  0  5G13G 2G15G19G 6
  21963030.5384   -3431453.67745   -995221.14761
  19197769.358      -23634.123 7
  22483581.8044   -1679496.10345  -1135973.92261
  21333453.6404    2651348.17346   2075603.55961
  19663095.6874  -23739948.69147 -18322706.61163
 91  4 24 22 41 59.9950000  0  5G13G 2G15G19G 6
  21949604.8584   -3502009.19845  -1050199.11561
  19195536.460      -35367.932 7        -0.40133
  22477381.4294   -1712091.23045  -1161372.63761
  21338194.8124    2676248.14246   2095006.03061
  19656401.8824  -23775119.30247 -18350112.24363
 91  4 24 22 42 14.9950000  0  5G13G 2G15G19G 6
  21936188.194    -3572516.215 5  -1105139.25521
  19193315.093      -47041.025 7     -9096.30823
  22471195.421    -1744579.592 5  -1186688.16121
  21342942.898     2701213.977 6   2114459.82221
  19649720.0774  -23810238.39647 -18377477.73463
 91  4 24 22 42 29.9950000  0  5G13G 2G15G19G 6
  21922779.7884   -3642976.61845  -1160043.10161
  19191103.9214     -58655.78047    -18146.75363
  22465035.812    -1776962.930 5  -1211921.84821
  21347707.265     2726243.575 6   2133963.30821
  19643045.5934  -23845307.80447 -18404804.51163
 91  4 24 22 42 44.9950000  0  5G13G 2G15G19G 6
  21909380.585    -3713392.514 5  -1214912.27621
  19188905.1714     -70214.63947    -27153.64563
  22458894.2184   -1809243.45845  -1237075.41561
  21352479.8584    2751334.34146   2153514.45261
  19636382.2334  -23880329.73347 -18432094.29263
 91  4 24 22 42 59.9950000  0  5G13G 2G15G19G 6
  21895989.6244   -3783760.28145  -1269743.95161
  19186716.929      -81714.505 7    -36114.56823
  22452771.4134   -1841417.60145  -1262146.09561
  21357269.265     2776489.404 6   2173115.69221
  19629727.4294  -23915301.00247 -18459344.59263
 91  4 24 22 43 14.9950000  0  5G13G 2G15G19G 6
  21882606.530    -3854083.939 5  -1324541.22821
  19184539.569      -93159.854 7    -45033.00623
  22446667.843    -1873489.630 5  -1287137.21421
  21362065.8984    2801704.25546   2192763.53761
  19623079.3194  -23950225.78547 -18486558.67963
 91  4 24 22 43 29.9950000  0  5G13G 2G15G19G 6
  21869232.8514   -3924362.99845  -1379303.76261
  19182371.5694    -104550.85147    -53909.09763
  22440583.460    -1905459.353 5  -1312048.60721
  21366879.866     2826978.785 6   2212457.87321
  19616443.2104  -23985103.82947 -18513736.34063
 91  4 24 22 43 44.9950000  0  5G13G 2G15G19G 6
  21855867.1324   -3994597.01245  -1434031.24061
  19180214.2734    -115886.81648    -62742.30863
  22434521.163    -1937325.834 5  -1336879.53521
  21371696.6324    2852313.50346   2232199.11161
  19609814.3274  -24019934.27647 -18540876.91663
 91  4 24 22 43 59.9950000  0  5G13G 2G15G19G 6
  21842511.4214   -4064784.55845  -1488722.46161
  19178067.6244    -127166.92748    -71531.99863
  22428473.483    -1969087.728 5  -1361628.99521
  21376535.054     2877709.187 6   2251987.84721
  19603197.4994  -24054716.09047 -18567979.59863
 91  4 24 22 44 14.9940000  0  5G13G 2G15G19G 6
  21829163.4634   -4134923.29745  -1543375.67561
  19175931.2684    -138393.53048    -80279.98863
  22422450.3854   -2000745.59045  -1386297.37261
  21381374.0574    2903161.15546   2271820.45261
  19596588.0104  -24089449.70547 -18595044.71563
 91  4 24 22 44 29.9940000  0  5G13G 2G15G19G 6
  21815823.955    -4205016.861 5  -1597993.68221
  19173806.2214    -149562.68448    -88983.21563
  22416447.447    -2032297.984 5  -1410883.57621
  21386232.330     2928678.088 6   2291703.66921
  19589986.3544  -24124133.97547 -18622071.38263
 91  4 24 22 44 44.9940000  0  5G13G 2G15G19G 6
  21802495.6584   -4275053.68045  -1652567.48261
  19171692.135     -160667.576 7    -97636.36323
  22410465.424    -2063736.141 5  -1435380.76821
  21391098.041     2954264.810 6   2311641.26921
  19583398.3694  -24158760.08547 -18649052.73963
 91  4 24 22 44 59.9940000  0  5G13G 2G15G19G 6
  21789178.9634   -4345043.68145  -1707104.81261
  19169589.361     -171718.515 8   -106247.46823
  22404502.432    -2095070.065 5  -1459796.74621
  21395980.4864    2979910.92146   2331625.15261
  19576818.0804  -24193338.01247 -18675996.54063
 91  4 24 22 45 14.9940000  0  5G13G 2G15G19G 6
  21775866.361    -4414988.647 5  -1761607.03721
  19167496.525     -182717.546 8   -114818.12923
  22398559.627    -2126301.440 5  -1484132.80121
  21400870.088     3005614.246 6   2351653.61021
  19570245.2754  -24227869.60347 -18702904.24263
 91  4 24 22 45 29.9940000  0  5G13G 2G15G19G 6
  21762566.8074   -4484880.90145  -1816068.20361
  19165415.0414    -193657.45548   -123342.72163
  22392636.986    -2157422.694 5  -1508383.05521
  21405776.205     3031381.927 6   2371732.21921
  19563685.3154  -24262347.52647 -18729770.12663
 91  4 24 22 45 44.9940000  0  5G13G 2G15G19G 6
  21749276.1194   -4554725.67645  -1870492.35961
  19163342.979     -204543.928 8
  22386733.424    -2188439.268 5  -1532551.73921
  21410687.315     3057208.256 6   2391856.53021
  19557134.8464  -24296777.16247 -18756598.38963
 91  4 24 22 45 59.9940000  0  4G13G15G19G 6
  21735992.791    -4624520.628 5  -1924877.70921
  22380850.1904   -2219348.86945  -1556637.06661
  21415618.166     3083095.277 6   2412028.12421
  19550593.1434  -24331156.17247 -18783387.20463
 91  4 24 22 46 14.9940000  0  5G13G 2G15G19G 6
  21722720.611    -4694268.296 5  -1979226.22321
  19159231.986          -0.80418
  22374989.4084   -2250154.40545  -1580641.29761
  21420551.041     3109040.033 6   2432244.71321
  19544058.338   -24365487.282 7 -18810138.68023
 91  4 24 22 46 29.9940000  0  5G13G 2G15G19G 6
  21709460.072    -4763966.606 5  -2033536.25321
  19157189.877      -10725.536 8
  22369146.8774   -2280853.38645  -1604562.51361
  21425502.268     3135044.095 6   2452507.51421
  19537536.1904  -24399768.56847 -18836851.32963
 91  4 24 22 46 44.9940000  0  5G13G 2G15G19G 6
  21696206.1354   -4833610.41145  -2087803.83861
  19155160.3694     -21391.55148        -0.10874
  22363325.205    -2311440.944 5  -1628396.90021
  21430461.049     3161112.264 6   2472820.26321
  19531023.5254  -24433994.90047 -18863521.17163
 91  4 24 22 46 59.9940000  0  5G13G 2G15G19G 6
  21682961.6044   -4903204.16945  -2142032.43461
  19153140.6824     -32003.86248     -8269.43564
  22357528.377    -2341921.796 5  -1652148.13321
  21435434.182     3187239.350 6   2493178.92221
  19524518.2754  -24468171.26547 -18890152.07663
 91  4 24 22 47 14.9940000  0  5G13G 2G15G19G 6
  21669728.1744   -4972751.20045  -2196224.59061
  19151130.5884     -42566.16848    -16499.79563
  22351745.072    -2372299.218 5  -1675818.78621
  21440414.768     3213421.980 6   2513580.86121
  19518025.0024  -24502300.83447 -18916746.51563
 91  4 24 22 47 29.9940000  0  5G13G 2G15G19G 6
  21656502.3384   -5042240.72145  -2250371.92761
  19149132.2054     -53068.11848    -24683.12364
  22345987.354    -2402562.433 5  -1699400.43421
  21445413.502     3239670.365 6   2534034.04321
  19511540.9004  -24536373.03447 -18943296.25563
 91  4 24 22 47 44.9940000  0  5G13G 2G15G19G 6
  21643289.6354   -5111677.03545  -2304477.84861
  19147145.2364     -63514.62448    -32823.24364
  22340247.658    -2432716.065 5  -1722896.69721
  21450415.830     3265979.483 6   2554534.53921
  19505066.7364  -24570392.39447 -18969804.80763
 91  4 24 22 47 59.9940000  0  5G13G 2G15G19G 6
  21630084.432    -5181065.672 5  -2358546.61221
  19145166.0104     -73911.59148    -40924.77264
  22334529.7214   -2462765.85645  -1746312.04961
  21455434.619     3292343.522 6   2575077.83921
  19498601.9164  -24604364.57647 -18996276.61063
 91  4 24 22 48 14.9940000  0  5G13G 2G15G19G 6
  21616890.533    -5250398.357 5  -2412571.77721
  19143198.1824     -84251.03848    -48981.47163
  22328831.510    -2492703.450 5  -1769639.96421
  21460462.330     3318770.448 6   2595670.14021
  19492148.5104  -24638281.34447 -19022705.22563
 91  4 24 22 48 29.9940000  0  5G13G 2G15G19G 6
  21603711.4794   -5319674.35845  -2466552.75761
  19141242.697      -94532.681 8    -56993.12723
  22323159.994    -2522528.158 5  -1792879.93321
  21465507.596     3345260.527 6   2616311.65121
  19485704.7914  -24672142.15947 -19049090.23463
 91  4 24 22 48 44.9940000  0  5G13G 2G15G19G 6
  21590536.4714   -5388893.51645  -2520489.48161
  19139296.8384    -104756.72048    -64959.90263
  22317502.4324   -2552239.83245  -1816031.81061
  21470554.3934    3371813.41346   2637002.08961
  19479271.4164  -24705946.95147 -19075431.59963
 91  4 24 22 48 59.9940000  0  5G13G 2G15G19G 6
  21577375.9714   -5458056.62145  -2574382.49061
  19137361.0884    -114924.58348    -72882.90464
  22311869.5804   -2581839.61945  -1839096.50361
  21475623.182     3398427.737 5   2657740.41721
  19472850.1904  -24739696.76247 -19101730.12163
 91  4 24 22 49 14.9940000  0  5G13G 2G15G19G 6
  21564221.9864   -5527168.46845  -2628235.58561
  19135436.0804    -125041.51848    -80766.22164
  22306260.338    -2611332.212 5  -1862077.66321
  21480696.0494    3425098.46345   2678522.68861
  19466436.2754  -24773396.52847 -19127989.64163
 91  4 24 22 49 29.9940000  0  5G13G 2G15G19G 6
  21551082.190    -5596226.384 5  -2682046.64021
  19133521.9714    -135105.20848    -88608.04764
  22300669.2214   -2640715.12245  -1884973.36361
  21485785.510     3451827.791 5   2699350.61021
  19460032.8774  -24807043.76747 -19154208.23563
 91  4 24 22 49 44.9940000  0  5G13G 2G15G19G 6
  21537949.6974   -5665228.40945  -2735814.17361
  19131616.3304    -145114.07448    -96407.15464
  22295096.869    -2669986.481 5  -1907782.13321
  21490879.432     3478616.989 5   2720225.19721
  19453641.4244  -24840636.57347 -19180384.41463
 91  4 24 22 49 59.9940000  0  5G13G 2G15G19G 6
  21524831.7754   -5734172.50245  -2789536.54261
  19129723.2684    -155066.56448   -104162.33564
  22289546.768    -2699144.221 5  -1930502.38121
  21495991.9404    3505467.91445   2741147.88461
  19447260.3464  -24874173.13447 -19206516.76863
 91  4 24 22 50 14.9940000  0  5G13G 2G15G19G 6
  21511722.197    -5803062.428 5  -2843216.71221
  19127838.8304    -164966.93148   -111876.89863
  22284019.416    -2728192.552 5  -1953137.36321
  21501109.5024    3532376.25345   2762115.29561
  19440887.5964  -24907657.22647 -19232608.23663
 91  4 24 22 50 29.9940000  0  5G13G 2G15G19G 6
  21498620.3544   -5871900.27045  -2896856.32061
  19125964.955     -174817.667 8   -119552.78223
  22278512.580    -2757133.408 5  -1975688.60921
  21506244.611     3559339.480 5   2783125.48921
  19434525.6434  -24941091.28147 -19258660.71863
 91  4 24 22 50 44.9940000  0  5G13G 2G15G19G 6
  21485534.346    -5940679.374 5  -2950450.13521
  19124099.9794    -184612.53348   -127185.13564
  22273025.244    -2785960.260 5  -1998151.01821
  21511384.5334    3586364.07945   2804183.50761
  19428174.0654  -24974468.49847 -19284668.91063
 91  4 24 22 50 59.9940000  0  5G13G 2G15G19G 6
  21472455.9714   -6009403.00945  -3004000.74461
  19122246.5184    -194355.31548   -134776.90764
  22267562.4634   -2814676.57345  -2020527.28561
  21516539.854     3613446.238 5   2825286.36921
  19421831.9084  -25007792.38647 -19310635.54063
 91  4 24 22 51 14.9940000  0  5G13G 2G15G19G 6
  21459390.1664   -6078060.63445  -3057499.90561
  19120404.2994    -204035.89348   -142320.20464
  22262121.065    -2843271.825 5  -2042809.22121
  21521705.2214    3640595.84845   2846441.79261
  19415502.9714  -25041052.52647 -19336552.50663
 91  4 24 22 51 29.9940000  0  5G13G 2G15G19G 6
  21446338.6114   -6146652.22045  -3110947.61261
  19118572.9474    -213654.76548   -149815.42464
  22256701.721    -2871746.089 5  -2064996.88721
  21526885.6354    3667812.35845   2867649.33961
  19409185.549   -25074249.216 7 -19362420.02923
 91  4 24 22 51 44.9940000  0  5G13G 2G15G19G 6
  21433295.6434   -6215187.00545  -3164351.08061
  19116753.9794    -223221.20848   -157269.78463
  22251304.885    -2900108.550 5  -2087097.42821
  21532072.940     3695086.509 5   2888901.81321
  19402879.4004  -25107391.40447 -19388245.07963
 91  4 24 22 51 59.9940000  0  5G13G 2G15G19G 6
  21420262.8154   -6283668.06645  -3217712.67261
  19114942.5654    -232738.80348   -164686.08664
  22245927.908    -2928362.728 5  -2109113.59821
  21537275.557     3722414.498 5   2910196.23121
  19396581.6044  -25140482.68447 -19414030.46063
 91  4 24 22 52 14.9940000  0  5G13G 2G15G19G 6
  21407245.260    -6352091.143 5  -3271029.09621
  19113140.6354    -242203.86648   -172061.45863
  22240575.5184   -2956504.24645  -2131041.98661
  21542485.135     3749800.360 5   2931535.74821
  19390294.658   -25173518.915 7 -19439772.94823
 91  4 24 22 52 29.9940000  0  5G13G 2G15G19G 6
  21394234.1904   -6420454.76945  -3324299.18961
  19111349.9714    -251615.44848   -179395.14663
  22235241.2134   -2984531.85345  -2152881.61361
  21547709.924     3777244.962 5   2952921.03821
  19384019.557   -25206498.597 7 -19465471.38223
 91  4 24 22 52 44.9940000  0  5G13G 2G15G19G 6
  21381236.752    -6488755.385 5  -3377520.18321
  19109570.1114    -260970.68548   -186684.93863
  22229926.5654   -3012442.24745  -2174629.89961
  21552943.7054    3804751.13245   2974354.29461
  19377754.963   -25239418.726 7 -19491123.40623
 91  4 24 22 52 59.9940000  0  5G13G 2G15G19G 6
  21368250.525    -6556994.079 5  -3430692.92121
  19107800.9164    -270270.75448   -193931.73863
  22224639.658    -3040236.288 5  -2196287.51121
  21558188.4634    3832317.67745   2995834.60061
  19371501.7134  -25272280.17447 -19516729.69563
 91  4 24 22 53 14.9940000  0  5G13G 2G15G19G 6
  21355277.5414   -6625168.04345  -3483815.25961
  19106041.7834    -279513.39648   -201133.79064
  22219377.799    -3067911.696 5  -2217852.69121
  21563447.1044    3859946.87845   3017363.72961
  19365259.533   -25305080.354 7 -19542288.24923
 91  4 24 22 53 29.9940000  0  5G13G 2G15G19G 6
  21342316.369    -6693278.233 5  -3536887.88021
  19104292.9554    -288700.19048   -208292.32564
  22214129.643    -3095469.604 5  -2239326.31121
  21568720.713     3887636.807 5   3038940.18121
  19359029.221   -25337820.666 7 -19567800.15723
 91  4 24 22 53 44.9940000  0  5G13G 2G15G19G 6
  21329367.549    -6761323.532 5  -3589909.93021
  19102555.7294    -297830.43548   -215406.79763
  22208908.119    -3122908.832 5  -2260707.45821
  21573994.7684    3915388.35745   3060564.65661
  19352810.127   -25370500.014 7 -19593264.56023
 91  4 24 22 53 59.9940000  0  5G13G 2G15G19G 6
  21316430.3304   -6829305.36245  -3642882.55561
  19100827.9794    -306905.79148   -222478.50064
  22203710.8544   -3150230.80645  -2281997.24561
  21579291.322     3943199.950 5   3082235.90721
  19346604.338   -25403119.642 7 -19618682.42423
 91  4 24 22 54 14.9940000  0  5G13G 2G15G19G 6
  21303508.143    -6897221.616 5  -3695804.04221
  19099113.1044    -315924.50848   -229506.06664
  22198531.2134   -3177433.44145  -2303194.03361
  21584592.8774    3971073.34345   3103955.32561
  19340407.221   -25435677.465 7 -19644052.13224
 91  4 24 22 54 29.9940000  0  5G13G 2G15G19G 6
  21290595.315    -6965076.474 5  -3748677.72021
  19097406.2604    -324891.12448   -236493.03564
  22193380.002    -3204521.279 5  -2324301.37121
  21589910.6744    3999003.75545   3125719.15661
  19334222.799   -25468178.064 7 -19669377.25223
 91  4 24 22 54 44.9940000  0  5G13G 2G15G19G 6
  21277695.1824   -7032865.18645  -3801499.84661
  19095711.2834    -333801.59648   -243436.25264
  22188245.0724   -3231489.69345  -2345315.65261
  21595235.0024    4026995.48645   3147530.78561
  19328050.143   -25500616.833 7 -19694654.19323
 91  4 24 22 54 59.9940000  0  5G13G 2G15G19G 6
  21264807.8694   -7100590.50445  -3854272.57961
  19094024.2604    -342658.90748   -250338.04763
  22183133.2134   -3258341.57645  -2366239.13661
  21600573.8074    4055045.45545   3169387.77961
  19321888.322   -25532996.560 7 -19719885.12923
 91  4 24 22 55 14.9940000  0  5G13G 2G15G19G 6
  21251932.6044   -7168251.12845  -3906994.89461
  19092350.8934    -351462.35148   -257197.87063
  22178051.0024   -3285075.70645  -2387070.86161
  21605922.9794    4083154.30845   3191290.66161
  19315738.088   -25565316.208 7 -19745069.24823
 91  4 24 22 55 29.9940000  0  5G13G 2G15G19G 6
  21239068.807    -7235847.957 5  -3959667.50021
  19090684.1354    -360213.38648   -264016.85363
  22172982.8384   -3311693.17745  -2407811.68661
  21611284.244     4111320.587 5   3213238.30021
  19309599.416   -25597576.878 7 -19770207.41223
 91  4 24 22 55 44.9940000  0  5G13G 2G15G19G 6
  21226216.2054   -7303380.68645  -4012290.18561
  19089029.0494    -368911.87448   -270794.89364
  22167939.6504   -3338193.92745  -2428461.54561
  21616653.7444    4139544.15445   3235230.57261
  19303473.502   -25629778.393 7 -19795299.48723
 91  4 24 22 55 59.9940000  0  5G13G 2G15G19G 6
  21213378.1354   -7370846.20245  -4064860.46261
  19087384.9474    -377555.19048   -277529.94163
  22162921.549    -3364574.715 5  -2449017.94821
  21622039.9004    4167827.79245   3257269.65461
  19297356.190   -25661917.549 7 -19820342.95724
 91  4 24 22 56 14.9940000  0  5G13G 2G15G19G 6
  21200554.9794   -7438244.06945  -4117378.03961
  19085750.3224    -386143.35048   -284222.00963
  22157924.275    -3390835.066 5  -2469480.51521
  21627428.8614    4196171.52445   3279355.55661
  19291250.768   -25693994.058 7 -19845337.62224
 91  4 24 22 56 29.9940000  0  5G13G 2G15G19G 6
  21187740.4244   -7505572.84345  -4169841.79661
  19084126.3464    -394675.02848   -290870.06463
  22152949.1744   -3416973.61445  -2489848.13361
  21632838.932     4224576.605 5   3301489.25821
  19285159.018   -25726006.401 7 -19870282.27823
 91  4 24 22 56 44.9940000  0  5G13G 2G15G19G 6
  21174941.3074   -7572834.24745  -4222253.03361
  19082512.8304    -403152.53748   -297475.91364
  22147995.6044   -3442992.33645  -2510122.40361
  21638250.6824    4253040.60145   3323668.87961
  19279080.940   -25757956.668 7 -19895178.56823
 91  4 24 22 56 59.9940000  0  5G13G 2G15G19G 6
  21162153.307    -7640028.147 5  -4274611.69721
  19080911.0654    -411576.21748   -304039.81763
  22143066.963    -3468891.433 5  -2530303.44021
  21643682.2524    4281563.26545   3345894.21361
  19273012.440   -25789844.948 7 -19920026.55724
 91  4 24 22 57 14.9940000  0  5G13G 2G15G19G 6
  21149381.393    -7707150.220 5  -4326914.36821
  19079318.7994    -419942.38248   -310558.89963
  22138164.252    -3494666.587 5  -2550387.92121
  21649118.2364    4310148.34745   3368168.17761
  19266956.369   -25821667.006 7 -19944822.94223
 91  4 24 22 57 29.9940000  0  5G13G 2G15G19G 6
  21136621.1584   -7774203.81846  -4379163.69761
  19077736.4714    -428254.83247   -317036.13163
  22133283.2834   -3520321.26945  -2570378.51261
  21654571.8544    4338791.95745   3390487.75361
  19260913.260   -25853426.232 7 -19969570.37123
 91  4 24 22 57 44.9940000  0  5G13G 2G15G19G 6
  21123873.447    -7841190.082 6  -4431360.55221
  19076164.8854    -436515.06648   -323472.67963
  22128421.9004   -3545856.69745  -2590276.18861
  21660031.713     4367492.554 5   3412851.74221
  19254880.838   -25885124.099 7 -19994269.98423
 91  4 24 22 57 59.9940000  0  5G13G 2G15G19G 6
  21111138.135    -7908109.943 5  -4483505.67221
  19074602.8614    -444724.12048   -329869.34463
  22123586.7524   -3571273.78945  -2610081.65561
  21665507.5184    4396248.80745   3435259.08761
  19248861.0104  -25916761.28047 -20018922.30763
 91  4 24 22 58 14.9940000  0  5G13G 2G15G19G 6
  21098417.260    -7974957.678 6  -4535594.58221
  19073051.0964    -452876.75048   -336222.03964
  22118771.0964   -3596567.11845  -2629790.68161
  21670986.8074    4425066.15445   3457714.03461
  19242852.650   -25948332.258 7 -20043523.04723
 91  4 24 22 58 29.9940000  0  5G13G 2G15G19G 6
  21085709.455    -8041738.191 5  -4587631.11821
  19071509.8304    -460978.77448   -342535.30063
  22113980.9714   -3621742.00045  -2649407.39461
  21676484.4084    4453938.96045   3480212.20361
  19236856.682   -25979842.455 7 -20068076.42423
 91  4 24 22 58 44.9940000  0  5G13G 2G15G19G 6
  21073014.8774   -8108444.53845  -4639609.86561
  19069978.3224    -469023.37448   -348803.80863
  22109215.6434   -3646791.57145  -2668926.47461
  21681987.7444    4482873.81745   3502758.72461
  19230873.275   -26011284.880 7 -20092576.99123
 91  4 24 22 58 59.9940000  0  5G13G 2G15G19G 6
  21060334.940    -8175081.665 5  -4691534.66521
  19068457.0494    -477015.97748   -355031.80664
  22104474.6434   -3671720.90445  -2688351.86861
  21687505.3694    4511865.11945   3525349.22561
  19224901.838   -26042664.572 7 -20117028.68324
 91  4 24 22 59 14.9940000  0  5G13G 2G15G19G 6
  21047667.0884   -8241651.21645  -4743406.82761
  19066945.3614    -484958.69547   -361220.93164
  22099751.0184   -3696531.83745  -2707685.00061
  21693030.9474    4540910.71345   3547982.02961
  19218942.018   -26073983.447 7 -20141432.98323
 91  4 24 22 59 29.9940000  0  5G13G 2G15G19G 6
  21035012.885    -8308147.628 5  -4795221.98121
  19065446.1274    -492845.91848   -367366.81463
  22095051.752    -3721218.382 5  -2726921.20221
  21698573.6974    4570016.35245   3570661.61961
  19212994.627   -26105235.521 7 -20165785.22923
 91  4 24 22 59 44.9940000  0  5G13G 2G15G19G 6
  21022372.6274   -8374573.58845  -4846982.25961
  19063953.6194    -500680.98747   -373472.05664
  22090377.1274   -3745783.60445  -2746062.88061
  21704120.6664    4599178.60345   3593385.31861
  19207060.736   -26136423.853 7 -20190087.80123
 91  4 24 22 59 59.9940000  0  5G13G 2G15G19G 6
  21009746.721    -8440924.031 5  -4898683.67521
  19062474.6504    -508459.50547   -379533.23664
  22085728.1434   -3770223.01045  -2765106.49661
  21709683.9794    4628401.93145   3616156.62361
  19201137.838   -26167543.695 7 -20214337.01223
 91  4 24 23  0 14.9940000  0  5G13G 2G15G19G 6
  20997132.424    -8507206.168 5  -4950331.86421
  19061003.8854    -516189.14448   -385556.32364
  22081097.3544   -3794543.80745  -2784057.71361
  21715252.3304    4657678.63945   3638969.52061
  19195228.1114  -26198602.38147 -20238538.55863
 91  4 24 23  0 29.9940000  0  5G13G 2G15G19G 6
  20984534.6744   -8573412.95546  -5001921.36861
  19059542.4864    -523863.19547   -391536.09464
  22076494.5724   -3818738.82645  -2802910.90361
  21720838.494     4687015.287 5   3661829.10921
  19189330.190   -26229592.891 7 -20262686.98623
 91  4 24 23  0 44.9940000  0  5G13G 2G15G19G 6
  20971949.955    -8639545.360 6  -5053452.87621
  19058092.1194    -531482.96847   -397473.57463
  22071915.877    -3842809.354 5  -2821667.09621
  21726427.1194    4716410.45145   3684734.29861
  19183445.7214  -26260516.48147 -20286783.26163
 91  4 24 23  0 59.9940000  0  5G13G 2G15G19G 6
  20959378.6584   -8705601.89946  -5104925.28861
  19056653.8694    -539047.38747   -403367.92163
  22067358.4944   -3866754.16445  -2840325.33161
  21732038.0254    4745865.32145   3707686.02361
  19177574.455   -26291371.576 7 -20310826.16823
 91  4 24 23  1 14.9940000  0  5G13G 2G15G19G 6
  20946822.627    -8771584.589 6  -5156340.16421
  19055224.7134    -546558.74547   -409220.91964
  22062823.190    -3890575.116 5  -2858887.05621
  21737648.3464    4775377.32245   3730682.25961
  19171715.5334  -26322160.26847 -20334817.33763
 91  4 24 23  1 29.9940000  0  5G13G 2G15G19G 6
  20934282.5884   -8837492.68246  -5207696.91061
  19053805.0494    -554017.02247   -415032.55764
  22058315.0884   -3914271.71945  -2877351.88261
  21743278.9404    4804946.65745   3753723.16761
  19165868.588   -26352882.183 7 -20358756.46223
 91  4 24 23  1 44.9940000  0  5G13G 2G15G19G 6
  20921753.2294   -8903327.96646  -5258996.92161
  19052395.9404    -561424.31947   -420804.47164
  22053828.2364   -3937846.03945  -2895721.41361
  21748915.354     4834571.126 5   3776807.04221
  19160034.111   -26383539.080 7 -20382644.92923
 91  4 24 23  1 59.9940000  0  5G13G 2G15G19G 6
  20909239.525    -8969091.678 6  -5310241.15621
  19050995.2914    -568782.14647   -426537.83364
  22049367.9634   -3961299.32845  -2913996.64661
  21754564.604     4864249.188 5   3799932.66421
  19154213.7134  -26414132.09947 -20406483.61763
 91  4 24 23  2 14.9940000  0  5G13G 2G15G19G 6
  20896739.0254   -9034778.09946  -5361425.17861
  19049605.0334    -576085.18847   -432228.50664
  22044924.6824   -3984625.95945  -2932173.18161
  21760221.057     4893986.120 5   3823104.16721
  19148405.3304  -26444655.69147 -20430268.20663
 91  4 24 23  2 29.9940000  0  5G13G 2G15G19G 6
  20884254.361    -9100384.906 6  -5412547.16221
  19048226.7834    -583331.85247   -437875.24964
  22040511.2684   -4007823.82845  -2950249.38161
  21765894.166     4923783.689 5   3846322.91421
  19142611.6824  -26475107.90947 -20453997.17863
 91  4 24 23  2 44.9940000  0  5G13G 2G15G19G 6
  20871784.830    -9165916.140 6  -5463610.24821
  19046856.7684    -590526.16647   -443481.20464
  22036122.580    -4030897.068 5  -2968228.47921
  21771572.354     4953637.532 5   3869585.51021
  19136828.275   -26505492.707 7 -20477673.61523
 91  4 24 23  2 59.9940000  0  5G13G 2G15G19G 6
  20859328.0804   -9231371.31546  -5514614.07361
  19045498.2294    -597668.08947   -449046.33164
  22031757.635    -4053845.328 5  -2986110.18121
  21777267.9404    4983547.55545   3892891.88161
  19131059.072   -26535809.848 7 -20501297.34023
 91  4 24 23  3 14.9940000  0  5G13G 2G15G19G 6
  20846887.5414   -9296750.19446  -5565558.44861
  19044148.4634    -604757.92847   -454570.87064
  22027413.4634   -4076668.58845  -3003894.48161
  21782966.4864    5013513.54545   3916241.85561
  19125303.3464  -26566059.04747 -20524868.11663
 91  4 24 23  3 29.9940000  0  5G13G 2G15G19G 6
  20834457.924    -9362054.562 6  -5616444.76321
  19042809.7754    -611797.83047   -460056.50164
  22023092.846    -4099369.048 5  -3021583.10121
  21788682.565     5043533.186 5   3939633.64221
  19119558.830   -26596242.208 7 -20548387.44223
 91  4 24 23  3 44.9940000  0  5G13G 2G15G19G 6
  20822046.3154   -9427281.16446  -5667270.49461
  19041479.0654    -618785.28647   -465501.26764
  22018796.018    -4121943.707 5  -3039173.69321
  21794403.471     5073609.073 5   3963069.26421
  19113828.9084  -26626356.43247 -20571853.03863
 91  4 24 23  3 59.9940000  0  5G13G 2G15G19G 6
  20809648.604    -9492429.432 6  -5718035.17821
  19040159.2054    -625719.74147   -470904.73364
  22014522.6354   -4144391.55845  -3056665.49161
  21800140.2754    5103741.79245   3986549.15061
  19108111.533   -26656400.966 7 -20595264.34023
 91  4 24 23  4 14.9940000  0  5G13G 2G15G19G 6
  20797267.072    -9557500.460 6  -5768739.66821
  19038851.0574    -632602.89947   -476268.22464
  22010274.5414   -4166714.03545  -3074059.57461
  21805878.8694    5133929.58345   4010071.96461
  19102407.9164  -26686377.15147 -20618622.37663
 91  4 24 23  4 29.9940000  0  5G13G 2G15G19G 6
  20784898.190    -9622494.794 6  -5819384.41221
  19037549.7524    -639436.03847   -481592.74164
  22006051.947    -4188912.238 5  -3091356.82521
  21811639.143     5164171.192 5   4033636.71121
  19096715.9404  -26716285.88547 -20641927.84563
 91  4 24 23  4 44.9940000  0  5G13G 2G15G19G 6
  20772545.5884   -9687410.54546  -5869967.91461
  19036259.2914    -646217.07647   -486876.66064
  22001852.8464   -4210984.00045  -3108555.56361
  21817404.6044    5194468.42445   4057244.79361
  19091037.4864  -26746125.10147 -20665179.15863
 91  4 24 23  4 59.9940000  0  5G13G 2G15G19G 6
  20760206.424    -9752253.067 6  -5920494.36021
  19034978.924     -652951.810 8   -492124.49324
  21997675.1824   -4232934.94345  -3125660.14861
  21823179.4554    5224815.44545   4080891.67161
  19085371.713   -26775900.127 7 -20688380.45123
 91  4 24 23  5 14.9940000  0  5G13G 2G15G19G 6
  20747883.010    -9817016.418 6  -5970959.11421
  19033705.5654    -659634.54547   -497331.81064
  21993521.057    -4254759.078 5  -3142665.92021
  21828964.7054    5255217.94245   4104581.77061
  19079718.0724  -26805605.01047 -20711527.08463
 91  4 24 23  5 29.9940000  0  5G13G 2G15G19G 6
  20735572.1114   -9881698.84746  -6021360.82461
  19032445.6114    -666264.29848   -502497.85064
  21989390.869    -4276455.072 5  -3159571.84321
  21834760.7754    5285676.86445   4128315.83561
  19074079.604   -26835238.454 7 -20734618.05423
 91  4 24 23  5 44.9940000  0  5G13G 2G15G19G 6
  20723278.4164   -9946300.52546  -6071699.59661
  19031193.861     -672841.793 8   -507623.15724
  21985290.658    -4298023.249 5  -3176378.16721
  21840564.080     5316191.449 5   4152093.27521
  19068453.869   -26864800.835 7 -20757653.64523
 91  4 24 23  5 59.9940000  0  5G13G 2G15G19G 6
  20711002.213   -10010819.583 6  -6121973.99321
  19029952.4474    -679365.48147   -512706.53864
  21981210.002    -4319461.603 5  -3193083.33521
  21846387.1504    5346763.23845   4175915.29461
  19062841.6194  -26894290.24447 -20780632.37463
 91  4 24 23  6 14.9940000  0  5G13G 2G15G19G 6
  20698739.979   -10075258.733 6  -6172186.12921
  19028720.3304    -685838.47948   -517750.43664
  21977153.072    -4340773.371 5  -3209689.87421
  21852208.3614    5377388.97945   4199779.35461
  19057243.6434  -26923709.57447 -20803556.50063
 91  4 24 23  6 29.9940000  0  5G13G 2G15G19G 6
  20686493.6434  -10139615.90446  -6222334.39061
  19027498.0804    -692258.89847   -522753.34864
  21973122.252    -4361956.500 5  -3226196.15821
  21858052.072     5408070.554 5   4223686.90821
  19051659.775   -26953056.565 7 -20826424.26123
 91  4 24 23  6 44.9940000  0  5G13G 2G15G19G 6
  20674260.8694  -10203889.77946  -6272417.74361
  19026285.6974    -698626.06047   -527714.76764
  21969117.760    -4383009.938 5  -3242601.40221
  21863898.4794    5438808.54645   4247638.43861
  19046088.6114  -26982330.35547 -20849234.98263
 91  4 24 23  6 59.9940000  0  5G13G 2G15G19G 6
  20662047.0414  -10268080.66846  -6322436.43261
  19025084.4714    -704940.95247   -532635.45663
  21965132.635    -4403934.323 5  -3258906.06321
  21869761.6664    5469602.01345   4271633.19361
  19040531.9324  -27011531.44847 -20871989.05063
 91  4 24 23  7 14.9940000  0  5G13G 2G15G19G 6
  20649847.893   -10332189.213 6  -6372390.95321
  19023892.3854    -711204.13147   -537515.84863
  21961178.1044   -4424730.01145  -3275110.45461
  21875629.7604    5500450.18645   4295670.57161
  19034988.775   -27040660.347 7 -20894686.87323
 91  4 24 23  7 29.9940000  0  5G13G 2G15G19G 6
  20637662.174   -10396220.424 6  -6422285.22321
  19022710.2214    -717420.91147   -542360.08763
  21957243.1904   -4445402.13645  -3291218.56761
  21881507.744     5531347.728 5   4319746.40921
  19029459.229   -27069721.851 7 -20917332.17123
 91  4 24 23  7 44.9940000  0  5G13G 2G15G19G 6
  20625492.8544  -10460169.93646  -6472115.83361
  19021538.0254    -723587.65547   -547165.32963
  21953335.729    -4465946.856 5  -3307227.38721
  21887400.6904    5562298.19445   4343863.50261
  19023941.518   -27098712.149 7 -20939921.99223
 91  4 24 23  7 59.9940000  0  5G13G 2G15G19G 6
  20613338.8934  -10524034.74246  -6521880.44861
  19020373.9404    -729701.51847   -551929.37363
  21949447.580    -4486361.316 5  -3323134.73821
  21893303.8464    5593304.27445   4368023.92861
  19018439.205   -27127628.121 7 -20962453.89523
 91  4 24 23  8 14.9940000  0  5G13G 2G15G19G 6
  20601202.3854  -10587816.99046  -6571580.72361
  19019217.8304    -735765.02447   -556654.17963
  21945590.604    -4506647.740 5  -3338942.29921
  21899208.0024    5624363.63945   4392225.87361
  19012950.768   -27156472.080 7 -20984929.68823
 91  4 24 23  8 29.9940000  0  5G13G 2G15G19G 6
  20589081.275   -10651515.865 6  -6621216.03521
  19018075.0184    -741777.98547   -561339.60364
  21941752.4324   -4526805.62845  -3354649.69961
  21905135.9794    5655476.41445   4416469.43061
  19007476.049   -27185243.217 7 -21007348.73423
 91  4 24 23  8 44.9940000  0  5G13G 2G15G19G 6
  20576975.6974  -10715132.15646  -6670786.99561
  19016939.9474    -747741.40947   -565986.42763
  21937941.9164   -4546835.54945  -3370257.39861
  21911061.596     5686641.334 5   4440753.63621
  19002013.674   -27213942.470 7 -21029711.76423
 91  4 24 23  8 59.9940000  0  5G13G 2G15G19G 6
  20564885.6434  -10778660.70946  -6720289.58761
  19015815.2604    -753650.58647   -570590.98064
  21934154.4944   -4566732.63845  -3385761.58261
  21917006.8934    5717863.11445   4465082.13261
  18996567.729   -27242564.958 7 -21052014.98023
 91  4 24 23  9 14.9940000  0  5G13G 2G15G19G 6
  20552812.768   -10842100.629 6  -6769723.11621
  19014701.2834    -759504.87247   -575152.75564
  21930392.8614   -4586496.08545  -3401161.63961
  21922954.674     5749142.461 5   4489455.48821
  18991135.986   -27271109.423 7 -21074257.40123
 91  4 24 23  9 29.9940000  0  5G13G 2G15G19G 6
  20540756.018   -10905455.020 6  -6819090.01021
  19013597.9084    -765307.88947   -579674.59063
  21926657.0654   -4606129.19745  -3416460.12361
  21928921.8854    5780475.54445   4513870.72561
  18985717.611   -27299579.561 7 -21096441.90523
 91  4 24 23  9 44.9940000  0  5G13G 2G15G19G 6
  20528716.025   -10968725.482 6  -6868391.49421
  19012502.9474    -771061.84647   -584158.19563
  21922946.1824   -4625634.18845  -3431658.78061
  21934890.6904    5811860.14645   4538326.09661
  18980313.557   -27327977.013 7 -21118569.77923
 91  4 24 23  9 59.9940000  0  5G13G 2G15G19G 6
  20516694.518   -11031905.836 6  -6917622.77521
  19011417.4554    -776760.87047   -588598.98864
  21919260.854    -4645005.089 5  -3446752.95021
  21940872.971     5843302.170 5   4562826.21121
  18974924.955   -27356295.520 7 -21140636.12923
 91  4 24 23 10 14.9940000  0  5G13G 2G15G19G 6
  20504687.041   -11095003.178 6  -6966789.36521
  19010342.0724    -782412.33747   -593002.72664
  21915598.908    -4664249.161 5  -3461748.29321
  21946866.1044    5874793.98745   4587365.12561
  18969549.815   -27384542.482 7 -21162646.73223
 91  4 24 23 10 29.9940000  0  5G13G 2G15G19G 6
  20492694.9084  -11158014.25746  -7015888.75761
  19009276.2604    -788013.55447   -597367.31364
  21911956.486    -4683363.125 5  -3476642.26921
  21952871.8384    5906338.40945   4611945.04661
  18964188.557   -27412714.669 7 -21184599.06723
 91  4 24 23 10 44.9940000  0  5G13G 2G15G19G 6
  20480721.635   -11220937.016 6  -7064919.30421
  19008220.6744    -793562.55147   -601691.21864
  21908348.2754   -4702344.87945  -3491433.20761
  21958882.2444    5937937.09045   4636567.23661
  18958842.150   -27440809.875 7 -21206491.41923
 91  4 24 23 10 59.9940000  0  5G13G 2G15G19G 6
  20468763.315   -11283772.791 6  -7113882.08821
  19007174.4554    -799060.99947   -605975.72464
  21904759.807    -4721195.867 5  -3506122.25421
  21964906.2684    5969588.29345   4661230.33661
  18953510.690   -27468829.520 7 -21228324.89023
 91  4 24 23 11 14.9940000  0  5G13G 2G15G19G 6
  20456824.010   -11346518.455 6  -7162774.64321
  19006138.2214    -804506.23147   -610218.76464
  21901198.6274   -4739913.50445  -3520707.40161
  21970937.729     6001294.696 5   4685936.46121
  18948193.135   -27496770.695 7 -21250097.21623
 91  4 24 23 11 29.9940000  0  5G13G 2G15G19G 6
  20444902.2684  -11409175.13446  -7211597.87961
  19005110.4474    -809899.77147   -614421.52964
  21897661.932    -4758499.019 5  -3535189.58721
  21976986.3464    6033054.55345   4710684.24861
  18942891.549   -27524634.613 7 -21271809.34623
 91  4 24 23 11 44.9940000  0  5G13G 2G15G19G 6
  20432994.979   -11471739.121 6  -7260348.86721
  19004096.3614    -815238.72848   -618581.75764
  21894152.7294   -4776949.01545  -3549566.17761
  21983038.8774    6064871.05245   4735476.15461
  18937604.221   -27552417.984 7 -21293458.70923
 91  4 24 23 11 59.9940000  0  5G13G 2G15G19G 6
  20421105.7834  -11534214.63946  -7309030.94161
  19003089.2054    -820527.51648   -622702.89164
  21890665.6194   -4795267.57945  -3563840.35161
  21989104.369     6096739.626 5   4760308.64821
  18932331.0964  -27580124.87247 -21315048.47863
 91  4 24 23 12 14.9940000  0  5G13G 2G15G19G 6
  20409234.369   -11596601.230 6  -7357643.69821
  19002092.7994    -825765.90747   -626784.75964
  21887204.6584   -4813454.55245  -3578011.99561
  21995175.307     6128660.331 5   4785181.75721
  18927073.729   -27607754.992 7 -21336578.42523
 91  4 24 23 12 29.9940000  0  5G13G 2G15G19G 6
  20397379.1824  -11658899.58446  -7406187.72561
  19001104.6664    -830955.17148   -630828.34164
  21883769.4714   -4831510.74545  -3592081.72161
  22001264.010     6160631.939 5   4810094.53021
  18921830.283   -27635309.068 7 -21358049.11823
 91  4 24 23 12 44.9940000  0  5G13G 2G15G19G 6
  20385541.7684  -11721102.59646  -7454657.45261
  19000128.2684    -836088.25647   -634828.14664
  21880360.5184   -4849429.25045  -3606044.15161
  22007354.5884    6192661.36845   4835052.36161
  18916603.150   -27662780.003 7 -21379455.02023
 91  4 24 23 12 59.9940000  0  5G13G 2G15G19G 6
  20373723.565   -11783211.697 6  -7503053.99921
  18999162.0414    -841167.06048   -638785.65664
  21876974.775    -4867211.783 5  -3619900.65521
  22013462.791     6224746.616 5   4860053.69321
  18911390.658   -27690169.212 7 -21400797.25123
 91  4 24 23 13 14.9940000  0  5G13G 2G15G19G 6
  20361921.299   -11845232.917 6  -7551382.07121
  18998204.8224    -846198.02248   -642705.88764
  21873615.182    -4884864.639 5  -3633656.09421
  22019576.338     6256880.852 5   4885093.19521
  18906193.268   -27717482.911 7 -21422080.63723
 91  4 24 23 13 29.9940000  0  5G13G 2G15G19G 6
  20350137.4554  -11907159.33446  -7599636.27461
  18997258.0414    -851174.71048   -646583.82564
  21870283.3224   -4902380.94545  -3647305.13761
  22025705.322     6289070.684 5   4910176.01621
  18901011.111   -27744714.210 7 -21443299.81323
 91  4 24 23 13 44.9940000  0  5G13G 2G15G19G 6
  20338369.4634  -11968996.47046  -7647820.90361
  18996319.1114    -856102.88647   -650423.96364
  21866972.924    -4919766.365 5  -3660852.17721
  22031838.971     6321310.315 5   4935297.62721
  18895843.924   -27771868.753 7 -21464459.17923
 91  4 24 23 13 59.9940000  0  5G13G 2G15G19G 6
  20326619.1434  -12030745.21446  -7695936.65861
  18995390.3384    -860983.71248   -654227.20464
  21863691.5024   -4937022.02745  -3674298.11061
  22037983.6194    6353598.54845   4960457.11961
  18890692.104   -27798947.514 7 -21485559.49623
 91  4 24 23 14 14.9940000  0  5G13G 2G15G19G 6
  20314886.6274  -12092399.00946  -7743978.42861
  18994472.8774    -865811.21348   -657988.89564
  21860432.713    -4954141.485 5  -3687637.91321
  22044136.658     6385941.152 5   4985658.98021
  18885552.580   -27825944.144 7 -21506595.81023
 91  4 24 23 14 29.9940000  0  5G13G 2G15G19G 6
  20303171.1664  -12153959.91046  -7791947.81261
  18993562.5024    -870587.87748   -661710.97064
  21857199.6584   -4971127.05945  -3700873.39261
  22050303.002     6418335.564 5   5010901.21221
  18880432.604   -27852860.780 7 -21527569.79423
 91  4 24 23 14 44.9940000  0  5G13G 2G15G19G 6
  20291475.049   -12215428.791 6  -7839845.49921
  18992663.2684    -875314.71848   -665394.22764
  21853994.1664   -4987979.62245  -3714005.23861
  22056477.135     6450780.868 5   5036183.09921
  18875325.166   -27879698.013 7 -21548481.90723
 91  4 24 23 14 59.9940000  0  5G13G 2G15G19G 6
  20279795.2054  -12276804.41646  -7887670.52061
  18991774.0884    -879991.15848   -669038.20464
  21850811.4864   -5004698.27545  -3727032.71961
  22062660.9714    6483277.66845   5061505.09461
  18870232.127   -27906455.135 7 -21569331.59423
 91  4 24 23 15 14.9940000  0  5G13G 2G15G19G 6
  20268134.104   -12338083.826 6  -7935420.55421
  18990894.4404    -884614.37848   -672640.71064
  21847657.2754   -5021280.14545  -3739953.62961
  22068855.2134    6515828.35845   5086869.09361
  18865157.025   -27933129.130 7 -21590116.50723
 91  4 24 23 15 29.9940000  0  5G13G 2G15G19G 6
  20256491.3854  -12399266.70946  -7983095.38761
  18990024.4474    -889184.60848   -676201.92964
  21844526.5884   -5037725.41145  -3752768.09461
  22075058.252     6548432.951 5   5112275.09921
  18860096.815   -27959719.690 7 -21610836.40223
 91  4 24 23 15 44.9940000  0  5G13G 2G15G19G 6
  20244866.1824  -12460357.46646  -8030698.42661
  18989164.1664    -893706.51948   -679725.49764
  21841422.9634   -5054038.51645  -3765479.57361
  22081271.9714    6581086.57145   5137719.29361
  18855052.182   -27986231.330 7 -21631494.80823
 91  4 24 23 15 59.9940000  0  5G13G 2G15G19G 6
  20233257.525   -12521352.397 6  -8078226.79921
  18988313.0254    -898176.72448   -683208.77564
  21838344.5964   -5070216.03845  -3778085.39961
  22087495.9864    6613792.48245   5163204.25261
  18850022.002   -28012660.431 7 -21652088.89423
 91  4 24 23 16 14.9940000  0  5G13G 2G15G19G 6
  20221670.2134  -12582252.34146  -8125681.16061
  18987472.1434    -902596.41148   -686652.68964
  21835288.7524   -5086258.76845  -3790586.19961
  22093729.041     6646549.470 5   5188729.00621
  18845009.010   -28039007.762 7 -21672619.26323
 91  4 24 23 16 29.9940000  0  5G13G 2G15G19G 6
  20210097.580   -12643059.929 6  -8173063.55021
  18986640.0184    -906968.69248   -690059.65964
  21832264.604    -5102169.806 5  -3802984.36921
  22099974.150     6679354.251 5   5214291.00421
  18840010.900   -28065276.213 7 -21693088.16723
 91  4 24 23 16 44.9940000  0  5G13G 2G15G19G 6
  20198545.6114  -12703773.63046  -8220372.78361
  18985817.8154    -911292.55248   -693428.89964
  21829261.361    -5117948.065 5  -3815279.09921
  22106224.955     6712207.844 5   5239891.03321
  18835026.330   -28091464.508 7 -21713494.61623
 91  4 24 23 16 59.9940000  0  5G13G 2G15G19G 6
  20187009.088   -12764390.891 6  -8267606.87321
  18985004.9164    -915565.55448   -696758.51564
  21826285.4864   -5133590.92545  -3827468.31061
  22112484.650     6745112.200 5   5265530.62321
  18830058.830   -28117569.853 7 -21733836.42723
 91  4 24 23 17 14.9930000  0  5G13G 2G15G19G 6
  20175494.310   -12824907.815 6  -8314762.77621
  18984200.9974    -919787.75548   -700048.54164
  21823333.3724   -5149097.24245  -3839551.11961
  22118758.060     6778064.953 5   5291207.92021
  18825106.724   -28143590.684 7 -21754112.37423
 91  4 24 23 17 29.9930000  0  5G13G 2G15G19G 6
  20163995.6854  -12885332.65146  -8361846.92161
  18983407.5834    -923960.48648   -703300.01064
  21820407.5674   -5164469.69245  -3851529.61461
  22125038.341     6811069.549 5   5316925.60921
  18820170.614   -28169530.898 7 -21774325.50123
 91  4 24 23 17 44.9930000  0  5G13G 2G15G19G 6
  20152514.091   -12945662.621 6  -8408857.14921
  18982622.3494    -928085.02747   -706513.93364
  21817505.4824   -5179708.67845  -3863404.11361
  22131327.622     6844122.209 5   5342680.76621
  18815250.263   -28195390.060 7 -21794475.48123
 91  4 24 23 17 59.9930000  0  5G13G 2G15G19G 6
  20141052.802   -13005890.251 6  -8455787.63221
  18981847.8174    -932154.37947   -709684.85464
  21814635.497    -5194807.167 5  -3875169.14621
  22137631.6854    6877229.91645   5368478.79461
  18810347.271   -28221160.760 7 -21814556.53323
 91  4 24 23 18 14.9930000  0  5G13G 2G15G19G 6
  20129610.435   -13066019.212 6  -8502641.23021
  18981082.7474    -936172.25947   -712815.67164
  21811786.6144   -5209768.70745  -3886827.45561
  22143938.107     6910388.577 5   5394316.55121
  18805458.497   -28246846.706 7 -21834571.53523
 91  4 24 23 18 29.9930000  0  5G13G 2G15G19G 6
  20118187.317   -13126048.369 6  -8549417.05721
  18980328.8104    -940138.30748   -715906.09864
  21808967.5754   -5224592.48345  -3898378.41561
  22150261.9584    6943598.74944   5420194.42761
  18800586.239   -28272446.951 7 -21854519.75023
 91  4 24 23 18 44.9930000  0  5G13G 2G15G19G 6
  20106783.802   -13185974.995 6  -8596112.98721
  18979584.0754    -944050.14647   -718954.28264
  21806173.6384   -5239276.38445  -3909820.38461
  22156587.060     6976862.643 5   5446114.18021
  18795733.302   -28297958.957 7 -21874399.21623
 91  4 24 23 18 59.9930000  0  5G13G 2G15G19G 6
  20095397.169   -13245812.938 6  -8642739.81021
  18978846.9504    -947921.63448   -721971.02464
  21803402.6924   -5253834.05445  -3921163.98861
  22162930.161     7010166.306 4   5472064.90121
  18790891.966   -28323396.286 7 -21894220.49423
 91  4 24 23 19 14.9930000  0  5G13G 2G15G19G 6
  20084029.325   -13305552.135 6  -8689289.70621
  18978119.2474    -951743.25747   -724948.91364
  21800658.9894   -5268255.56145  -3932401.49561
  22169273.325     7043519.240 4   5498054.05521
  18786066.575   -28348749.082 7 -21913975.90623
 91  4 24 23 19 29.9930000  0  5G13G 2G15G19G 6
  20072679.4274  -13365193.56246  -8735763.41261
  18977400.8024    -955516.49648   -727889.09964
  21797940.653    -5282542.157 5  -3943533.88521
  22175632.0914    7076919.99144   5524080.43061
  18781259.107   -28374018.481 7 -21933666.32923
 91  4 24 23 19 44.9930000  0  5G13G 2G15G19G 6
  20061350.505   -13424733.653 6  -8782158.14321
  18976693.5754    -959238.13148   -730789.07864
  21795247.3104   -5296690.49045  -3954558.52461
  22181992.6694    7110371.67044   5550146.49061
  18776466.810   -28399200.917 7 -21953288.99123
 91  4 24 23 19 59.9930000  0  5G13G 2G15G19G 6
  20050038.083   -13484175.394 6  -8828476.24921
  18975995.9354    -962911.37148   -733651.34264
  21792581.302    -5310703.907 5  -3965478.03621
  22188369.5214    7143870.83344   5576249.55661
  18771689.817   -28424299.486 7 -21972846.30023
 91  4 24 23 20 14.9930000  0  5G13G 2G15G19G 6
  20038744.989   -13543516.657 6  -8874716.06421
  18975305.9274    -966534.42848   -736474.50864
  21789939.5444   -5324580.59545  -3976291.00461
  22194754.997     7177419.193 4   5602390.94921
  18766930.716   -28449312.145 7 -21992336.66723
 91  4 24 23 20 29.9930000  0  5G13G 2G15G19G 6
  20027471.286   -13602762.009 6  -8920881.13921
  18974624.2864    -970111.96848   -739262.19664
  21787324.2944   -5338325.09845  -3987000.96861
  22201148.4274    7211011.93744   5628566.93561
  18762186.161   -28474243.405 7 -22011763.60523
 91  4 24 23 20 44.9930000  0  5G13G 2G15G19G 6
  20016216.4974  -13661909.20246  -8966969.73461
  18973953.1144    -973642.27948   -742013.08564
  21784735.810    -5351935.302 5  -3997606.29421
  22207547.2634    7244650.69744   5654778.77061
  18757456.591   -28499091.139 7 -22031125.46023
 91  4 24 23 20 59.9930000  0  5G13G 2G15G19G 6
  20004981.5914  -13720957.06746  -9012980.92861
  18973290.0214    -977124.71748   -744726.67264
  21782170.3414   -5365410.60945  -4008106.49861
  22213963.310     7278336.021 4   5681026.90621
  18752744.771   -28523854.430 7 -22050421.51423
 91  4 24 23 21 14.9930000  0  5G13G 2G15G19G 6
  19993763.2164  -13779904.48646  -9058913.85361
  18972637.2784    -980558.62348   -747402.43864
  21779632.2634   -5378749.71945  -4018500.57261
  22220376.544     7312068.757 5   5707311.96321
  18748049.427   -28548532.017 7 -22069650.78723
 91  4 24 23 21 29.9930000  0  5G13G 2G15G19G 6
  19982563.388   -13838748.399 6  -9104766.11521
  18971993.7324    -983941.11248   -750038.14364
  21777118.9424   -5391950.04645  -4028786.50161
  22226808.060     7345851.378 4   5733635.89521
  18743370.989   -28573120.951 7 -22088810.97923
 91  4 24 23 21 44.9930000  0  5G13G 2G15G19G 6
  19971386.411   -13897492.421 6  -9150540.55021
  18971358.9274    -987275.96248   -752636.72564
  21774631.161    -5405015.202 5  -4038967.11421
  22233241.458     7379679.931 5   5759995.62621
  18738706.911   -28597624.836 7 -22107904.90123
 91  4 24 23 21 59.9930000  0  5G13G 2G15G19G 6
  19960226.2784  -13956135.68546  -9196236.47861
  18970733.1464    -990562.94048   -755198.00664
  21772171.880    -5417944.864 5  -4049042.12221
  22239694.9584    7413554.55045   5786391.24461
  18734059.294   -28622043.078 7 -22126932.08423
 91  4 24 23 22 14.9930000  0  5G13G 2G15G19G 6
  19949085.919   -14014675.389 6  -9241851.69421
  18970117.0134    -993799.38148   -757719.90864
  21769738.7554   -5430736.24745  -4059009.40961
  22246144.5364    7447477.93645   5812824.87061
  18729432.107   -28646372.796 7 -22145890.29523
 91  4 24 23 22 29.9930000  0  5G13G 2G15G19G 6
  19937964.935   -14073112.911 6  -9287387.29921
  18969511.4194    -996987.16148   -760203.88864
  21767330.9424   -5443390.84645  -4068870.09761
  22252612.3724    7481448.04345   5839294.90561
  18724817.310   -28670615.558 7 -22164780.74123
 91  4 24 23 22 44.9930000  0  5G13G 2G15G19G 6
  19926864.9034  -14131449.46646  -9332844.22261
  18968913.1614   -1000127.72948   -762651.08464
  21764947.5754   -5455910.22945  -4078625.41961
  22259081.802     7515463.364 5   5865800.16321
  18720219.810   -28694772.450 7 -22183604.27523
 91  4 24 23 22 59.9930000  0  5G13G 2G15G19G 6
  19915784.1224  -14189681.73846  -9378219.90361
  18968324.3254   -1003217.92548   -765059.03164
  21762592.9114   -5468291.00645  -4088272.73561
  22265567.1614    7549526.82545   5892342.93461
  18715640.857   -28718840.190 7 -22202358.34023
 91  4 24 23 23 14.9930000  0  5G13G 2G15G19G 6
  19904721.2864  -14247809.26146  -9423513.94261
  18967745.9274   -1006257.82848   -767427.78264
  21760263.653    -5480533.311 5  -4097812.14921
  22272055.497     7583638.404 5   5918923.19421
  18711077.669   -28742818.446 7 -22221042.67923
 91  4 24 23 23 29.9930000  0  5G13G 2G15G19G 6
  19893680.0284  -14305832.25646  -9468726.54461
  18967177.7324   -1009247.94848   -769757.73964
  21757961.1774   -5492637.46145  -4107243.92161
  22278558.7784    7617797.42145   5945540.42661
  18706532.419   -28766707.615 7 -22239657.59823
 91  4 24 23 23 44.9930000  0  5G13G 2G15G19G 6
  19882657.8254  -14363753.44346  -9513859.80861
  18966617.1534   -1012191.39848   -772051.33964
  21755684.341    -5504606.327 5  -4116570.26121
  22285065.005     7652000.617 5   5972192.07021
  18702002.083   -28790510.310 7 -22258205.13923
 91  4 24 23 23 59.9930000  0  5G13G 2G15G19G 6
  19871654.6614  -14421573.17246  -9558914.02161
  18966065.7164   -1015088.82548   -774309.07364
  21753430.3724   -5516440.36545  -4125791.54461
  22291583.771     7686247.115 5   5998877.45621
  18697489.146   -28814226.977 7 -22276685.63823
 91  4 24 23 24 14.9930000  0  5G13G 2G15G19G 6
  19860672.8884  -14479289.37046  -9603887.55961
  18965523.4744   -1017938.40448   -776529.52664
  21751202.224    -5528137.849 5  -4134906.42921
  22298106.5604    7720538.85245   6025598.10561
  18692993.560   -28837855.698 7 -22295097.61423
 91  4 24 23 24 29.9930000  0  5G13G 2G15G19G 6
  19849709.114   -14536899.729 6  -9648778.61921
  18964990.8724   -1020738.11848   -778711.12264
  21749006.0284   -5539696.44245  -4143913.08161
  22304644.091     7754877.671 4   6052355.42221
  18688514.310   -28861394.037 7 -22313439.16123
 91  4 24 23 24 44.9930000  0  5G13G 2G15G19G 6
  19838767.192   -14594402.812 6  -9693586.10421
  18964468.7474   -1023486.66548   -780852.85064
  21746831.0444   -5551114.93445  -4152810.55761
  22311186.013     7789264.558 4   6079150.20421
  18684051.825   -28884840.509 7 -22331709.11723
 91  4 24 23 24 59.9930000  0  5G13G 2G15G19G 6
  19827844.1074  -14651802.67746  -9738313.14961
  18963952.7634   -1026188.56548   -782958.23264
  21744681.4274   -5562397.53545  -4161602.14761
  22317738.8574    7823695.25943   6105979.11661
  18679607.591   -28908199.259 7 -22349910.72523
 91  4 24 23 25 14.9930000  0  5G13G 2G15G19G 6
  19816939.9354  -14709100.09346  -9782960.36861
  18963448.3724   -1028845.26248   -785028.38964
  21742564.067    -5573545.636 5  -4170288.93621
  22324297.8884    7858168.16544   6132840.92061
  18675178.122   -28931471.369 7 -22368044.82223
 91  4 24 23 25 29.9930000  0  5G13G 2G15G19G 6
  19806057.6614  -14766290.06946  -9827523.85661
  18962952.4504   -1031452.04248   -787059.65064
  21740466.622    -5584554.541 5  -4178867.25721
  22330868.005     7892687.886 3   6159739.19221
  18670768.310   -28954651.823 7 -22386107.49923
 91  4 24 23 25 44.9930000  0  5G13G 2G15G19G 6
  19795193.9424  -14823376.17546  -9872006.41861
  18962463.8724   -1034012.95448   -789055.17364
  21738398.614    -5595428.303 5  -4187340.26721
  22337444.3574    7927249.96643   6186670.48561
  18666373.067   -28977744.574 7 -22404101.83523
 91  4 24 23 25 59.9930000  0  5G13G 2G15G19G 6
  19784352.8494  -14880351.24646  -9916402.46161
  18961987.7244   -1036520.81148   -791009.34664
  21736357.732    -5606159.554 5  -4195702.23921
  22344035.169     7961861.487 3   6213640.30221
  18661996.349   -29000742.138 7 -22422021.99723
 91  4 24 23 26 14.9930000  0  5G13G 2G15G19G 6
  19773530.2324  -14937219.82846  -9960715.52461
  18961520.2394   -1038980.57948   -792926.04964
  21734339.958    -5616752.759 5  -4203956.63621
  22350622.489     7996517.711 3   6240644.97121
  18657637.528   -29023649.164 7 -22439871.60923
 91  4 24 23 26 29.9930000  0  5G13G 2G15G19G 6
  19762728.333   -14993979.679 6 -10004943.86121
  18961060.2084   -1041390.41848   -794803.84964
  21732351.419    -5627206.246 5  -4212102.16221
  22357231.810     8031220.314 3   6267685.76021
  18653297.216   -29046463.361 7 -22457648.88623
 91  4 24 23 26 44.9930000  0  5G13G 2G15G19G 6
  19751946.4824  -15050633.91346 -10049089.90061
  18960610.3644   -1043753.57448   -796645.27064
  21730388.497    -5637523.306 5  -4220141.38721
  22363843.161     8065965.640 4   6294759.84721
  18648971.661   -29069187.974 7 -22475356.36523
 91  4 24 23 26 59.9930000  0  4G13G 2G15G 6
  19741187.6464  -15107182.18546 -10093153.38161
  18960169.1534   -1046070.19348   -798450.43664
  21728452.630    -5647703.557 5  -4228074.00521
  18644664.896   -29091822.702 7 -22492993.79623
 91  4 24 23 27 14.9930000  0  4G13G 2G15G 6
  19730447.653   -15163619.388 6 -10137130.30921
  18959740.560    -1048335.617 8   -800215.71324
  21726541.122    -5657742.425 5  -4235896.44921
  18640374.419   -29114362.592 7 -22510557.33123
 91  4 24 23 27 29.9930000  0  4G13G 2G15G 6
  19719727.8724  -15219947.32446 -10181022.08961
  18959317.7244   -1050551.41948   -801942.31664
  21724658.935    -5667641.856 5  -4243610.24721
  18636103.771   -29136809.228 7 -22528048.20123
 91  4 24 23 27 44.9930000  0  4G13G 2G15G 6
  19709029.075   -15276168.128 6 -10224830.39721
  18958903.7084   -1052720.30448   -803632.35664
  21722799.169    -5677404.135 5  -4251217.16521
  18631849.560   -29159164.787 7 -22545468.10123
 91  4 24 23 27 59.9930000  0  4G13G 2G15G 6
  19698352.099   -15332282.362 6 -10268555.65621
  18958501.8174   -1054843.37347   -805286.69464
  21720969.497    -5687030.119 5  -4258717.88221
  18627613.411   -29181430.056 7 -22562817.64723
 91  4 24 23 28 14.9930000  0  4G13G 2G15G 6
  19687694.505   -15388288.015 6 -10312196.31421
  18958106.4194   -1056918.79948   -806903.91764
  21719160.7164   -5696517.75045  -4266110.78961
  18623393.802   -29203603.157 7 -22580095.37523
 91  4 24 23 28 29.9930000  0  4G13G 2G15G 6
  19677058.442   -15444182.576 6 -10355750.39921
  18957719.4974   -1058944.36947   -808482.28464
  21717385.153    -5705864.989 5  -4273394.31221
  18619192.989   -29225681.543 7 -22597299.29723
 91  4 24 23 28 44.9930000  0  4G13G 2G15G 6
  19666442.732   -15499967.850 6 -10399219.33221
  18957343.9194   -1060922.01148   -810023.29464
  21715631.5674   -5715073.83345  -4280569.98361
  18615008.896   -29247666.963 7 -22614430.77523
 91  4 24 23 28 59.9930000  0  4G13G 2G15G 6
  19655847.208   -15555642.912 6 -10442602.39121
  18956976.7084   -1062851.49847   -811526.79264
  21713904.263    -5724144.054 5  -4287637.63721
  18610842.622   -29269558.753 7 -22631489.29423
 91  4 24 23 29 14.9930000  0  4G13G 2G15G 6
  19645274.7244  -15611207.19646 -10485899.11661
  18956619.2244   -1064732.42747   -812992.44664
  21712205.583    -5733074.701 5  -4294596.53121
  18606694.771   -29291356.310 7 -22648474.38423
 91  4 24 23 29 29.9930000  0  4G13G 2G15G 6
  19634720.5524  -15666661.16646 -10529109.89361
  18956268.6304   -1066565.62947   -814420.91864
  21710532.646    -5741866.799 5  -4301447.47421
  18602564.067   -29313060.120 7 -22665386.42723
 91  4 24 23 29 44.9930000  0  4G13G 2G15G 6
  19624190.607   -15722008.075 6 -10572237.24621
  18955930.1854   -1068354.56547   -815814.88964
  21708885.1464   -5750523.83345  -4308193.17461
  18598450.474   -29334673.430 7 -22682227.94823
 91  4 24 23 29 59.9930000  0  4G13G 2G15G 6
  19613678.614   -15777243.609 6 -10615277.81421
  18955597.6694   -1070095.28947   -817171.30364
  21707262.692    -5759041.558 5  -4314830.30921
  18594355.638   -29356191.948 7 -22698995.60223
 91  4 24 23 30 14.9930000  0  4G13G 2G15G 6
  19603187.755   -15832367.658 6 -10658231.50721
  18955275.8724   -1071787.89047   -818490.21464
  21705670.2784   -5767420.15445  -4321359.04061
  18590279.396   -29377615.576 7 -22715689.32623
 91  4 24 23 30 29.9930000  0  4G13G 2G15G 6
  19592720.513   -15887376.679 6 -10701095.56821
  18954962.6224   -1073428.85847   -819768.88764
  21704101.5604   -5775656.26545  -4327776.72961
  18586222.357   -29398940.822 7 -22732306.38223
 91  4 24 23 30 44.9930000  0  4G13G 2G15G 6
  19582273.044   -15942274.015 6 -10743872.60721
  18954660.7944   -1075022.19147   -821010.44664
  21702557.7244   -5783753.58245  -4334086.27361
  18582181.911   -29420171.077 7 -22748849.41923
 91  4 24 23 30 59.9930000  0  4G13G 2G15G 6
  19571847.974   -15997059.096 6 -10786562.17421
  18954366.9194   -1076567.80647   -822214.81264
  21701045.333    -5791711.841 5  -4340287.47621
  18578159.372   -29441306.237 7 -22765318.35723
 91  4 24 23 31 14.9930000  0  4G13G 2G15G 6
  19561444.474   -16051729.342 6 -10829162.25621
  18954080.9974   -1078063.04147   -823379.93064
  21699558.4194   -5799528.48045  -4346378.32461
  18574156.411   -29462343.123 7 -22781710.72423
 91  4 24 23 31 29.9930000  0  4G13G 2G15G 6
  19551062.841   -16106286.906 6 -10871674.53121
  18953806.4194   -1079510.42848   -824507.76564
  21698098.544    -5807206.003 5  -4352360.74721
  18570171.950   -29483284.131 7 -22798028.37223
 91  4 24 23 31 44.9930000  0  4G13G 2G15G 6
  19540701.216   -16160735.082 6 -10914101.57721
  18953540.8884   -1080913.47848   -825601.04164
  21696662.911    -5814747.892 5  -4358237.49821
  18566203.989   -29504132.715 7 -22814274.00623
 91  4 24 23 31 59.9930000  0  4G13G 2G15G 6
  19530362.857   -16215063.672 6 -10956435.43621
  18953282.6694   -1082262.41148   -826652.15964
  21695256.130    -5822144.121 5  -4364000.73821
  18562257.099   -29524878.514 7 -22830439.54823
 91  4 24 23 32 14.9930000  0  4G13G 2G15G 6
  19520046.200   -16269280.756 6 -10998682.40321
  18953035.2394   -1083565.64948   -827667.67464
  21693872.278    -5829403.169 5  -4369657.09121
  18558325.677   -29545529.752 7 -22846531.40423
 91  4 24 23 32 29.9930000  0  4G13G 2G15G 6
  19509748.903   -16323385.061 6 -11040841.49321
  18952796.0834   -1084822.41648   -828646.96664
  21692516.4034   -5836524.08345  -4375205.81461
  18554415.700   -29566085.183 7 -22862548.60823
 91  4 24 23 32 44.9930000  0  4G13G 2G15G 6
  19499475.708   -16377372.603 6 -11082909.60221
  18952565.3254   -1086028.93648   -829587.10564
  21691192.8174   -5843503.07745  -4380643.93661
  18550521.771   -29586541.047 7 -22878488.23023
 91  4 24 23 32 59.9930000  0  4G13G 2G15G 6
  19489224.427   -16431244.778 6 -11124887.81421
  18952345.6144   -1087186.62248   -830489.18864
  21689890.169    -5850341.406 5  -4385972.45321
  18546649.1464  -29606898.52847 -22894351.19263
 91  4 24 23 33 14.9930000  0  4G13G 2G15G 6
  19478995.700   -16484998.073 6 -11166773.39021
  18952136.0754   -1088292.09148   -831350.58764
  21688612.841    -5857035.609 5  -4391188.66621
  18542793.7164  -29627154.02447 -22910134.68363
 91  4 24 23 33 29.9930000  0  4G13G 2G15G 6
  19468789.4194  -16538632.84446 -11208566.61961
  18951934.1074   -1089346.20848   -832171.97964
  21687370.9194   -5863586.71245  -4396293.38161
  18538959.083   -29647308.033 7 -22925839.09123
 91  4 24 23 33 44.9930000  0  4G13G 2G15G 6
  19458604.903   -16592152.224 6 -11250269.93021
  18951745.4824   -1090352.47848   -832956.08364
  21686145.6074   -5869998.08945  -4401289.21161
  18535141.989   -29667363.857 7 -22941466.99123
 91  4 24 23 33 59.9930000  0  4G13G 2G15G 6
  19448441.857   -16645556.341 6 -11291883.41921
  18951561.5444   -1091311.37948   -833703.27764
  21684956.442    -5876270.311 5  -4406176.62321
  18531343.888   -29687321.706 7 -22957018.54023
 91  4 24 23 34 14.9930000  0  4G13G 2G15G 6
  19438299.833   -16698848.589 6 -11333409.74821
  18951386.1854   -1092226.63348   -834416.46064
  21683785.911    -5882406.904 5  -4410958.34321
  18527564.817   -29707185.028 7 -22972496.44723
 91  4 24 23 34 29.9930000  0  4G13G 2G15G 6
  19428183.364   -16752021.086 6 -11374842.75421
  18951222.6854   -1093090.67048   -835089.73364
  21682644.7554   -5888400.23445  -4415628.42561
  18523803.825   -29726945.832 7 -22987894.46423
 91  4 24 23 34 44.9930000  0  4G13G 2G15G 6
  19418087.388   -16805075.804 7 -11416183.99121
  18951066.1854   -1093905.53548   -835724.68264
  21681535.192    -5894252.519 5  -4420188.60521
  18520061.528   -29746606.129 7 -23003214.16523
 91  4 24 23 34 59.9930000  0  4G13G 2G15G 6
  19408012.942   -16858011.079 7 -11457432.15221
  18950920.2714   -1094669.90348   -836320.29864
  21680448.317    -5899962.158 5  -4424637.62121
  18516340.974   -29766164.235 7 -23018454.23823
 91  4 24 23 35 14.9930000  0  4G13G 2G15G 6
  19397962.177   -16910830.851 7 -11498590.31021
  18950784.9824   -1095387.93048   -836879.80164
  21679385.2944   -5905533.33045  -4428978.76161
  18512638.2004  -29785624.16747 -23033617.80963
 91  4 24 23 35 29.9930000  0  4G13G 2G15G 6
  19387932.419   -16963533.238 6 -11539657.00921
  18950656.3494   -1096058.05748   -837401.97364
  21678351.755    -5910964.478 5  -4433210.78221
  18508954.7784  -29804984.14247 -23048703.49763
 91  4 24 23 35 44.9930000  0  4G13G 2G15G 6
  19377925.958   -17016117.044 7 -11580631.29221
  18950541.0134   -1096679.17248   -837885.95864
  21677344.060    -5916254.583 5  -4437332.89221
  18505289.6464  -29824242.81047 -23063710.24163
 91  4 24 23 35 59.9930000  0  4G13G 2G15G 6
  19367943.1694  -17068583.64347 -11621514.25961
  18950431.8414   -1097253.22048   -838333.26764
  21676364.700    -5921405.347 5  -4441346.44021
  18501643.7554  -29843401.79647 -23078639.30963
 91  4 24 23 36 14.9930000  0  4G13G 2G15G 6
  19357980.0674  -17120933.57847 -11662306.31861
  18950328.0524   -1097780.90848   -838744.45064
  21675410.036    -5926417.484 5  -4445251.95621
  18498016.716   -29862461.434 7 -23093490.96523
 91  4 24 23 36 29.9930000  0  4G13G 2G15G 6
  19348039.4354  -17173168.47347 -11703008.73561
  18950239.8574   -1098264.28248   -839121.11164
  21674485.2474   -5931292.90545  -4449050.95461
  18494408.130   -29881423.575 7 -23108266.64323
 91  4 24 23 36 44.9930000  0  4G13G 2G15G 6
  19338124.810   -17225281.646 7 -11743616.30121
  18950153.4274   -1098696.54948   -839457.93864
  21673585.3414   -5936025.09845  -4452738.33261
  18490819.8414  -29900281.28747 -23122960.95363
 91  4 24 23 36 59.9930000  0  4G13G 2G15G 6
  19328230.8174  -17277269.15347 -11784125.95961
  18950081.9824   -1099074.30847   -839752.29164
  21672709.4664   -5940610.70045  -4456311.48861
  18487252.005   -29919030.819 7 -23137570.96523
 91  4 24 23 37 14.9930000  0  4G13G 2G15G 6
  19318360.9114  -17329137.46247 -11824542.72661
  18950023.4274   -1099404.36048   -840009.48464
  21671865.427    -5945056.250 5  -4459775.50821
  18483702.669   -29937678.867 7 -23152101.89923
 91  4 24 23 37 29.9930000  0  4G13G 2G15G 6
  19308512.2944  -17380889.17447 -11864868.63861
  18949964.8574   -1099689.38248   -840231.56964
  21671048.755    -5949364.564 5  -4463132.61021
  18480174.161   -29956227.781 7 -23166555.58123
 91  4 24 23 37 44.9930000  0  4G13G 2G15G 6
  19298687.5834  -17432516.43947 -11905097.57261
  18949923.7084   -1099921.72147   -840412.60664
  21670251.552    -5953527.951 5  -4466376.76621
  18476663.028   -29974669.756 7 -23180925.93523
 91  4 24 23 37 59.9930000  0  4G13G 2G15G 6
  19288887.6304  -17484020.63647 -11945230.62561
  18949887.4504   -1100103.19547   -840554.00864
  21669491.7944   -5957547.98945  -4469509.22561
  18473173.950   -29993006.216 7 -23195214.07223
 91  4 24 23 38 14.9930000  0  4G13G 2G15G 6
  19279108.8804  -17535406.35747 -11985271.35261
  18949859.7714   -1100238.60947
  21668748.2164   -5961429.51345  -4472533.75761
  18469704.669   -30011241.750 7 -23209423.56123
 91  4 24 23 38 29.9930000  0  4G13G 2G15G 6
  19269352.9584  -17586672.38847 -12025218.81961
  18949845.4744   -1100327.12347
  21668040.7324   -5965171.73445  -4475449.73561
  18466254.849   -30029375.301 7 -23223553.58423
 91  4 24 23 38 44.9930000  0  4G13G 2G15G 6
  19259618.8804  -17637817.38547 -12065071.96661
  18949838.1534   -1100367.52847
  21667354.0674   -5968773.43945  -4478256.22661
  18462822.716   -30047405.451 7 -23237603.03723
 91  4 24 23 38 59.9930000  0  4G13G 2G15G 6
  19249910.6924  -17688842.60747 -12104831.78761
  18949839.1074   -1100361.13847
  21666691.692    -5972236.005 5  -4480954.30421
  18459410.724   -30065333.240 7 -23251572.72623
 91  4 24 23 39 14.9930000  0  4G13G 2G15G 6
  19240224.2004  -17739744.05447 -12144495.16361
  18949849.4424   -1100304.43847
  21666058.8964   -5975556.06745  -4483541.33661
  18456020.286   -30083154.912 7 -23265459.71923
 91  4 24 23 39 29.9930000  0  4G13G 2G15G 6
  19230560.8884  -17790525.16947 -12184064.76761
  18949872.3964   -1100201.12047
  21665457.192    -5978737.057 5  -4486020.00821
  18452647.286   -30100873.915 7 -23279266.71423
 91  4 24 23 39 44.9930000  0  4G13G 2G15G 6
  19220920.1694  -17841186.09947 -12223540.72161
  18949897.708    -1100051.679 7
  21664878.255    -5981779.357 5  -4488390.58121
  18449295.442   -30118490.453 7 -23292993.86323
 91  4 24 23 39 59.9930000  0  4G13G 2G15G 6
  19211302.7084  -17891721.49647 -12262918.86161
  18949936.763    -1099850.858 7
  21664325.8644   -5984678.35845  -4490649.51861
  18445962.755   -30135999.297 7 -23306637.09823
 91  4 24 23 40 14.9930000  0  4G13G 2G15G 6
  19201710.7244  -17942131.25347 -12302199.10361
  18949985.2784   -1099598.64547   -840160.78664
  21663801.9354   -5987433.58345  -4492796.42161
  18442652.271   -30153400.069 7 -23320196.11723
 91  4 24 23 40 29.9930000  0  4G13G 2G15G 6
  19192141.052   -17992419.125 7 -12341384.35921
  18950039.2164   -1099299.06547   -839927.34364
  21663301.9194   -5990048.95145  -4494834.33661
  18439361.419   -30170696.545 7 -23333673.87223
 91  4 24 23 40 44.9930000  0  4G13G 2G15G 6
  19182594.4744  -18042586.81047 -12380475.97261
  18950107.1074   -1098954.26047   -839658.65664
  21662827.630    -5992526.752 5  -4496765.07521
  18436088.982   -30187890.726 7 -23347071.91523
 91  4 24 23 40 59.9930000  0  4G13G 2G15G 6
  19173070.9034  -18092630.63547 -12419471.07561
  18950179.8574   -1098560.86747   -839352.11264
  21662386.661    -5994863.590 5  -4498585.96221
  18432836.911   -30204978.926 7 -23360387.37623
 91  4 24 23 41 14.9930000  0  4G13G 2G15G 6
  19163570.8964  -18142549.67347 -12458368.93261
  18950264.3024   -1098118.17147   -839007.14864
  21661968.489    -5997058.560 5  -4500296.31121
  18429605.138   -30221960.010 7 -23373619.36923
 91  4 24 23 41 29.9930000  0  4G13G 2G15G 6
  19154096.1304  -18192343.16647 -12497168.96661
  18950360.0914   -1097625.78247   -838623.46864
  21661578.036    -5999111.476 5  -4501895.96221
  18426395.122   -30238833.458 7 -23386767.49523
 91  4 24 23 41 44.9930000  0  4G13G 2G15G 6
  19144644.5364  -18242010.81047 -12535870.93461
  18950463.8334   -1097083.39147   -838200.82564
  21661214.1854   -6001022.20945  -4503384.82461
  18423205.302   -30255598.650 7 -23399831.25923
 91  4 24 23 41 59.9930000  0  4G13G 2G15G 6
  19135217.7944  -18291547.80547 -12574471.09961
  18950576.7634   -1096486.60047   -837735.78564
  21660879.7324   -6002786.10045  -4504759.24761
  18420036.442   -30272251.174 7 -23412807.23423
 91  4 24 23 42 14.9930000  0  4G13G 2G15G 6
  19125816.0754  -18340959.75647 -12612973.83261
  18950697.0214   -1095841.51047   -837233.11464
  21660571.3334   -6004409.31645  -4506024.07161
  18416886.661   -30288796.715 7 -23425699.85023
 91  4 24 23 42 29.9930000  0  4G13G 2G15G 6
  19116436.3724  -18390244.87147 -12651377.73161
  18950833.1304   -1095146.21747   -836691.32364
  21660285.9034   -6005890.20645  -4507177.98461
  18413758.661   -30305233.376 7 -23438507.62223
 91  4 24 23 42 44.9930000  0  4G13G 2G15G 6
  19107081.6924  -18439408.16647 -12689686.70261
  18950973.2084   -1094405.93947   -836114.47464
  21660034.364    -6007233.769 5  -4508224.90221
  18410650.521   -30321565.877 7 -23451234.22823
 91  4 24 23 42 59.9930000  0  4G13G 2G15G 6
  19097750.3024  -18488446.51547 -12727898.31961
  18951123.1924   -1093617.88747   -835500.40364
  21659803.6224   -6008437.18645  -4509162.60061
  18407563.419   -30337791.304 7 -23463877.40823
 91  4 24 23 43 14.9930000  0  4G13G 2G15G 6
  19088441.1774  -18537360.96047 -12766013.38861
  18951281.0604   -1092783.02647   -834849.85964
  21659599.028    -6009501.725 5  -4509992.09621
  18404496.669   -30353910.623 7 -23476437.90323
 91  4 24 23 43 29.9930000  0  4G13G 2G15G 6
  19079157.4034  -18586145.31947 -12804027.08361
  18951451.2084   -1091895.80447   -834158.51364
  21659422.7324   -6010421.67345  -4510708.89661
  18401450.411   -30369917.842 7 -23488911.05023
 91  4 24 23 43 44.9930000  0  4G13G 2G15G 6
  19069898.3174  -18634804.69047 -12841943.39061
  18951628.9664   -1090961.18647   -833430.23764
  21659277.8254   -6011202.25345  -4511317.12861
  18398423.9824  -30385817.77947 -23501300.59963
 91  4 24 23 43 59.9930000  0  4G13G 2G15G 6
  19060662.685   -18683336.887 7 -12879760.60621
  18951816.6854   -1089977.53847   -832663.75264
  21659157.607    -6011841.538 5  -4511815.25721
  18395418.966   -30401608.510 7 -23513605.05523
 91  4 24 23 44 14.9930000  0  4G13G 2G15G 6
  19051451.6074  -18731741.25847 -12917478.21161
  18952011.3494   -1088944.23647   -831858.58064
  21659064.075    -6012339.258 5  -4512203.07521
  18392435.7554  -30417289.29347 -23525823.83763
 91  4 24 23 44 29.9930000  0  4G13G 2G15G 6
  19042263.6614  -18780023.84647 -12955100.92261
  18952216.6774   -1087867.39447   -831019.47764
  21658993.036    -6012701.360 5  -4512485.21221
  18389472.6224  -30432865.93547 -23537961.47263
 91  4 24 23 44 44.9930000  0  4G13G 2G15G 6
  19033100.5214  -18828176.99047 -12992622.76561
  18952431.1924   -1086739.61947   -830140.68764
  21658949.521    -6012920.460 5  -4512655.91821
  18386528.2394  -30448330.97647 -23550012.14363
 91  4 24 23 44 59.9930000  0  4G13G 2G15G 6
  19023961.388   -18876204.991 7 -13030047.09821
  18952654.6384   -1085565.63947   -829225.90064
  21658932.896    -6013001.291 5
  18383605.0524  -30463688.85147 -23561979.30663
 91  4 24 23 45 14.9930000  0  4G13G 2G15G 6
  19014846.044   -18924102.012 7 -13067369.36821
  18952887.5054   -1084340.02447   -828270.87264
  21658945.075    -6012938.499 5
  18380705.1694  -30478933.71547 -23573858.41463
 91  4 24 23 45 29.9930000  0  4G13G 2G15G 6
  19005756.9824  -18971870.71147 -13104591.64761
  18953129.3334   -1083065.56047   -827277.78164
  21658989.5364   -6012734.94945
  18377825.4824  -30494068.18047 -23585651.49663
 91  4 24 23 45 44.9930000  0  4G13G 2G15G 6
  18996690.700   -19019510.567 7 -13141713.52921
  18953382.9664   -1081741.74647   -826246.23764
  21659048.919    -6012390.388 5
  18374966.0994  -30509091.68947 -23597358.11963
 91  4 24 23 45 59.9930000  0  4G13G 2G15G 6
  18987649.966   -19067022.877 7 -13178736.02621
  18953641.9274   -1080370.36247   -825177.62664
  21659145.614    -6011906.403 5  -4511865.66121
  18372128.7324  -30524005.72747 -23608979.43863
 91  4 24 23 46 14.9930000  0  4G13G 2G15G 6
  18978633.216   -19114407.479 7 -13215659.00921
  18953913.3104   -1078951.19247   -824071.77764
  21659262.325    -6011282.941 5  -4511379.82521
  18369309.9894  -30538809.80447 -23620515.07063
 91  4 24 23 46 29.9930000  0  4G13G 2G15G 6
  18969640.2324  -19161663.89447 -13252482.10661
  18954191.1384   -1077484.08147   -822928.57564
  21659409.3254   -6010519.81245  -4510785.15261
  18366515.3574  -30553503.60847 -23631964.78363
 91  4 24 23 46 44.9930000  0  4G13G 2G15G 6
  18960670.857   -19208789.784 7 -13289203.49921
  18954481.0834   -1075966.79147   -821746.27364
  21659576.286    -6009614.907 5  -4510080.01321
  18363740.4194  -30568084.81647 -23643326.75563
 91  4 24 23 46 59.9930000  0  4G13G 2G15G 6
  18951727.911   -19255787.436 7 -13325824.96621
  18954777.9194   -1074402.04447   -820526.98763
  21659778.9114   -6008570.91245  -4509266.48861
  18360987.6074  -30582555.72847 -23654602.78163
 91  4 24 23 47 14.9930000  0  4G13G 2G15G 6
  18942810.357   -19302651.018 7 -13362341.96921
  18955086.2864   -1072783.96347   -819266.14664
  21660006.872    -6007381.669 5  -4508339.79421
  18358254.9504  -30596910.34747 -23665788.19063
 91  4 24 23 47 29.9930000  0  4G13G 2G15G 6
  18933916.310   -19349392.289 7 -13398763.65321
  18955401.3254   -1071124.53847   -817973.09164
  21660254.075    -6006059.531 5  -4507309.54921
  18355542.6384  -30611160.47847 -23676892.18163
 91  4 24 23 47 44.9930000  0  4G13G 2G15G 6
  18925045.224   -19396003.915 7 -13435084.32221
  18955726.8494   -1069416.79147   -816642.38163
  21660532.903    -6004597.443 5  -4506170.24321
  18352852.9744  -30625298.90047 -23687909.12463
 91  4 24 23 47 59.9930000  0  4G13G 2G15G 6
  18916201.185   -19442482.350 7 -13471301.20321
  18956062.1304   -1067657.14647   -815271.23264
  21660839.1304   -6002992.21945  -4504919.38161
  18350184.6384  -30639321.88747 -23698836.11963
 91  4 24 23 48 14.9930000  0  4G13G 2G15G 6
  18907382.403   -19488829.938 7 -13507416.13021
  18956407.0284   -1065848.08647
  21661170.8174   -6001246.41845
  18347537.4114  -30653231.79347 -23709674.99763
 91  4 24 23 48 29.9930000  0  4G13G 2G15G 6
  18898587.138   -19535045.848 7 -13543428.44721
  18956759.5134   -1063989.34647
  21661530.1774   -5999359.57745
  18344911.8574  -30667027.94747 -23720425.23563
 91  4 24 23 48 44.9930000  0  4G13G 2G15G 6
  18889816.544   -19581135.034 7 -13579342.02021
  18957122.4114   -1062085.75147   -810929.89664
  21661913.7714   -5997336.82145  -4500512.51761
  18342307.6694  -30680715.08647 -23731090.52863
 91  4 24 23 48 59.9930000  0  4G13G 2G15G 6
  18881069.099   -19627098.304 7 -13615157.47521
  18957492.3574   -1060138.43847   -809412.51264
  21662324.638    -5995179.348 5  -4498831.35521
  18339724.2324  -30694294.22347 -23741671.66563
 91  4 24 23 49 14.9930000  0  4G13G 2G15G 6
  18872348.3574  -19672925.61947 -13650866.99162
  18957873.4584   -1058137.72147   -807853.51164
  21662762.4504   -5992877.17645  -4497037.42461
  18337161.9744  -30707755.37247 -23752160.86163
 91  4 24 23 49 29.9930000  0  4G13G 2G15G 6
  18863653.700   -19718622.380 7 -13686474.77221
  18958262.2004   -1056089.25347   -806257.30764
  21663230.6774   -5990436.26145  -4495135.40261
  18334622.6694  -30721103.80947 -23762562.23563
 91  4 24 23 49 44.9930000  0  4G13G 2G15G 6
  18854982.857   -19764185.694 7 -13721978.58122
  18958662.7944   -1053989.87347   -804621.42864
  21663717.4194   -5987853.63645  -4493122.94361
  18332102.8334  -30734336.33247 -23772873.28363
 91  4 24 23 49 59.9930000  0  4G13G 2G15G 6
  18846336.505   -19809620.402 7 -13757382.16922
  18959070.3494   -1051844.94347   -802950.05364
  21664238.0214   -5985134.49645  -4491004.10561
  18329606.5754  -30747457.99847 -23783097.94763
 91  4 24 23 50 14.9930000  0  4G13G 2G15G 6
  18837714.6854  -19854925.59047 -13792684.84062
  18959488.2004   -1049653.54447   -801242.46764
  21664783.669    -5982278.136 5  -4488778.35121
  18327130.0134  -30760467.95347 -23793235.55963
 91  4 24 23 50 29.9920000  0  4G13G 2G15G 6
  18829119.336   -19900096.697 7 -13827883.03022
  18959913.1494   -1047414.60447   -799497.84164
  21665348.2744   -5979283.50645  -4486444.84861
  18324675.7274  -30773363.80347 -23803284.26563
 91  4 24 23 50 44.9920000  0  4G13G 2G15G 6
  18820548.117   -19945138.532 7 -13862980.48322
  18960348.2114   -1045126.77747   -797715.11764
  21665948.3834   -5976149.52345  -4484002.77661
  18322244.3674  -30786146.01847 -23813244.42363
 91  4 24 23 50 59.9920000  0  4G13G 2G15G 6
  18812001.586   -19990047.953 7 -13897974.76122
  18960794.3284   -1042790.34447   -795894.52363
  21666568.3134   -5972876.34945  -4481452.22561
  18319833.2424  -30798813.56847 -23823115.23063
 91  4 24 23 51 14.9920000  0  4G13G 2G15G 6
  18803480.258   -20034823.595 7 -13932864.79822
  18961249.1024   -1040404.07647   -794035.09463
  21667218.0944   -5969462.76145  -4478792.25361
  18317444.945   -30811365.245 7 -23832895.74923
 91  4 24 23 51 29.9920000  0  4G13G 2G15G 6
  18794986.180   -20079468.310 7 -13967652.81022
  18961711.6954   -1037970.96147   -792139.15964
  21667893.828    -5965911.733 5  -4476025.19921
  18315078.828   -30823803.625 7 -23842587.97523
 91  4 24 23 51 44.9920000  0  4G13G 2G15G 6
  18786514.641   -20123978.626 7 -14002336.09322
  18962183.2114   -1035487.66647   -790204.12763
  21668602.164    -5962220.126 5  -4473148.59721
  18312734.078   -30836125.129 7 -23852189.13723
 91  4 24 23 51 59.9920000  0  4G13G 2G15G 6
  18778070.9924  -20168356.41947 -14036916.11962
  18962665.0944   -1032956.31947   -788231.64464
  21669327.9774   -5958390.28845  -4470164.28361
  18310410.7504  -30848331.88547 -23861700.88963
 91  4 24 23 52 14.9920000  0  4G13G 2G15G 6
  18769651.250   -20212605.159 7 -14071395.58422
  18963155.1954   -1030380.68947   -786224.66363
  21670079.6804   -5954426.18045  -4467075.32761
  18308110.445   -30860427.387 7 -23871125.94223
 91  4 24 23 52 29.9920000  0  4G13G 2G15G 6
  18761255.641   -20256716.364 7 -14105767.87422
  18963656.3994   -1027752.44047   -784176.67763
  21670861.672    -5950319.203 5  -4463875.06621
  18305830.289   -30872403.046 7 -23880457.61023
 91  4 24 23 52 44.9920000  0  4G13G 2G15G 6
  18752888.2894  -20300693.06047 -14140035.35862
  18964164.7504   -1025074.76947   -782090.19763
  21671669.8914   -5946072.69145  -4460566.08261
  18303574.2894  -30884261.89247 -23889698.26063
 91  4 24 23 52 59.9920000  0  4G13G 2G15G 6
  18744544.922   -20344534.564 7 -14174197.50122
  18964684.3914   -1022346.97547   -779964.63363
  21672505.6334   -5941686.45645  -4457148.19761
  18301338.899   -30896003.184 7 -23898847.30723
 91  4 24 23 53 14.9920000  0  4G13G 2G15G 6
  18736228.266   -20388239.036 7 -14208252.85922
  18965213.1724   -1019567.38147   -777798.71963
  21673367.867    -5937158.749 5  -4453620.08421
  18299128.039   -30907625.090 7 -23907903.32623
 91  4 24 23 53 29.9920000  0  4G13G 2G15G 6
  18727934.836   -20431818.227 7 -14242210.59622
  18965749.1644   -1016747.82747   -775601.66764
  21674255.9924   -5932501.57745  -4449991.10161
  18296936.9774  -30919139.30147 -23916875.42563
 91  4 24 23 53 44.9920000  0  4G13G 2G15G 6
  18719666.242   -20475266.747 7 -14276066.52022
  18966295.2114   -1013883.17047   -773369.47063
  21675163.9064   -5927709.80945  -4446257.22961
  18294766.9224  -30930540.23247 -23925759.25863
 91  4 24 23 53 59.9920000  0  4G13G 2G15G 6
  18711424.5474  -20518580.10847 -14309817.12162
  18966850.8834   -1010969.11647   -771098.78563
  21676104.1724   -5922779.07145  -4442415.07261
  18292618.9304  -30941823.53247 -23934551.43463
 91  4 24 23 54 14.9920000  0  4G13G 2G15G 6
  18703207.406   -20561760.380 7 -14343464.01122
  18967412.3284   -1008008.26747   -768791.63664
  21677071.1884   -5917711.93545  -4438466.62761
  18290494.430   -30952991.590 7 -23943253.80323
 91  4 24 23 54 29.9920000  0  4G13G 2G15G 6
  18695017.0634  -20604803.95747 -14377004.39062
  18967985.9304   -1004996.83647   -766445.06863
  21678053.852    -5912505.294 5  -4434409.49221
  18288391.4304  -30964040.47147 -23951863.30963
 91  4 24 23 54 44.9920000  0  4G13G 2G15G 6
  18686850.6414  -20647717.93047 -14410443.78762
  18968566.6094   -1001941.88047   -764064.59063
  21679076.930    -5907165.910 5  -4430248.90921
  18286311.2034  -30974977.19747 -23960385.42463
 91  4 24 23 54 59.9920000  0  4G13G 2G15G 6
  18678710.117   -20690499.859 7 -14443780.28022
  18969157.8834    -998841.37047   -761648.61463
  21680114.508    -5901691.960 5  -4425983.46521
  18284251.9614  -30985799.26647 -23968818.19863
 91  4 24 23 55 14.9920000  0  4G13G 2G15G 6
  18670595.1334  -20733143.76947 -14477009.23462
  18969755.8364    -995689.96647   -759192.98263
  21681186.211    -5896078.073 5  -4421608.97721
  18282214.5864  -30996501.20647 -23977157.36763
 91  4 24 23 55 29.9920000  0  4G13G 2G15G 6
  18662503.8204  -20775658.35447 -14510137.41262
  18970364.2894    -992495.90447   -756704.10864
  21682278.008    -5890332.487 5  -4417131.88121
  18280199.9304  -31007091.19247 -23985409.29663
 91  4 24 23 55 44.9920000  0  4G13G 2G15G 6
  18654438.7194  -20818037.13647 -14543159.77362
  18970981.8754    -989252.64647   -754176.90164
  21683394.289    -5884449.135 5  -4412547.42421
  18278207.9534  -31017562.57347 -23993568.81063
 91  4 24 23 55 59.9920000  0  4G13G 2G15G 6
  18646399.7194  -20860281.11847 -14576077.09662
  18971608.4144    -985961.80147   -751612.61263
  21684544.6024   -5878429.55045  -4407856.80261
  18276236.9064  -31027916.58847 -24001636.86863
 91  4 24 23 56 14.9920000  0  4G13G 2G15G 6
  18638389.1254  -20902388.48447 -14608887.96162
  18972243.4534    -982621.55347   -749009.83163
  21685716.7744   -5872272.06545  -4403058.73361
  18274288.6884  -31038151.35147 -24009612.00463
 91  4 24 23 56 29.9920000  0  4G13G 2G15G 6
  18630399.4774  -20944361.89247 -14641594.44762
  18972888.6954    -979234.68147   -746370.71563
  21686914.984    -5865979.833 5  -4398155.68321
  18272364.5244  -31048269.54147 -24017496.30463
 91  4 24 23 56 44.9920000  0  4G13G 2G15G 6
  18622438.1954  -20986199.63847 -14674195.21962
  18973541.6644    -975799.54147   -743693.98563
  21688134.7974   -5859550.95445  -4393146.15061
  18270460.1254  -31058269.30847 -24025288.32663
 91  4 24 23 56 59.9920000  0  4G13G 2G15G 6
  18614503.8994  -21027904.92147 -14706692.77562
  18974202.9454    -972319.57347   -740982.32963
  21689385.274    -5852989.241 5  -4388033.11021
  18268579.7504  -31068153.88847 -24032990.59763
 91  4 24 23 57 14.9920000  0  4G13G 2G15G 6
  18606591.8524  -21069473.12847 -14739083.52462
  18974875.5784    -968790.48547   -738232.39663
  21690659.5314   -5846290.25545  -4382813.08961
  18266721.5864  -31077918.73747 -24040599.56663
 91  4 24 23 57 29.9920000  0  4G13G 2G15G 6
  18598708.7814  -21110906.49147 -14771369.19362
  18975556.0084    -965214.39647   -735445.83963
  21691961.242    -5839456.427 5  -4377488.01521
  18264885.9304  -31087566.06147 -24048116.96263
 91  4 24 23 57 44.9920000  0  4G13G 2G15G 6
  18590850.1494  -21152203.56947 -14803548.66862
  18976246.0864    -961589.90047   -732621.56263
  21693283.0164   -5832486.65645  -4372056.99661
  18263073.2584  -31097094.22447 -24055541.50663
 91  4 24 23 57 59.9920000  0  4G13G 2G15G 6
  18583018.1954  -21193366.06647 -14835623.27562
  18976945.1644    -957918.88747   -729761.03763
  21694633.2894   -5825382.76645  -4366521.46461
  18261282.2344  -31106504.95947 -24062874.54863
 91  4 24 23 58 14.9920000  0  4G13G 2G15G 6
  18575210.4064  -21234389.66647 -14867589.65362
  18977652.2814    -954197.39147   -726861.18063
  21696015.617    -5818140.924 5  -4360878.46021
  18259514.6414  -31115793.99547 -24070112.75463
 91  4 24 23 58 29.9920000  0  4G13G 2G15G 6
  18567428.4304  -21275278.54547 -14899451.04962
  18978371.0004    -950429.69147   -723925.31263
  21697419.422    -5810765.631 5  -4355131.45421
  18257769.6804  -31124965.41347 -24077259.31863
 91  4 24 23 58 44.9920000  0  4G13G 2G15G 6
  18559674.4534  -21316029.84047 -14931205.23962
  18979095.9774    -946613.27647   -720951.48364
  21698843.9694   -5803254.23245  -4349278.40161
  18256046.3834  -31134016.44247 -24084312.06763
 91  4 24 23 58 59.9920000  0  4G13G 2G15G 6
  18551947.1564  -21356641.69547 -14962850.77962
  18979831.4064    -942746.09047   -717938.10364
  21700305.9064   -5795605.02345  -4343317.96361
  18254347.4384  -31142945.06847 -24091269.43963
 91  4 24 23 59 14.9920000  0  4G13G 2G15G 6
  18544244.6564  -21397113.96847 -14994387.55362
  18980577.6954    -938828.15247   -714885.17164
  21701782.586    -5787817.979 5  -4337250.11621
  18252672.0474  -31151751.09047 -24098131.27963
 91  4 24 23 59 29.9920000  0  4G13G 2G15G 6
  18536568.4144  -21437450.20947 -15025818.32462
  18981331.1024    -934863.01447   -711795.45864
  21703293.195    -5779897.038 5  -4331077.94821
  18251018.9454  -31160437.98847 -24104900.28463
 91  4 24 23 59 44.9920000  0  4G13G 2G15G 6
  18528918.5004  -21477648.71947 -15057141.77262
  18982095.6254    -930849.36147   -708667.94463
  21704824.1804   -5771840.96745  -4324800.48061
  18249389.1884  -31169004.15647 -24111575.21763
 91  4 24 23 59 59.9920000  0  4G13G 2G15G 6
  18521296.2894  -21517710.28247 -15088358.51462
  18982869.6564    -926788.09447   -705503.32964
  21706383.5554   -5763650.62745  -4318418.37261
  18247781.3444  -31177450.56947 -24118156.83763
 91  4 25  0  0 14.9920000  0  4G13G 2G15G 6
  18513697.2974  -21557634.49447 -15119468.22462
  18983652.0314    -922678.82847   -702301.31063
  21707970.6174   -5755325.96545  -4311931.60661
  18246197.2194  -31185776.44547 -24124644.53163
 91  4 25  0  0 29.9920000  0  4G13G 2G15G 6
  18506128.0394  -21597418.13047 -15150468.39762
  18984441.6804    -918518.61847   -699059.59663
  21709579.1334   -5746864.04045  -4305337.88461
  18244637.2894  -31193978.82347 -24131035.99163
 91  4 25  0  0 44.9920000  0  4G13G 2G15G 6
  18498582.0554  -21637064.73847 -15181361.79862
  18985243.1564    -914310.94947   -695780.89864
  21711213.539    -5738268.305 5  -4298639.89921
  18243098.1334  -31202060.69847 -24137333.55763
 91  4 25  0  0 59.9920000  0  4G13G 2G15G 6
  18491064.9144  -21676575.39947 -15212149.26462
  18986052.828     -910057.073 7   -692466.20523
  21712873.4694   -5729540.46845  -4291838.97961
  18241582.6414  -31210023.57647 -24143538.39663
 91  4 25  0  1 14.9920000  0  4G13G 2G15G 6
  18483571.2504  -21715947.88247 -15242829.07062
  18986871.7344    -905754.74447   -689113.74963
  21714558.367    -5720678.448 5  -4284933.48521
  18240091.3914  -31217864.93647 -24149648.54563
 91  4 25  0  1 29.9920000  0  4G13G 2G15G 6
  18476105.7114  -21755181.56947 -15273400.70362
  18987698.0634    -901403.52747   -685723.20663
  21716271.391    -5711681.716 5  -4277923.01121
  18238621.3754  -31225584.38947 -24155663.70263
 91  4 25  0  1 44.9920000  0  4G13G 2G15G 6
  18468666.5944  -21794275.64247 -15303863.56162
  18988536.4534    -897002.81047   -682294.08263
  21718011.0864   -5702549.73745  -4270807.18861
  18237177.1254  -31233180.88747 -24161583.05163
 91  4 25  0  1 59.9920000  0  4G13G 2G15G 6
  18461253.7744  -21833232.32647 -15334219.35262
  18989382.3524    -892554.90347   -678828.18963
  21719774.0004   -5693285.00545  -4263587.91161
  18235754.3284  -31240656.51947 -24167408.21563
 91  4 25  0  2 14.9920000  0  4G13G 2G15G 6
  18453866.1094  -21872056.61947 -15364471.98762
  18990237.0394    -888064.81147   -675329.42563
  21721563.516    -5683893.073 5  -4256269.51521
  18234353.4224  -31248016.52847 -24173143.28663
 91  4 25  0  2 29.9920000  0  4G13G 2G15G 6
  18446504.0084  -21910744.00447 -15394617.94162
  18991100.5314    -883528.07147   -671794.31263
  21723374.438    -5674369.709 5  -4248848.70021
  18232975.3054  -31255256.14847 -24178784.54763
 91  4 25  0  2 44.9920000  0  4G13G 2G15G 6
  18439168.6954  -21949290.03147 -15424653.74862
  18991974.2034    -878940.70747   -668219.75063
  21725210.3204   -5664710.98445  -4241322.39961
  18231621.5704  -31262371.18447 -24184328.73563
 91  4 25  0  2 59.9920000  0  4G13G 2G15G 6
  18431861.0944  -21987695.93647 -15454580.36962
  18992856.5554    -874303.74547   -664606.54163
  21727076.109    -5654918.022 5  -4233691.51521
  18230291.0554  -31269362.48847 -24189776.50563
 91  4 25  0  3 14.9920000  0  4G13G 2G15G 6
  18424577.9774  -22025965.50047 -15484400.74862
  18993746.9384    -869621.04547   -660957.69563
  21728962.9064   -5644994.80145  -4225959.13761
  18228984.0634  -31276233.92447 -24195130.87063
 91  4 25  0  3 29.9920000  0  4G13G 2G15G 6
  18417321.2034  -22064099.22947 -15514115.28462
  18994646.3674    -864893.41547   -657273.83763
  21730875.359    -5634942.669 5  -4218126.28721
  18227697.9384  -31282986.12747 -24200392.32763
 91  4 25  0  3 44.9920000  0  4G13G 2G15G 6
  18410090.0164  -22102101.09447 -15543727.06862
  18995554.7504    -860124.93847   -653558.15163
  21732812.6494   -5624765.40545  -4210195.96661
  18226436.3994  -31289622.93047 -24205563.86263
 91  4 25  0  3 59.9920000  0  4G13G 2G15G 6
  18402885.2584  -22139962.34547 -15573229.28262
  18996471.3994    -855306.82547   -649803.78363
  21734775.1024   -5614454.20545  -4202161.23361
  18225196.1954  -31296135.50747 -24210638.59663
 91  4 25  0  4 14.9920000  0  4G13G 2G15G 6
  18395706.2274  -22177685.57347 -15602623.94862
  18997397.0004    -850441.65447   -646012.74563
  21736763.359    -5604012.140 5  -4194024.54821
  18223979.7194  -31302526.32147 -24215618.45163
 91  4 25  0  4 29.9920000  0  4G13G 2G15G 6
  18388553.5704  -22215273.07647 -15631912.85362
  18998331.461     -845532.013 7   -642187.06823
  21738773.2034   -5593441.72845  -4185787.86961
  18222787.7344  -31308797.86247 -24220505.36763
 91  4 25  0  4 44.9920000  0  4G13G 2G15G 6
  18381428.3674  -22252720.34347 -15661092.48762
  18999273.1724    -840573.35547   -638323.18663
  21740811.7894   -5582738.63945  -4177447.79061
  18221617.4694  -31314945.37647 -24225295.63763
 91  4 25  0  4 59.9920000  0  4G13G 2G15G 6
  18374327.055   -22290029.273 7 -15690164.32422
  19000227.7194    -835567.71047   -634422.69363
  21742871.3054   -5571905.22845  -4169006.14661
  18220469.9614  -31320970.65847 -24229990.66263
 91  4 25  0  5 14.9920000  0  4G13G 2G15G 6
  18367254.344   -22327196.815 7 -15719125.99222
  19001189.9694    -830512.36247   -630483.47163
  21744955.6884   -5560938.68445  -4160460.76561
  18219347.2274  -31326870.88847 -24234588.24363
 91  4 25  0  5 29.9920000  0  4G13G 2G15G 6
  18360208.742   -22364227.865 7 -15747981.30122
  19002159.7114    -825412.03047   -626509.19263
  21747069.899    -5549844.211 5  -4151815.71421
  18218247.4534  -31332650.84247 -24239092.10463
 91  4 25  0  5 44.9920000  0  4G13G 2G15G 6
  18353189.149   -22401118.010 7 -15776726.81522
  19003140.125     -820262.334 7   -622496.45723
  21749203.7194   -5538617.74945  -4143067.80561
  18217171.4064  -31338305.88747 -24243498.63263
 91  4 25  0  5 59.9920000  0  4G13G 2G15G 6
  18346194.3834  -22437870.42747 -15805365.00562
  19004128.7504    -815066.47947   -618447.75063
  21751366.3054   -5527262.35945  -4134219.43361
  18216118.5704  -31343839.17847 -24247810.28963
